ECMWFFLT1_prec_pwat_000.txt.gz
Precipitable_Water
0.93 0.97 1.03 1.08 1.09 1.05 1.00 1.07 1.15 1.16 1.14 1.13 1.14 1.12 1.16 1.18 1.18 1.22 1.24 1.24 1.22 1.22 1.29 1.36 1.43 1.44 1.38 1.34 1.31 1.35 1.43 1.47 1.50 1.47 1.44 1.43 1.46 1.45 1.46 1.47 1.45 1.45 1.46 1.41 1.40 1.39 1.40 1.41 1.39 1.38 1.38 1.35 1.27 1.28 1.25 1.20 1.16 1.15 1.15 1.10 1.02 1.01 0.99
0.91 0.92 0.97 1.03 1.05 1.04 0.97 1.02 1.08 1.11 1.11 1.11 1.12 1.13 1.15 1.17 1.18 1.17 1.23 1.28 1.25 1.24 1.26 1.32 1.39 1.40 1.36 1.35 1.38 1.41 1.41 1.46 1.51 1.51 1.48 1.45 1.51 1.53 1.54 1.55 1.48 1.45 1.48 1.45 1.45 1.47 1.45 1.42 1.41 1.36 1.33 1.32 1.30 1.32 1.31 1.30 1.26 1.23 1.21 1.18 1.09 1.06 1.07
0.83 0.87 0.91 0.98 1.00 0.99 0.99 0.98 1.02 1.03 1.06 1.07 1.08 1.11 1.13 1.18 1.22 1.19 1.22 1.25 1.24 1.22 1.22 1.25 1.32 1.37 1.38 1.41 1.39 1.38 1.41 1.49 1.51 1.49 1.47 1.44 1.46 1.48 1.52 1.54 1.49 1.41 1.48 1.56 1.54 1.45 1.44 1.35 1.34 1.31 1.29 1.27 1.32 1.37 1.38 1.35 1.31 1.28 1.25 1.23 1.15 1.10 1.09
0.74 0.81 0.88 0.96 1.02 1.05 1.03 0.97 0.97 0.99 1.03 1.07 1.07 1.10 1.14 1.18 1.28 1.29 1.26 1.26 1.22 1.20 1.16 1.18 1.23 1.29 1.34 1.37 1.37 1.38 1.42 1.48 1.51 1.51 1.52 1.48 1.49 1.53 1.50 1.51 1.48 1.42 1.45 1.52 1.55 1.50 1.40 1.34 1.32 1.28 1.25 1.27 1.30 1.36 1.41 1.37 1.36 1.34 1.30 1.26 1.20 1.15 1.10
0.69 0.76 0.86 0.91 0.95 1.03 1.05 1.00 0.97 0.97 0.99 1.05 1.09 1.11 1.16 1.23 1.30 1.32 1.29 1.27 1.22 1.19 1.19 1.19 1.21 1.27 1.33 1.34 1.33 1.37 1.42 1.46 1.51 1.53 1.58 1.59 1.58 1.60 1.57 1.55 1.54 1.46 1.50 1.60 1.55 1.44 1.39 1.35 1.34 1.30 1.28 1.29 1.34 1.39 1.40 1.39 1.36 1.37 1.35 1.32 1.25 1.20 1.15
0.66 0.74 0.79 0.86 0.93 1.00 1.04 1.04 1.00 0.98 0.98 1.03 1.06 1.10 1.15 1.23 1.28 1.27 1.30 1.29 1.24 1.24 1.25 1.21 1.22 1.29 1.27 1.31 1.35 1.38 1.44 1.50 1.54 1.58 1.59 1.58 1.60 1.61 1.60 1.54 1.50 1.48 1.56 1.61 1.58 1.48 1.44 1.41 1.37 1.38 1.35 1.36 1.39 1.41 1.40 1.39 1.41 1.41 1.38 1.36 1.32 1.24 1.18
0.64 0.72 0.78 0.85 0.90 0.94 1.00 1.02 1.03 1.02 1.04 1.05 1.11 1.17 1.18 1.24 1.27 1.27 1.31 1.31 1.28 1.23 1.24 1.21 1.22 1.25 1.25 1.30 1.34 1.37 1.40 1.43 1.52 1.55 1.61 1.55 1.54 1.53 1.59 1.54 1.45 1.48 1.61 1.69 1.61 1.56 1.48 1.47 1.42 1.44 1.44 1.46 1.46 1.44 1.41 1.38 1.36 1.38 1.35 1.32 1.30 1.29 1.23
0.62 0.69 0.77 0.81 0.86 0.91 0.94 1.01 1.04 1.06 1.10 1.10 1.11 1.14 1.16 1.20 1.27 1.28 1.27 1.29 1.32 1.29 1.27 1.26 1.26 1.25 1.30 1.32 1.34 1.36 1.39 1.43 1.50 1.49 1.50 1.48 1.53 1.54 1.53 1.44 1.42 1.50 1.63 1.70 1.73 1.64 1.53 1.46 1.45 1.48 1.52 1.51 1.47 1.44 1.43 1.41 1.37 1.32 1.33 1.28 1.27 1.26 1.27
0.66 0.67 0.71 0.75 0.80 0.87 0.92 0.98 1.06 1.09 1.11 1.10 1.07 1.12 1.16 1.19 1.22 1.25 1.27 1.31 1.38 1.31 1.27 1.30 1.36 1.39 1.38 1.35 1.34 1.35 1.40 1.43 1.43 1.45 1.48 1.49 1.52 1.48 1.43 1.43 1.44 1.53 1.61 1.83 1.77 1.67 1.52 1.42 1.44 1.49 1.52 1.53 1.52 1.50 1.43 1.40 1.34 1.34 1.30 1.32 1.32 1.28 1.23
0.69 0.67 0.74 0.77 0.80 0.86 0.92 0.99 1.07 1.14 1.16 1.14 1.11 1.13 1.16 1.20 1.22 1.26 1.31 1.34 1.38 1.38 1.36 1.37 1.42 1.51 1.47 1.40 1.36 1.39 1.43 1.47 1.49 1.48 1.48 1.44 1.47 1.48 1.46 1.44 1.47 1.52 1.62 1.77 1.78 1.70 1.52 1.45 1.47 1.49 1.50 1.47 1.49 1.49 1.45 1.42 1.39 1.34 1.33 1.32 1.32 1.27 1.22
0.64 0.65 0.69 0.72 0.77 0.84 0.90 0.96 1.02 1.07 1.12 1.14 1.14 1.12 1.12 1.18 1.23 1.25 1.29 1.34 1.36 1.41 1.46 1.45 1.45 1.52 1.60 1.53 1.46 1.50 1.52 1.54 1.54 1.51 1.56 1.62 1.62 1.53 1.38 1.42 1.53 1.59 1.53 1.53 1.51 1.60 1.54 1.37 1.35 1.31 1.35 1.38 1.42 1.47 1.45 1.41 1.39 1.36 1.35 1.35 1.31 1.27 1.24
0.65 0.64 0.66 0.72 0.80 0.87 0.90 0.97 1.06 1.10 1.09 1.12 1.13 1.11 1.10 1.13 1.18 1.23 1.29 1.33 1.39 1.42 1.45 1.49 1.52 1.51 1.63 1.72 1.69 1.74 1.69 1.68 1.71 1.75 1.77 1.75 1.64 1.42 1.33 1.38 1.42 1.50 1.51 1.42 1.42 1.48 1.49 1.30 1.19 1.22 1.32 1.38 1.41 1.43 1.45 1.42 1.40 1.39 1.37 1.33 1.30 1.27 1.25
0.62 0.65 0.67 0.71 0.80 0.91 0.99 1.05 1.06 1.05 1.07 1.08 1.10 1.11 1.12 1.13 1.15 1.20 1.26 1.30 1.35 1.43 1.46 1.52 1.58 1.64 1.61 1.61 1.66 1.74 1.70 1.68 1.62 1.66 1.81 1.87 1.85 1.46 1.20 1.27 1.29 1.33 1.38 1.33 1.28 1.28 1.28 1.26 1.16 1.19 1.30 1.32 1.31 1.33 1.37 1.39 1.41 1.41 1.40 1.34 1.27 1.24 1.24
0.62 0.65 0.67 0.71 0.80 0.87 0.89 0.97 1.02 1.03 1.05 1.07 1.10 1.13 1.14 1.15 1.17 1.18 1.22 1.25 1.32 1.39 1.45 1.53 1.60 1.62 1.59 1.63 1.68 1.74 1.62 1.59 1.61 1.64 1.66 1.69 1.82 1.56 1.22 1.17 1.17 1.25 1.26 1.32 1.26 1.22 1.24 1.19 1.11 1.10 1.21 1.27 1.29 1.32 1.37 1.41 1.44 1.47 1.45 1.39 1.30 1.28 1.28
0.60 0.60 0.65 0.64 0.75 0.85 0.92 0.95 0.95 0.98 1.02 1.05 1.08 1.08 1.09 1.13 1.18 1.22 1.26 1.30 1.34 1.38 1.43 1.54 1.59 1.60 1.63 1.72 1.78 1.76 1.70 1.64 1.65 1.72 1.70 1.76 1.93 1.69 1.40 1.18 1.09 1.12 1.21 1.25 1.15 1.16 1.16 1.11 1.03 1.01 1.10 1.20 1.24 1.28 1.34 1.37 1.38 1.43 1.44 1.35 1.30 1.30 1.30
0.60 0.63 0.65 0.63 0.70 0.82 0.84 0.87 0.94 0.99 1.03 1.04 1.05 1.05 1.06 1.10 1.15 1.19 1.20 1.24 1.30 1.34 1.43 1.52 1.57 1.62 1.67 1.73 1.72 1.75 1.78 1.79 1.79 1.74 1.68 1.67 1.77 1.64 1.37 1.23 1.13 1.10 1.07 1.08 1.08 1.10 1.10 1.13 1.10 1.04 1.04 1.11 1.22 1.27 1.32 1.34 1.39 1.43 1.41 1.36 1.32 1.32 1.31
0.57 0.59 0.61 0.65 0.67 0.80 0.84 0.86 0.90 0.96 0.99 1.01 1.02 1.05 1.07 1.11 1.16 1.21 1.23 1.27 1.32 1.36 1.44 1.52 1.57 1.64 1.67 1.73 1.70 1.75 1.77 1.78 1.79 1.80 1.78 1.75 1.78 1.71 1.53 1.42 1.27 1.11 1.09 1.06 1.06 1.07 1.08 1.11 1.08 1.06 1.12 1.15 1.21 1.28 1.29 1.29 1.33 1.39 1.40 1.35 1.32 1.32 1.35
0.54 0.59 0.62 0.67 0.69 0.76 0.84 0.82 0.86 0.90 0.92 0.95 1.01 1.08 1.13 1.15 1.19 1.21 1.23 1.30 1.34 1.41 1.50 1.53 1.58 1.62 1.65 1.76 1.66 1.60 1.57 1.58 1.60 1.61 1.64 1.66 1.63 1.65 1.66 1.60 1.44 1.26 1.19 1.14 1.10 1.10 1.11 1.11 1.11 1.10 1.11 1.16 1.19 1.23 1.28 1.26 1.30 1.35 1.36 1.33 1.33 1.35 1.38
0.59 0.70 0.75 0.78 0.81 0.82 0.85 0.85 0.89 0.93 0.97 1.04 1.11 1.15 1.18 1.22 1.21 1.20 1.27 1.34 1.41 1.48 1.49 1.52 1.57 1.61 1.63 1.65 1.62 1.61 1.60 1.56 1.55 1.58 1.57 1.57 1.63 1.65 1.62 1.53 1.46 1.36 1.29 1.25 1.21 1.19 1.15 1.11 1.14 1.16 1.20 1.17 1.16 1.22 1.28 1.27 1.32 1.38 1.34 1.34 1.38 1.40 1.41
0.57 0.71 0.79 0.82 0.85 0.84 0.91 0.94 0.97 0.99 1.03 1.09 1.16 1.21 1.28 1.31 1.30 1.35 1.42 1.43 1.46 1.44 1.47 1.46 1.50 1.55 1.57 1.58 1.57 1.59 1.62 1.61 1.58 1.51 1.49 1.49 1.49 1.51 1.51 1.51 1.45 1.40 1.34 1.31 1.29 1.25 1.21 1.19 1.18 1.20 1.25 1.24 1.23 1.31 1.33 1.31 1.36 1.39 1.39 1.42 1.44 1.41 1.38
0.61 0.65 0.71 0.81 0.90 0.90 0.90 0.91 0.94 0.99 1.05 1.06 1.12 1.21 1.26 1.28 1.34 1.43 1.45 1.46 1.42 1.42 1.42 1.43 1.46 1.50 1.53 1.53 1.56 1.58 1.58 1.55 1.48 1.42 1.40 1.43 1.43 1.43 1.45 1.46 1.47 1.44 1.40 1.33 1.27 1.25 1.25 1.24 1.23 1.22 1.29 1.33 1.33 1.38 1.31 1.31 1.33 1.38 1.41 1.45 1.42 1.34 1.29
0.62 0.66 0.70 0.80 0.87 0.96 0.95 0.92 0.91 0.94 1.00 1.10 1.15 1.17 1.23 1.27 1.37 1.38 1.40 1.43 1.34 1.32 1.33 1.33 1.35 1.37 1.39 1.37 1.36 1.37 1.41 1.39 1.38 1.40 1.45 1.45 1.43 1.41 1.41 1.43 1.44 1.41 1.41 1.38 1.38 1.38 1.34 1.30 1.25 1.25 1.31 1.37 1.33 1.34 1.33 1.36 1.38 1.44 1.45 1.43 1.36 1.25 1.26
0.70 0.72 0.76 0.85 0.90 0.95 0.98 0.98 0.99 1.03 1.05 1.10 1.15 1.16 1.18 1.23 1.26 1.24 1.23 1.22 1.17 1.17 1.20 1.21 1.21 1.23 1.27 1.27 1.28 1.31 1.35 1.39 1.41 1.42 1.45 1.44 1.45 1.43 1.44 1.44 1.44 1.45 1.49 1.44 1.41 1.39 1.35 1.31 1.29 1.32 1.36 1.41 1.36 1.37 1.35 1.33 1.35 1.42 1.43 1.37 1.30 1.23 1.24
0.71 0.78 0.82 0.88 0.99 1.04 0.99 1.00 1.03 1.08 1.16 1.18 1.12 1.09 1.07 1.10 1.13 1.09 1.07 1.07 1.12 1.15 1.18 1.20 1.20 1.26 1.28 1.28 1.30 1.32 1.38 1.42 1.43 1.43 1.48 1.50 1.49 1.49 1.51 1.52 1.51 1.51 1.53 1.45 1.42 1.38 1.36 1.37 1.38 1.43 1.47 1.42 1.35 1.36 1.35 1.35 1.36 1.39 1.38 1.27 1.14 1.13 1.19
0.71 0.78 0.83 0.88 0.89 0.92 0.96 1.00 1.06 1.08 1.17 1.22 1.07 1.09 1.10 1.08 1.06 1.06 1.06 1.09 1.15 1.19 1.18 1.21 1.25 1.28 1.27 1.30 1.34 1.37 1.44 1.45 1.45 1.48 1.52 1.54 1.58 1.56 1.52 1.50 1.52 1.55 1.56 1.54 1.51 1.47 1.47 1.48 1.45 1.44 1.43 1.42 1.39 1.42 1.35 1.35 1.43 1.39 1.26 1.13 1.10 1.16 1.24
0.78 0.80 0.84 0.94 0.97 1.02 1.06 1.09 1.10 1.12 1.10 1.04 1.03 1.09 1.13 1.12 1.11 1.10 1.10 1.13 1.16 1.16 1.17 1.22 1.29 1.33 1.33 1.34 1.38 1.42 1.45 1.46 1.47 1.49 1.51 1.53 1.55 1.57 1.54 1.55 1.55 1.55 1.54 1.54 1.51 1.45 1.44 1.39 1.34 1.33 1.32 1.34 1.33 1.36 1.32 1.25 1.34 1.31 1.16 1.15 1.15 1.17 1.24
0.88 0.92 0.94 0.99 1.01 1.04 1.05 1.08 1.06 1.00 1.00 1.08 1.13 1.17 1.21 1.21 1.16 1.11 1.13 1.15 1.15 1.12 1.17 1.25 1.31 1.31 1.31 1.35 1.37 1.40 1.42 1.47 1.47 1.48 1.53 1.60 1.60 1.56 1.55 1.56 1.56 1.54 1.51 1.45 1.40 1.35 1.32 1.27 1.26 1.26 1.26 1.29 1.31 1.30 1.31 1.32 1.28 1.32 1.22 1.23 1.26 1.29 1.25
1.00 1.03 1.09 1.09 1.08 1.02 0.97 0.97 1.00 1.01 1.04 1.10 1.17 1.21 1.25 1.24 1.17 1.14 1.14 1.13 1.10 1.14 1.21 1.24 1.26 1.31 1.36 1.37 1.40 1.46 1.50 1.49 1.54 1.59 1.59 1.60 1.60 1.53 1.53 1.55 1.53 1.46 1.39 1.33 1.27 1.23 1.23 1.24 1.21 1.19 1.21 1.26 1.29 1.28 1.29 1.36 1.26 1.22 1.23 1.23 1.22 1.21 1.20
0.94 0.92 0.92 0.91 0.92 0.97 0.96 0.96 0.99 1.00 1.04 1.12 1.18 1.22 1.23 1.20 1.12 1.12 1.13 1.11 1.14 1.22 1.23 1.22 1.28 1.32 1.35 1.40 1.43 1.47 1.49 1.53 1.56 1.57 1.57 1.54 1.56 1.54 1.48 1.47 1.42 1.37 1.31 1.23 1.19 1.17 1.15 1.15 1.15 1.15 1.18 1.23 1.26 1.29 1.35 1.29 1.21 1.20 1.21 1.20 1.20 1.19 1.18
0.86 0.86 0.86 0.89 0.91 0.95 0.99 0.98 1.01 1.07 1.16 1.22 1.24 1.28 1.28 1.22 1.15 1.15 1.18 1.18 1.30 1.33 1.33 1.33 1.34 1.39 1.37 1.38 1.41 1.47 1.52 1.55 1.58 1.59 1.58 1.56 1.55 1.51 1.45 1.39 1.34 1.30 1.23 1.18 1.14 1.12 1.10 1.08 1.06 1.06 1.07 1.08 1.13 1.21 1.18 1.15 1.18 1.16 1.16 1.16 1.16 1.18 1.21
0.88 0.87 0.87 0.88 0.89 0.92 0.94 0.97 1.01 1.04 1.07 1.14 1.21 1.32 1.39 1.36 1.20 1.16 1.20 1.30 1.40 1.41 1.41 1.44 1.44 1.42 1.38 1.40 1.45 1.51 1.56 1.62 1.65 1.65 1.59 1.54 1.49 1.42 1.37 1.29 1.27 1.22 1.19 1.12 1.09 1.07 1.01 1.00 1.04 1.03 1.02 0.99 1.01 1.03 1.04 1.08 1.11 1.13 1.13 1.14 1.16 1.21 1.22
1.03 0.97 0.93 0.93 0.99 1.02 0.97 0.99 1.02 1.03 1.06 1.12 1.18 1.19 1.25 1.27 1.26 1.19 1.23 1.31 1.34 1.47 1.57 1.53 1.46 1.41 1.41 1.46 1.48 1.49 1.54 1.57 1.61 1.59 1.51 1.45 1.41 1.38 1.36 1.31 1.27 1.22 1.16 1.11 1.07 1.02 0.96 0.99 1.03 1.06 1.04 1.00 1.01 1.02 1.04 1.07 1.09 1.13 1.18 1.20 1.21 1.19 1.17
0.98 1.01 1.00 0.97 1.03 1.08 1.01 0.98 0.99 1.03 1.06 1.09 1.16 1.21 1.24 1.25 1.28 1.30 1.39 1.40 1.45 1.54 1.59 1.52 1.46 1.43 1.44 1.47 1.51 1.52 1.52 1.49 1.46 1.44 1.42 1.40 1.39 1.39 1.38 1.38 1.32 1.26 1.21 1.18 1.17 1.18 1.14 1.09 1.06 1.03 1.00 0.98 1.02 1.06 1.07 1.07 1.08 1.11 1.16 1.19 1.14 1.11 1.12
1.06 1.06 1.08 1.08 1.08 1.12 1.09 1.04 1.02 1.06 1.10 1.13 1.20 1.26 1.29 1.31 1.34 1.39 1.42 1.46 1.51 1.55 1.53 1.46 1.41 1.41 1.44 1.48 1.51 1.51 1.49 1.44 1.40 1.38 1.36 1.37 1.37 1.36 1.35 1.37 1.35 1.28 1.23 1.19 1.17 1.14 1.14 1.13 1.07 1.02 1.00 1.00 1.01 1.05 1.08 1.10 1.13 1.15 1.13 1.16 1.19 1.14 1.11
1.09 1.10 1.12 1.07 1.09 1.11 1.08 1.08 1.06 1.08 1.11 1.15 1.24 1.28 1.31 1.33 1.37 1.43 1.47 1.53 1.55 1.55 1.47 1.44 1.44 1.47 1.48 1.48 1.48 1.46 1.46 1.41 1.38 1.35 1.32 1.32 1.35 1.39 1.39 1.39 1.36 1.33 1.31 1.36 1.33 1.27 1.20 1.17 1.14 1.08 1.06 1.07 1.09 0.99 0.96 1.03 1.07 1.10 1.15 1.14 1.11 1.06 1.00
1.11 1.09 1.11 1.14 1.13 1.13 1.13 1.12 1.11 1.10 1.12 1.18 1.25 1.27 1.29 1.32 1.36 1.42 1.47 1.48 1.50 1.51 1.45 1.43 1.43 1.45 1.45 1.46 1.44 1.40 1.38 1.35 1.31 1.30 1.30 1.30 1.30 1.29 1.29 1.31 1.32 1.32 1.28 1.23 1.22 1.21 1.22 1.21 1.20 1.18 1.12 0.99 1.02 1.09 1.04 1.02 1.11 1.13 1.06 1.02 1.00 0.99 0.97
1.06 1.08 1.11 1.17 1.14 1.13 1.14 1.15 1.17 1.15 1.15 1.20 1.25 1.25 1.27 1.30 1.34 1.37 1.42 1.43 1.45 1.47 1.46 1.46 1.42 1.40 1.40 1.38 1.34 1.34 1.32 1.29 1.26 1.28 1.28 1.28 1.27 1.25 1.22 1.19 1.20 1.19 1.15 1.12 1.12 1.11 1.12 1.13 1.10 1.08 1.02 1.04 1.11 1.06 1.01 1.02 1.02 1.00 0.99 0.99 0.98 0.99 0.99
1.02 1.07 1.10 1.12 1.12 1.16 1.19 1.21 1.20 1.18 1.16 1.21 1.24 1.25 1.27 1.27 1.32 1.34 1.37 1.40 1.43 1.47 1.43 1.38 1.33 1.28 1.26 1.25 1.26 1.27 1.24 1.24 1.23 1.23 1.22 1.22 1.23 1.19 1.15 1.12 1.10 1.05 1.05 1.04 1.05 1.06 1.05 1.04 1.02 1.01 0.99 0.97 1.03 1.00 0.99 0.99 0.99 1.00 1.02 1.04 1.03 1.00 0.96

ECMWFFLT1_prec_pwat_003.txt.gz
Precipitable_Water
1.12 1.16 1.09 1.09 1.15 1.26 1.20 1.19 1.23 1.24 1.25 1.24 1.23 1.21 1.21 1.24 1.25 1.29 1.24 1.22 1.21 1.25 1.29 1.28 1.32 1.36 1.33 1.32 1.32 1.34 1.37 1.37 1.36 1.38 1.43 1.52 1.53 1.54 1.51 1.52 1.50 1.51 1.54 1.53 1.57 1.57 1.60 1.59 1.49 1.41 1.41 1.44 1.44 1.42 1.36 1.33 1.28 1.26 1.27 1.26 1.22 1.24 1.20
0.97 1.04 0.93 1.05 1.13 1.20 1.21 1.18 1.21 1.25 1.26 1.24 1.22 1.22 1.21 1.22 1.23 1.22 1.23 1.21 1.22 1.22 1.27 1.28 1.29 1.35 1.37 1.37 1.38 1.36 1.31 1.33 1.36 1.41 1.49 1.54 1.59 1.61 1.60 1.59 1.57 1.56 1.59 1.63 1.66 1.66 1.63 1.50 1.46 1.41 1.43 1.44 1.38 1.35 1.39 1.39 1.35 1.32 1.32 1.34 1.27 1.25 1.25
1.00 1.02 1.01 0.92 0.98 1.08 1.20 1.21 1.19 1.19 1.22 1.24 1.22 1.21 1.17 1.20 1.21 1.19 1.24 1.22 1.19 1.23 1.30 1.32 1.29 1.31 1.38 1.41 1.39 1.38 1.37 1.37 1.39 1.44 1.45 1.50 1.54 1.60 1.64 1.62 1.60 1.60 1.64 1.67 1.67 1.64 1.58 1.53 1.44 1.44 1.38 1.35 1.36 1.38 1.39 1.38 1.38 1.38 1.37 1.40 1.35 1.30 1.31
0.73 1.00 0.97 0.92 0.88 1.10 1.24 1.18 1.14 1.16 1.20 1.19 1.18 1.18 1.18 1.19 1.23 1.22 1.25 1.24 1.22 1.23 1.26 1.34 1.34 1.32 1.35 1.37 1.41 1.44 1.45 1.42 1.39 1.43 1.48 1.52 1.56 1.62 1.63 1.63 1.68 1.72 1.70 1.67 1.68 1.65 1.68 1.65 1.56 1.45 1.42 1.43 1.45 1.50 1.48 1.46 1.46 1.45 1.44 1.44 1.40 1.36 1.31
0.73 0.81 0.93 0.96 1.02 1.18 1.23 1.17 1.15 1.15 1.15 1.20 1.21 1.23 1.26 1.24 1.24 1.27 1.26 1.28 1.28 1.26 1.29 1.34 1.36 1.34 1.39 1.44 1.47 1.49 1.49 1.46 1.39 1.44 1.51 1.58 1.63 1.68 1.65 1.69 1.71 1.75 1.72 1.71 1.69 1.73 1.70 1.59 1.49 1.44 1.47 1.50 1.54 1.54 1.50 1.50 1.48 1.50 1.47 1.47 1.44 1.43 1.36
0.72 0.83 0.91 0.94 1.08 1.12 1.17 1.13 1.11 1.11 1.12 1.15 1.19 1.22 1.28 1.27 1.23 1.24 1.27 1.27 1.29 1.35 1.38 1.38 1.37 1.38 1.35 1.41 1.49 1.53 1.56 1.54 1.47 1.46 1.53 1.60 1.66 1.67 1.71 1.71 1.81 1.75 1.76 1.77 1.71 1.75 1.66 1.47 1.39 1.39 1.41 1.47 1.53 1.53 1.53 1.53 1.50 1.49 1.51 1.53 1.49 1.46 1.42
0.65 0.83 0.96 1.18 1.17 1.12 1.11 1.09 1.09 1.11 1.14 1.16 1.22 1.27 1.30 1.24 1.15 1.18 1.29 1.27 1.24 1.27 1.36 1.37 1.38 1.40 1.38 1.40 1.45 1.49 1.49 1.51 1.50 1.51 1.56 1.64 1.73 1.73 1.69 1.73 1.78 1.73 1.86 1.85 1.74 1.69 1.57 1.45 1.34 1.33 1.35 1.42 1.46 1.54 1.55 1.54 1.50 1.50 1.52 1.53 1.52 1.51 1.47
0.65 0.80 0.77 0.90 1.27 1.16 1.02 1.05 1.06 1.12 1.19 1.21 1.22 1.24 1.21 1.19 1.14 1.13 1.20 1.26 1.24 1.24 1.33 1.33 1.43 1.35 1.40 1.40 1.36 1.40 1.48 1.52 1.55 1.58 1.58 1.61 1.73 1.73 1.76 1.76 1.72 1.78 1.82 1.69 1.65 1.62 1.48 1.36 1.30 1.28 1.26 1.24 1.33 1.41 1.48 1.50 1.48 1.47 1.48 1.51 1.52 1.52 1.53
0.62 0.68 0.74 0.83 1.04 1.14 1.07 1.01 1.00 1.05 1.09 1.12 1.11 1.14 1.16 1.16 1.12 1.10 1.14 1.24 1.28 1.21 1.26 1.34 1.38 1.47 1.44 1.47 1.40 1.35 1.44 1.54 1.57 1.57 1.56 1.59 1.68 1.70 1.69 1.72 1.69 1.71 1.65 1.54 1.43 1.37 1.31 1.25 1.26 1.28 1.22 1.19 1.22 1.31 1.40 1.45 1.43 1.42 1.44 1.44 1.46 1.46 1.45
0.70 0.71 0.78 0.88 0.93 1.15 1.13 1.02 1.04 1.03 1.01 1.01 1.03 1.09 1.16 1.16 1.11 1.10 1.11 1.16 1.23 1.24 1.25 1.34 1.30 1.35 1.48 1.47 1.54 1.50 1.48 1.49 1.51 1.54 1.54 1.52 1.54 1.58 1.58 1.65 1.62 1.61 1.52 1.36 1.27 1.20 1.21 1.20 1.20 1.23 1.21 1.15 1.18 1.23 1.29 1.34 1.38 1.42 1.38 1.35 1.38 1.39 1.40
0.79 0.79 0.78 0.86 1.02 1.14 1.12 1.06 1.04 1.00 0.96 0.91 0.94 1.03 1.14 1.18 1.13 1.08 1.07 1.10 1.15 1.25 1.32 1.32 1.34 1.28 1.35 1.50 1.55 1.57 1.61 1.60 1.55 1.52 1.53 1.38 1.39 1.38 1.51 1.52 1.48 1.43 1.33 1.24 1.13 1.09 1.13 1.17 1.21 1.21 1.18 1.15 1.15 1.17 1.18 1.20 1.27 1.30 1.31 1.33 1.35 1.36 1.38
0.61 0.69 0.81 0.89 0.95 1.08 1.05 1.00 1.00 1.00 0.98 0.94 0.94 0.98 1.08 1.17 1.15 1.06 1.05 1.08 1.15 1.23 1.33 1.36 1.37 1.28 1.26 1.43 1.59 1.61 1.63 1.66 1.53 1.48 1.37 1.35 1.38 1.52 1.55 1.45 1.40 1.37 1.30 1.17 1.04 1.08 1.10 1.14 1.18 1.19 1.17 1.17 1.17 1.16 1.16 1.20 1.21 1.22 1.22 1.24 1.30 1.31 1.31
0.64 0.67 0.64 0.66 0.79 0.92 1.04 1.03 0.99 0.99 1.03 1.00 0.97 1.01 1.09 1.14 1.16 1.09 1.03 1.07 1.14 1.23 1.36 1.45 1.38 1.27 1.22 1.33 1.49 1.53 1.63 1.67 1.65 1.45 1.33 1.35 1.48 1.54 1.53 1.44 1.34 1.29 1.22 1.17 1.09 1.06 1.08 1.11 1.14 1.17 1.17 1.13 1.14 1.14 1.15 1.14 1.13 1.14 1.15 1.21 1.29 1.30 1.28
0.63 0.72 0.88 0.99 1.01 1.02 0.96 0.90 0.91 0.97 1.04 1.08 1.07 1.07 1.11 1.16 1.19 1.13 1.03 1.04 1.13 1.23 1.36 1.41 1.36 1.28 1.25 1.35 1.45 1.50 1.58 1.67 1.73 1.63 1.46 1.49 1.54 1.49 1.45 1.43 1.35 1.25 1.24 1.21 1.17 1.10 1.05 1.06 1.10 1.14 1.14 1.14 1.14 1.13 1.10 1.08 1.08 1.12 1.14 1.18 1.23 1.26 1.27
0.71 0.75 0.98 1.00 0.99 1.01 0.96 0.89 0.88 0.92 1.02 1.09 1.13 1.12 1.13 1.17 1.20 1.19 1.08 1.06 1.12 1.23 1.36 1.30 1.26 1.32 1.34 1.33 1.39 1.49 1.61 1.74 1.84 1.84 1.76 1.60 1.49 1.42 1.40 1.43 1.38 1.26 1.24 1.26 1.24 1.21 1.14 1.11 1.09 1.12 1.13 1.15 1.15 1.14 1.13 1.10 1.10 1.14 1.15 1.15 1.21 1.26 1.28
0.50 0.69 1.04 1.17 1.13 0.97 0.88 0.91 0.93 0.95 1.06 1.13 1.16 1.16 1.17 1.20 1.20 1.19 1.14 1.07 1.12 1.22 1.37 1.36 1.38 1.46 1.39 1.32 1.30 1.42 1.64 1.77 1.81 1.89 1.80 1.70 1.60 1.54 1.48 1.44 1.44 1.38 1.32 1.35 1.42 1.37 1.31 1.22 1.16 1.15 1.15 1.16 1.18 1.18 1.15 1.13 1.14 1.13 1.14 1.18 1.24 1.31 1.32
0.48 0.50 0.54 0.69 0.69 0.94 0.90 0.96 1.08 1.08 1.08 1.16 1.18 1.17 1.17 1.18 1.18 1.20 1.21 1.19 1.22 1.26 1.29 1.35 1.47 1.57 1.54 1.45 1.49 1.56 1.75 1.81 1.85 1.86 1.78 1.72 1.70 1.68 1.63 1.57 1.54 1.50 1.46 1.45 1.49 1.45 1.37 1.29 1.20 1.19 1.21 1.22 1.24 1.21 1.20 1.18 1.15 1.17 1.21 1.20 1.23 1.30 1.33
0.45 0.47 0.49 0.56 0.82 0.94 0.93 0.84 1.04 1.16 1.14 1.17 1.16 1.15 1.16 1.20 1.22 1.22 1.20 1.23 1.23 1.27 1.33 1.43 1.42 1.49 1.49 1.51 1.66 1.78 1.85 1.86 1.85 1.80 1.77 1.76 1.73 1.73 1.73 1.74 1.75 1.72 1.68 1.62 1.54 1.48 1.41 1.28 1.21 1.20 1.19 1.21 1.25 1.26 1.26 1.24 1.25 1.25 1.26 1.24 1.24 1.29 1.35
0.43 0.46 0.48 0.66 0.74 0.84 1.01 1.03 1.07 1.10 1.14 1.21 1.19 1.17 1.18 1.20 1.20 1.18 1.20 1.26 1.31 1.36 1.34 1.37 1.43 1.57 1.57 1.63 1.71 1.76 1.85 1.86 1.83 1.81 1.79 1.76 1.75 1.75 1.75 1.74 1.74 1.72 1.67 1.56 1.53 1.51 1.39 1.30 1.25 1.21 1.21 1.25 1.26 1.26 1.29 1.29 1.31 1.28 1.26 1.26 1.27 1.30 1.36
0.41 0.41 0.47 0.76 0.86 0.81 0.99 1.06 1.07 1.13 1.30 1.32 1.26 1.21 1.27 1.31 1.27 1.24 1.27 1.33 1.35 1.35 1.36 1.44 1.52 1.62 1.66 1.71 1.74 1.75 1.78 1.81 1.78 1.75 1.74 1.72 1.69 1.71 1.72 1.72 1.67 1.63 1.60 1.57 1.54 1.46 1.40 1.33 1.28 1.28 1.28 1.30 1.30 1.29 1.30 1.32 1.36 1.35 1.29 1.25 1.25 1.31 1.37
0.41 0.43 0.73 0.67 0.69 0.89 1.06 1.11 0.97 0.98 1.17 1.34 1.33 1.35 1.38 1.39 1.38 1.36 1.31 1.32 1.32 1.38 1.38 1.46 1.51 1.58 1.56 1.60 1.66 1.72 1.72 1.72 1.69 1.65 1.66 1.68 1.69 1.70 1.67 1.64 1.61 1.58 1.55 1.52 1.48 1.45 1.40 1.36 1.31 1.31 1.33 1.34 1.36 1.35 1.34 1.36 1.41 1.36 1.30 1.23 1.22 1.33 1.42
0.55 0.70 0.67 0.71 0.88 0.86 0.93 0.94 0.90 0.90 1.02 1.26 1.35 1.35 1.37 1.38 1.38 1.32 1.24 1.35 1.38 1.39 1.40 1.45 1.52 1.57 1.60 1.57 1.60 1.66 1.68 1.66 1.64 1.62 1.62 1.64 1.63 1.59 1.57 1.59 1.60 1.56 1.56 1.53 1.51 1.51 1.48 1.43 1.37 1.35 1.36 1.39 1.37 1.38 1.38 1.41 1.39 1.35 1.32 1.28 1.28 1.40 1.45
0.55 0.59 0.61 0.71 0.71 0.78 0.86 0.88 0.93 1.06 1.17 1.28 1.35 1.36 1.39 1.41 1.38 1.29 1.32 1.38 1.42 1.42 1.43 1.47 1.52 1.58 1.61 1.59 1.62 1.61 1.60 1.60 1.58 1.56 1.57 1.58 1.53 1.50 1.52 1.53 1.54 1.58 1.61 1.54 1.50 1.48 1.46 1.44 1.41 1.42 1.41 1.41 1.42 1.40 1.40 1.42 1.45 1.38 1.33 1.35 1.40 1.42 1.41
0.55 0.54 0.55 0.68 0.73 0.82 0.96 0.97 1.04 1.14 1.20 1.27 1.33 1.38 1.42 1.46 1.45 1.38 1.39 1.40 1.44 1.46 1.45 1.47 1.51 1.60 1.58 1.55 1.56 1.53 1.52 1.49 1.48 1.48 1.48 1.45 1.41 1.42 1.45 1.51 1.54 1.56 1.59 1.52 1.49 1.46 1.47 1.48 1.47 1.50 1.52 1.52 1.49 1.46 1.43 1.42 1.46 1.40 1.40 1.44 1.44 1.40 1.37
0.45 0.44 0.57 0.67 0.72 0.81 0.88 0.91 0.99 1.10 1.19 1.29 1.35 1.48 1.53 1.50 1.46 1.38 1.35 1.40 1.42 1.43 1.41 1.46 1.51 1.48 1.46 1.45 1.46 1.42 1.39 1.41 1.41 1.43 1.40 1.38 1.41 1.44 1.44 1.46 1.46 1.48 1.51 1.51 1.53 1.53 1.51 1.49 1.48 1.49 1.48 1.49 1.49 1.50 1.47 1.44 1.48 1.45 1.47 1.47 1.42 1.36 1.33
0.46 0.50 0.53 0.61 0.78 0.94 0.96 0.98 1.09 1.13 1.14 1.24 1.35 1.42 1.46 1.45 1.49 1.46 1.43 1.43 1.44 1.42 1.43 1.46 1.43 1.38 1.42 1.38 1.38 1.39 1.40 1.41 1.42 1.42 1.42 1.41 1.47 1.51 1.51 1.52 1.50 1.50 1.47 1.47 1.49 1.48 1.49 1.50 1.49 1.47 1.47 1.51 1.54 1.54 1.52 1.47 1.49 1.50 1.49 1.46 1.40 1.35 1.34
0.61 0.58 0.63 0.79 0.97 1.05 0.99 1.02 1.11 1.14 1.21 1.23 1.34 1.42 1.47 1.53 1.52 1.52 1.52 1.44 1.42 1.39 1.42 1.45 1.41 1.37 1.38 1.37 1.36 1.37 1.38 1.40 1.41 1.41 1.46 1.50 1.50 1.54 1.53 1.51 1.49 1.50 1.48 1.47 1.48 1.50 1.52 1.51 1.49 1.46 1.47 1.51 1.52 1.46 1.43 1.41 1.40 1.47 1.46 1.40 1.35 1.34 1.27
0.71 0.72 0.82 0.95 1.04 0.98 0.97 1.03 1.10 1.20 1.30 1.35 1.37 1.47 1.53 1.55 1.54 1.56 1.49 1.41 1.35 1.35 1.40 1.34 1.32 1.35 1.34 1.33 1.33 1.35 1.39 1.44 1.52 1.57 1.56 1.61 1.64 1.57 1.53 1.53 1.54 1.52 1.48 1.49 1.46 1.43 1.44 1.41 1.40 1.40 1.39 1.36 1.35 1.33 1.32 1.36 1.36 1.45 1.39 1.36 1.32 1.23 1.15
0.79 0.81 0.89 0.98 0.97 1.06 1.04 1.06 1.13 1.29 1.35 1.38 1.48 1.57 1.64 1.67 1.53 1.40 1.36 1.36 1.29 1.29 1.26 1.27 1.33 1.36 1.36 1.39 1.40 1.42 1.46 1.51 1.55 1.58 1.64 1.65 1.66 1.60 1.55 1.56 1.56 1.55 1.50 1.45 1.41 1.33 1.29 1.23 1.27 1.24 1.21 1.22 1.22 1.24 1.26 1.33 1.33 1.33 1.32 1.26 1.17 1.13 1.14
0.99 1.04 1.11 1.06 1.08 1.11 1.24 1.30 1.41 1.46 1.51 1.51 1.49 1.43 1.40 1.26 1.09 1.11 1.13 1.16 1.30 1.34 1.32 1.34 1.36 1.37 1.37 1.42 1.45 1.50 1.52 1.57 1.63 1.68 1.69 1.71 1.71 1.66 1.60 1.59 1.58 1.49 1.39 1.32 1.21 1.15 1.14 1.17 1.15 1.13 1.13 1.13 1.17 1.23 1.26 1.32 1.37 1.28 1.18 1.11 1.10 1.10 1.14
1.06 1.06 1.08 1.14 1.24 1.41 1.42 1.35 1.29 1.31 1.28 1.28 1.21 1.14 1.08 1.08 1.13 1.21 1.28 1.37 1.45 1.35 1.33 1.34 1.34 1.35 1.36 1.39 1.43 1.48 1.53 1.61 1.63 1.66 1.72 1.73 1.71 1.63 1.59 1.53 1.47 1.36 1.28 1.19 1.12 1.12 1.12 1.11 1.12 1.10 1.10 1.10 1.12 1.15 1.18 1.28 1.39 1.26 1.14 1.09 1.07 1.10 1.12
1.07 1.15 1.20 1.29 1.33 1.34 1.35 1.36 1.35 1.32 1.31 1.36 1.40 1.37 1.38 1.34 1.29 1.25 1.31 1.44 1.46 1.45 1.45 1.43 1.42 1.39 1.39 1.42 1.48 1.52 1.54 1.54 1.58 1.60 1.63 1.67 1.64 1.59 1.55 1.48 1.40 1.31 1.21 1.13 1.10 1.11 1.11 1.10 1.09 1.06 1.05 1.03 1.03 1.06 1.12 1.16 1.18 1.22 1.17 1.11 1.09 1.09 1.10
1.06 1.03 1.07 1.10 1.14 1.15 1.17 1.19 1.19 1.19 1.18 1.18 1.27 1.31 1.37 1.47 1.54 1.43 1.41 1.39 1.42 1.42 1.39 1.39 1.38 1.44 1.50 1.57 1.60 1.60 1.60 1.57 1.55 1.55 1.54 1.54 1.57 1.57 1.54 1.47 1.37 1.29 1.19 1.11 1.09 1.10 1.12 1.09 1.04 1.02 1.02 1.02 1.03 1.04 1.09 1.13 1.15 1.24 1.26 1.18 1.13 1.11 1.12
1.18 1.15 1.15 1.18 1.20 1.19 1.13 1.10 1.10 1.14 1.17 1.18 1.20 1.23 1.32 1.41 1.44 1.40 1.38 1.41 1.42 1.44 1.45 1.45 1.45 1.47 1.52 1.57 1.60 1.60 1.59 1.54 1.49 1.45 1.46 1.50 1.50 1.45 1.43 1.39 1.30 1.24 1.20 1.13 1.12 1.11 1.09 1.08 1.05 1.06 1.07 1.07 1.07 1.07 1.09 1.15 1.21 1.22 1.19 1.22 1.15 1.10 1.09
1.16 1.20 1.17 1.08 1.06 1.07 1.08 1.11 1.13 1.15 1.20 1.25 1.33 1.36 1.35 1.37 1.43 1.48 1.51 1.55 1.58 1.53 1.48 1.47 1.50 1.50 1.51 1.56 1.59 1.57 1.57 1.53 1.48 1.48 1.48 1.48 1.45 1.48 1.47 1.39 1.29 1.26 1.27 1.33 1.34 1.30 1.21 1.19 1.18 1.19 1.18 1.14 1.12 1.09 1.06 1.08 1.16 1.25 1.26 1.24 1.11 1.03 0.98
1.09 1.10 1.12 1.12 1.09 1.09 1.12 1.16 1.17 1.16 1.17 1.24 1.30 1.32 1.35 1.41 1.47 1.51 1.52 1.60 1.62 1.57 1.50 1.49 1.49 1.48 1.49 1.50 1.49 1.51 1.52 1.48 1.47 1.50 1.49 1.47 1.45 1.40 1.36 1.39 1.36 1.33 1.33 1.27 1.28 1.28 1.29 1.30 1.30 1.30 1.27 1.23 1.24 1.19 1.14 1.14 1.17 1.23 1.14 1.09 1.04 1.02 1.00
1.11 1.14 1.17 1.21 1.18 1.16 1.13 1.13 1.14 1.15 1.16 1.22 1.30 1.31 1.37 1.43 1.52 1.55 1.55 1.58 1.58 1.56 1.53 1.50 1.45 1.43 1.46 1.48 1.49 1.51 1.49 1.48 1.47 1.47 1.48 1.44 1.40 1.35 1.28 1.26 1.29 1.30 1.33 1.32 1.29 1.26 1.26 1.24 1.26 1.30 1.29 1.27 1.17 1.19 1.14 1.11 1.10 1.07 1.05 1.05 1.05 1.04 1.03
1.14 1.13 1.15 1.21 1.24 1.24 1.23 1.21 1.22 1.21 1.20 1.25 1.28 1.30 1.34 1.36 1.42 1.47 1.47 1.51 1.53 1.54 1.51 1.53 1.51 1.49 1.50 1.53 1.54 1.56 1.53 1.51 1.46 1.44 1.41 1.38 1.34 1.30 1.26 1.23 1.21 1.23 1.27 1.25 1.22 1.21 1.20 1.18 1.19 1.25 1.24 1.21 1.18 1.10 1.07 1.05 1.07 1.06 1.04 1.02 1.01 1.00 0.99

ECMWFFLT1_prec_pwat_006.txt.gz
Precipitable_Water
1.01 1.04 1.05 1.02 1.06 1.17 1.17 1.18 1.19 1.21 1.27 1.36 1.41 1.46 1.52 1.51 1.46 1.46 1.42 1.42 1.41 1.38 1.34 1.30 1.28 1.31 1.33 1.39 1.43 1.42 1.39 1.36 1.37 1.42 1.43 1.40 1.40 1.42 1.41 1.38 1.38 1.41 1.41 1.29 1.30 1.30 1.37 1.43 1.45 1.46 1.48 1.46 1.36 1.32 1.35 1.30 1.33 1.35 1.36 1.32 1.33 1.37 1.30
0.99 1.06 1.09 1.07 1.08 1.11 1.15 1.12 1.07 1.15 1.23 1.35 1.44 1.51 1.56 1.53 1.48 1.44 1.42 1.44 1.43 1.39 1.34 1.30 1.28 1.29 1.31 1.37 1.43 1.44 1.38 1.33 1.33 1.39 1.44 1.43 1.45 1.47 1.43 1.36 1.37 1.40 1.40 1.36 1.39 1.42 1.42 1.47 1.48 1.49 1.46 1.43 1.35 1.33 1.30 1.29 1.28 1.31 1.32 1.32 1.29 1.33 1.38
0.88 1.06 1.09 1.08 1.09 1.07 1.13 1.11 1.09 1.07 1.15 1.33 1.44 1.48 1.49 1.50 1.49 1.43 1.42 1.44 1.44 1.43 1.40 1.32 1.28 1.27 1.30 1.37 1.40 1.41 1.39 1.36 1.33 1.35 1.38 1.40 1.42 1.41 1.40 1.41 1.43 1.42 1.42 1.46 1.46 1.47 1.50 1.53 1.55 1.48 1.44 1.37 1.30 1.27 1.27 1.30 1.30 1.32 1.35 1.37 1.37 1.37 1.33
0.86 1.00 0.96 0.97 1.03 1.12 1.14 1.10 1.09 1.17 1.24 1.35 1.39 1.39 1.43 1.48 1.53 1.49 1.45 1.44 1.44 1.42 1.36 1.35 1.32 1.27 1.28 1.31 1.35 1.38 1.41 1.40 1.36 1.35 1.38 1.40 1.39 1.40 1.38 1.46 1.49 1.50 1.47 1.44 1.51 1.52 1.53 1.56 1.48 1.45 1.37 1.29 1.28 1.26 1.26 1.28 1.33 1.34 1.37 1.43 1.45 1.44 1.38
0.81 0.86 0.87 0.97 1.04 1.09 1.12 1.11 1.13 1.17 1.20 1.29 1.37 1.38 1.41 1.49 1.54 1.51 1.47 1.46 1.45 1.39 1.39 1.36 1.33 1.30 1.30 1.32 1.34 1.40 1.42 1.40 1.39 1.40 1.41 1.38 1.37 1.37 1.39 1.44 1.52 1.50 1.48 1.51 1.52 1.52 1.49 1.49 1.44 1.40 1.35 1.35 1.30 1.27 1.22 1.28 1.31 1.32 1.28 1.34 1.39 1.40 1.40
0.79 0.83 0.90 0.93 0.97 0.96 0.99 1.03 1.04 1.11 1.19 1.31 1.36 1.35 1.42 1.48 1.51 1.47 1.45 1.43 1.43 1.47 1.45 1.42 1.33 1.28 1.27 1.30 1.33 1.38 1.42 1.42 1.44 1.43 1.37 1.34 1.31 1.33 1.36 1.46 1.51 1.50 1.49 1.49 1.53 1.52 1.50 1.48 1.45 1.39 1.37 1.37 1.29 1.24 1.23 1.24 1.27 1.28 1.28 1.27 1.27 1.31 1.32
0.85 0.86 0.90 0.92 0.92 0.98 1.03 1.05 1.08 1.16 1.26 1.41 1.50 1.48 1.48 1.50 1.49 1.48 1.46 1.41 1.39 1.40 1.41 1.41 1.37 1.29 1.26 1.29 1.32 1.37 1.37 1.40 1.41 1.38 1.34 1.33 1.34 1.31 1.37 1.44 1.50 1.51 1.50 1.51 1.48 1.46 1.46 1.43 1.40 1.35 1.35 1.32 1.28 1.23 1.24 1.24 1.21 1.26 1.28 1.25 1.21 1.22 1.22
0.97 0.99 0.91 0.81 0.81 0.85 0.94 1.05 1.11 1.21 1.32 1.49 1.52 1.48 1.44 1.46 1.48 1.47 1.44 1.40 1.37 1.43 1.41 1.38 1.36 1.30 1.27 1.30 1.32 1.34 1.37 1.38 1.42 1.41 1.38 1.33 1.35 1.32 1.33 1.38 1.44 1.49 1.49 1.43 1.43 1.44 1.43 1.43 1.39 1.37 1.34 1.30 1.25 1.23 1.24 1.26 1.26 1.24 1.26 1.24 1.22 1.20 1.22
0.64 0.85 0.82 0.77 0.76 0.83 0.93 0.96 1.00 1.09 1.26 1.43 1.49 1.50 1.50 1.48 1.45 1.45 1.45 1.41 1.39 1.40 1.39 1.37 1.35 1.34 1.36 1.33 1.32 1.32 1.33 1.35 1.37 1.40 1.39 1.35 1.34 1.29 1.31 1.37 1.41 1.44 1.41 1.40 1.42 1.45 1.47 1.46 1.43 1.39 1.33 1.29 1.25 1.22 1.24 1.27 1.27 1.27 1.22 1.21 1.22 1.22 1.21
0.76 0.69 0.72 0.72 0.77 0.86 0.97 0.95 0.99 1.06 1.09 1.20 1.36 1.46 1.47 1.45 1.47 1.47 1.45 1.41 1.40 1.38 1.39 1.38 1.38 1.38 1.37 1.37 1.36 1.34 1.31 1.30 1.36 1.40 1.41 1.38 1.37 1.28 1.29 1.35 1.37 1.40 1.40 1.41 1.45 1.47 1.50 1.51 1.46 1.42 1.36 1.30 1.29 1.24 1.22 1.25 1.27 1.26 1.23 1.20 1.23 1.22 1.21
0.73 0.80 0.79 0.81 0.83 0.89 0.96 1.03 1.09 1.10 1.06 1.15 1.27 1.39 1.44 1.43 1.42 1.43 1.42 1.41 1.39 1.37 1.38 1.38 1.41 1.38 1.36 1.35 1.35 1.33 1.27 1.27 1.33 1.37 1.40 1.42 1.41 1.31 1.28 1.31 1.34 1.38 1.43 1.47 1.48 1.51 1.52 1.54 1.53 1.45 1.39 1.33 1.30 1.23 1.21 1.23 1.26 1.26 1.24 1.23 1.22 1.23 1.22
0.72 0.85 0.86 0.85 0.81 0.76 0.76 0.82 0.87 0.95 0.96 1.03 1.22 1.33 1.40 1.40 1.41 1.45 1.46 1.45 1.46 1.38 1.34 1.38 1.43 1.41 1.36 1.36 1.35 1.34 1.29 1.25 1.26 1.30 1.35 1.40 1.41 1.36 1.30 1.28 1.31 1.36 1.43 1.49 1.50 1.54 1.55 1.52 1.51 1.48 1.43 1.38 1.31 1.22 1.19 1.23 1.26 1.25 1.23 1.19 1.18 1.17 1.17
0.79 0.80 0.75 0.73 0.71 0.76 0.77 0.85 0.83 0.86 0.86 0.91 1.05 1.27 1.37 1.38 1.39 1.43 1.46 1.48 1.49 1.41 1.32 1.37 1.44 1.45 1.38 1.30 1.26 1.32 1.36 1.28 1.22 1.26 1.30 1.35 1.39 1.42 1.36 1.30 1.32 1.37 1.42 1.46 1.49 1.49 1.53 1.51 1.49 1.49 1.44 1.40 1.32 1.21 1.18 1.23 1.27 1.27 1.25 1.22 1.17 1.11 1.13
0.77 0.79 0.82 0.84 0.83 0.84 0.89 0.95 0.93 0.88 0.85 0.94 1.08 1.20 1.32 1.38 1.40 1.42 1.40 1.39 1.45 1.42 1.32 1.31 1.39 1.37 1.29 1.26 1.24 1.27 1.31 1.31 1.28 1.29 1.32 1.32 1.36 1.38 1.35 1.34 1.37 1.41 1.47 1.46 1.46 1.48 1.51 1.51 1.49 1.48 1.46 1.42 1.37 1.28 1.23 1.27 1.30 1.30 1.26 1.21 1.16 1.13 1.14
0.75 0.84 0.86 0.90 0.95 0.94 0.95 0.96 0.96 0.96 0.95 1.02 1.16 1.28 1.33 1.37 1.39 1.41 1.41 1.41 1.41 1.42 1.31 1.29 1.28 1.28 1.26 1.29 1.34 1.32 1.28 1.30 1.35 1.39 1.39 1.37 1.34 1.33 1.31 1.33 1.38 1.46 1.51 1.48 1.44 1.48 1.52 1.50 1.51 1.49 1.47 1.48 1.45 1.38 1.32 1.30 1.29 1.28 1.25 1.19 1.14 1.12 1.15
0.59 0.66 0.81 1.05 1.14 1.21 1.15 1.10 1.11 1.12 1.13 1.20 1.29 1.34 1.35 1.32 1.31 1.32 1.32 1.34 1.36 1.35 1.34 1.29 1.24 1.20 1.16 1.19 1.28 1.34 1.32 1.33 1.39 1.42 1.42 1.38 1.32 1.31 1.36 1.40 1.45 1.49 1.51 1.49 1.43 1.43 1.49 1.48 1.50 1.49 1.51 1.55 1.56 1.53 1.43 1.33 1.31 1.30 1.25 1.19 1.14 1.14 1.17
0.59 0.62 0.63 0.68 0.96 1.03 1.05 0.99 1.07 1.25 1.27 1.25 1.23 1.23 1.23 1.22 1.25 1.29 1.30 1.32 1.32 1.28 1.28 1.27 1.18 1.14 1.11 1.13 1.21 1.29 1.36 1.37 1.41 1.45 1.45 1.45 1.44 1.43 1.45 1.48 1.52 1.53 1.54 1.53 1.46 1.44 1.47 1.47 1.48 1.56 1.54 1.48 1.48 1.51 1.50 1.38 1.33 1.31 1.27 1.20 1.17 1.17 1.20
0.56 0.58 0.60 0.72 0.72 0.77 0.86 0.87 0.91 0.99 1.11 1.16 1.13 1.13 1.14 1.17 1.24 1.29 1.26 1.27 1.25 1.23 1.23 1.24 1.19 1.13 1.10 1.13 1.21 1.29 1.33 1.38 1.44 1.46 1.49 1.51 1.52 1.54 1.57 1.61 1.64 1.66 1.68 1.68 1.65 1.60 1.55 1.52 1.54 1.56 1.54 1.51 1.45 1.37 1.34 1.37 1.32 1.29 1.26 1.21 1.18 1.20 1.21
0.59 0.60 0.66 0.62 0.62 0.75 0.78 0.84 0.87 0.92 0.99 1.07 1.12 1.11 1.07 1.11 1.17 1.22 1.24 1.22 1.21 1.24 1.20 1.25 1.19 1.14 1.13 1.16 1.24 1.32 1.36 1.41 1.44 1.46 1.49 1.52 1.58 1.63 1.68 1.70 1.72 1.75 1.78 1.76 1.76 1.74 1.66 1.63 1.61 1.58 1.58 1.54 1.47 1.42 1.41 1.38 1.33 1.29 1.28 1.25 1.22 1.20 1.23
0.64 0.65 0.63 0.67 0.67 0.75 0.87 0.94 0.94 0.97 1.01 1.06 1.11 1.10 1.09 1.10 1.14 1.22 1.28 1.29 1.28 1.25 1.20 1.26 1.21 1.14 1.13 1.17 1.22 1.29 1.38 1.43 1.46 1.46 1.50 1.57 1.63 1.70 1.73 1.74 1.73 1.77 1.84 1.86 1.83 1.78 1.76 1.73 1.68 1.65 1.62 1.57 1.55 1.51 1.47 1.43 1.38 1.33 1.31 1.29 1.24 1.21 1.25
0.65 0.65 0.63 0.60 0.75 0.77 0.87 0.98 1.07 1.08 1.06 1.08 1.10 1.11 1.16 1.21 1.21 1.28 1.34 1.36 1.33 1.27 1.21 1.20 1.27 1.17 1.17 1.17 1.22 1.31 1.37 1.43 1.47 1.50 1.55 1.61 1.64 1.69 1.74 1.78 1.83 1.86 1.90 1.86 1.80 1.78 1.79 1.77 1.73 1.70 1.66 1.63 1.62 1.58 1.52 1.49 1.46 1.40 1.36 1.33 1.28 1.28 1.28
0.63 0.68 0.66 0.65 0.71 0.84 0.98 0.96 0.97 1.06 1.07 1.10 1.10 1.07 1.05 1.08 1.19 1.26 1.28 1.33 1.37 1.34 1.28 1.23 1.30 1.28 1.20 1.18 1.29 1.33 1.38 1.42 1.47 1.52 1.57 1.59 1.65 1.72 1.78 1.85 1.87 1.86 1.87 1.83 1.84 1.86 1.82 1.77 1.72 1.65 1.63 1.64 1.64 1.56 1.49 1.52 1.49 1.42 1.38 1.36 1.35 1.33 1.33
0.58 0.60 0.62 0.70 0.75 0.84 0.94 0.99 0.97 1.01 1.10 1.14 1.14 1.07 1.02 1.10 1.23 1.32 1.35 1.35 1.39 1.44 1.38 1.33 1.34 1.35 1.32 1.34 1.36 1.40 1.46 1.49 1.50 1.52 1.56 1.63 1.68 1.76 1.84 1.86 1.87 1.87 1.87 1.80 1.76 1.73 1.69 1.66 1.65 1.69 1.67 1.63 1.63 1.56 1.53 1.53 1.50 1.47 1.45 1.42 1.40 1.39 1.40
0.52 0.60 0.66 0.66 0.70 0.79 0.90 0.95 0.98 0.96 1.03 1.13 1.11 1.07 1.03 1.12 1.25 1.35 1.40 1.38 1.41 1.45 1.45 1.46 1.46 1.45 1.45 1.45 1.47 1.51 1.53 1.54 1.56 1.58 1.64 1.71 1.76 1.81 1.87 1.91 1.93 1.89 1.87 1.78 1.72 1.66 1.68 1.69 1.63 1.63 1.61 1.59 1.56 1.57 1.54 1.53 1.54 1.51 1.49 1.48 1.47 1.44 1.38
0.43 0.53 0.57 0.63 0.66 0.73 0.88 0.91 0.93 1.00 1.00 1.02 1.04 1.08 1.09 1.17 1.31 1.40 1.43 1.43 1.42 1.45 1.46 1.51 1.50 1.55 1.55 1.57 1.63 1.64 1.64 1.64 1.66 1.71 1.77 1.80 1.84 1.86 1.85 1.84 1.83 1.84 1.82 1.77 1.75 1.72 1.71 1.64 1.59 1.58 1.62 1.65 1.65 1.63 1.58 1.54 1.54 1.55 1.53 1.50 1.45 1.42 1.38
0.38 0.38 0.48 0.60 0.63 0.62 0.75 1.03 1.01 1.01 1.02 1.01 1.05 1.13 1.12 1.23 1.36 1.45 1.51 1.51 1.47 1.44 1.46 1.56 1.51 1.60 1.65 1.72 1.75 1.75 1.76 1.79 1.84 1.87 1.85 1.84 1.84 1.83 1.77 1.71 1.64 1.60 1.62 1.66 1.68 1.67 1.69 1.69 1.61 1.59 1.62 1.68 1.67 1.61 1.54 1.53 1.55 1.53 1.48 1.43 1.40 1.39 1.40
0.57 0.56 0.61 0.62 0.61 0.63 0.87 0.97 1.01 1.00 1.05 1.13 1.12 1.10 1.24 1.38 1.44 1.51 1.61 1.66 1.57 1.47 1.53 1.74 1.70 1.66 1.66 1.71 1.73 1.78 1.83 1.85 1.84 1.81 1.81 1.79 1.73 1.67 1.60 1.57 1.54 1.56 1.55 1.57 1.60 1.64 1.66 1.64 1.62 1.60 1.58 1.56 1.54 1.52 1.51 1.52 1.50 1.48 1.43 1.41 1.41 1.43 1.41
0.82 0.87 0.92 0.80 0.75 0.71 0.96 0.95 1.03 1.06 1.10 1.18 1.15 1.20 1.37 1.46 1.52 1.60 1.70 1.69 1.65 1.66 1.79 1.89 1.86 1.80 1.75 1.72 1.73 1.76 1.79 1.78 1.78 1.76 1.70 1.67 1.61 1.53 1.50 1.53 1.54 1.53 1.55 1.56 1.54 1.54 1.56 1.59 1.57 1.54 1.50 1.50 1.49 1.46 1.43 1.43 1.41 1.40 1.41 1.43 1.43 1.40 1.36
0.86 0.92 0.90 0.91 1.02 1.00 1.06 1.08 1.08 1.06 1.11 1.21 1.24 1.32 1.47 1.50 1.53 1.61 1.70 1.72 1.83 1.89 1.94 1.94 1.92 1.81 1.77 1.75 1.72 1.75 1.72 1.67 1.64 1.60 1.59 1.53 1.53 1.55 1.52 1.51 1.51 1.49 1.51 1.50 1.49 1.49 1.50 1.52 1.51 1.45 1.40 1.40 1.41 1.39 1.37 1.38 1.36 1.36 1.36 1.36 1.36 1.35 1.34
0.83 0.87 0.93 0.83 0.86 1.22 1.31 1.22 1.14 1.16 1.21 1.31 1.41 1.47 1.58 1.61 1.55 1.60 1.73 1.88 2.00 1.96 1.90 1.87 1.87 1.84 1.77 1.64 1.55 1.46 1.46 1.48 1.48 1.47 1.45 1.45 1.49 1.50 1.48 1.54 1.59 1.57 1.55 1.55 1.50 1.47 1.45 1.45 1.41 1.37 1.34 1.29 1.27 1.27 1.30 1.34 1.33 1.29 1.28 1.30 1.29 1.29 1.26
1.00 0.93 0.91 0.96 0.96 1.21 1.46 1.50 1.33 1.26 1.32 1.46 1.54 1.66 1.64 1.63 1.58 1.62 1.76 1.97 2.02 1.93 1.86 1.83 1.79 1.62 1.48 1.42 1.42 1.41 1.41 1.43 1.42 1.43 1.46 1.52 1.53 1.49 1.52 1.54 1.55 1.55 1.55 1.49 1.44 1.42 1.41 1.37 1.34 1.27 1.23 1.21 1.17 1.16 1.19 1.24 1.28 1.28 1.29 1.27 1.23 1.17 1.13
1.11 1.11 1.10 1.20 1.30 1.51 1.54 1.51 1.35 1.31 1.44 1.53 1.66 1.62 1.63 1.70 1.75 1.70 1.83 1.98 2.00 2.00 1.96 1.69 1.53 1.47 1.44 1.45 1.43 1.44 1.44 1.42 1.47 1.54 1.57 1.60 1.56 1.54 1.56 1.55 1.54 1.49 1.44 1.38 1.38 1.37 1.31 1.27 1.20 1.15 1.11 1.09 1.09 1.09 1.15 1.23 1.26 1.26 1.25 1.20 1.14 1.10 1.08
1.13 1.20 1.26 1.29 1.47 1.59 1.63 1.55 1.48 1.50 1.59 1.62 1.73 1.83 1.82 1.84 1.87 1.92 1.95 2.04 2.00 1.89 1.61 1.44 1.41 1.39 1.38 1.37 1.39 1.43 1.45 1.46 1.48 1.54 1.60 1.61 1.57 1.57 1.56 1.55 1.54 1.50 1.44 1.32 1.24 1.23 1.23 1.19 1.11 1.04 1.03 1.01 1.04 1.08 1.16 1.20 1.19 1.18 1.16 1.14 1.10 1.08 1.07
1.12 1.10 1.20 1.42 1.63 1.80 1.71 1.64 1.54 1.53 1.59 1.64 1.77 1.89 1.92 1.91 1.94 1.92 1.91 1.80 1.68 1.45 1.38 1.33 1.30 1.28 1.30 1.33 1.36 1.41 1.46 1.49 1.51 1.54 1.60 1.63 1.62 1.56 1.55 1.59 1.58 1.47 1.34 1.24 1.20 1.20 1.19 1.14 1.11 1.04 1.00 0.97 1.00 1.03 1.12 1.12 1.18 1.16 1.13 1.14 1.13 1.11 1.10
1.27 1.28 1.32 1.52 1.67 1.76 1.71 1.69 1.61 1.62 1.58 1.68 1.81 1.92 1.92 1.90 1.86 1.70 1.53 1.44 1.38 1.35 1.29 1.29 1.32 1.35 1.37 1.39 1.42 1.44 1.51 1.53 1.53 1.55 1.61 1.61 1.60 1.54 1.56 1.59 1.52 1.42 1.33 1.30 1.29 1.28 1.21 1.14 1.13 1.07 1.05 0.98 0.99 1.00 1.07 1.09 1.14 1.21 1.26 1.22 1.20 1.14 1.07
1.56 1.58 1.63 1.69 1.65 1.69 1.66 1.69 1.68 1.66 1.71 1.80 1.88 1.78 1.65 1.49 1.44 1.42 1.39 1.37 1.38 1.35 1.30 1.31 1.34 1.36 1.38 1.42 1.45 1.46 1.50 1.50 1.48 1.54 1.60 1.53 1.44 1.42 1.45 1.53 1.53 1.45 1.34 1.29 1.31 1.30 1.31 1.27 1.17 1.15 1.17 1.15 1.17 1.20 1.14 1.14 1.22 1.28 1.26 1.26 1.22 1.17 1.09
1.52 1.45 1.45 1.50 1.51 1.52 1.54 1.59 1.61 1.62 1.61 1.63 1.56 1.48 1.40 1.38 1.42 1.44 1.45 1.43 1.41 1.37 1.34 1.35 1.34 1.35 1.38 1.45 1.49 1.50 1.48 1.46 1.47 1.48 1.47 1.45 1.43 1.43 1.44 1.43 1.46 1.42 1.38 1.35 1.30 1.28 1.28 1.25 1.24 1.24 1.25 1.25 1.21 1.25 1.27 1.29 1.29 1.29 1.27 1.23 1.20 1.15 1.09
1.39 1.37 1.34 1.34 1.32 1.37 1.30 1.29 1.28 1.31 1.37 1.49 1.49 1.46 1.41 1.36 1.38 1.42 1.46 1.47 1.45 1.44 1.39 1.36 1.32 1.33 1.39 1.42 1.42 1.45 1.46 1.47 1.47 1.46 1.42 1.40 1.44 1.46 1.44 1.40 1.34 1.33 1.33 1.32 1.29 1.28 1.27 1.26 1.26 1.27 1.29 1.30 1.29 1.26 1.27 1.28 1.27 1.22 1.19 1.17 1.15 1.08 1.04

ECMWFFLT1_prec_pwat_009.txt.gz
Precipitable_Water
1.07 1.08 1.08 1.08 1.07 1.07 1.07 1.12 1.18 1.24 1.30 1.33 1.35 1.36 1.38 1.39 1.38 1.40 1.39 1.41 1.42 1.44 1.46 1.42 1.36 1.34 1.29 1.27 1.30 1.32 1.32 1.33 1.34 1.31 1.27 1.25 1.29 1.35 1.36 1.32 1.21 1.20 1.24 1.25 1.33 1.40 1.47 1.52 1.47 1.45 1.45 1.40 1.39 1.39 1.40 1.37 1.26 1.20 1.20 1.21 1.22 1.22 1.22
1.02 1.06 1.06 1.09 1.09 1.10 1.11 1.14 1.19 1.23 1.28 1.34 1.39 1.40 1.41 1.40 1.41 1.41 1.42 1.44 1.46 1.46 1.49 1.46 1.42 1.38 1.33 1.31 1.32 1.33 1.32 1.33 1.35 1.33 1.29 1.26 1.33 1.42 1.39 1.31 1.21 1.21 1.27 1.33 1.40 1.50 1.54 1.52 1.46 1.43 1.42 1.37 1.37 1.41 1.42 1.28 1.15 1.13 1.15 1.16 1.16 1.19 1.18
0.98 1.04 1.08 1.11 1.13 1.14 1.14 1.16 1.18 1.22 1.26 1.33 1.39 1.41 1.38 1.38 1.42 1.43 1.45 1.46 1.47 1.51 1.54 1.52 1.47 1.43 1.40 1.36 1.32 1.32 1.34 1.35 1.34 1.31 1.25 1.24 1.31 1.40 1.40 1.33 1.27 1.27 1.35 1.42 1.48 1.52 1.54 1.49 1.46 1.45 1.41 1.36 1.38 1.40 1.34 1.22 1.13 1.08 1.11 1.15 1.15 1.16 1.12
0.99 1.02 1.05 1.10 1.15 1.17 1.13 1.13 1.17 1.22 1.28 1.31 1.32 1.34 1.38 1.42 1.47 1.48 1.49 1.48 1.48 1.51 1.50 1.51 1.49 1.45 1.43 1.36 1.33 1.32 1.33 1.34 1.36 1.32 1.29 1.31 1.33 1.40 1.38 1.34 1.34 1.38 1.40 1.43 1.49 1.52 1.52 1.51 1.45 1.44 1.41 1.37 1.36 1.36 1.34 1.23 1.10 1.07 1.09 1.09 1.09 1.12 1.12
0.98 1.01 1.03 1.06 1.09 1.10 1.09 1.14 1.16 1.19 1.23 1.28 1.30 1.34 1.38 1.44 1.49 1.50 1.51 1.53 1.53 1.51 1.53 1.53 1.51 1.47 1.45 1.39 1.34 1.34 1.31 1.31 1.35 1.36 1.35 1.35 1.36 1.37 1.34 1.33 1.37 1.40 1.42 1.46 1.52 1.51 1.47 1.46 1.43 1.42 1.38 1.36 1.35 1.37 1.36 1.26 1.12 1.08 1.10 1.10 1.07 1.07 1.09
0.93 0.96 0.98 0.98 0.99 1.01 1.04 1.07 1.11 1.15 1.19 1.23 1.25 1.29 1.36 1.42 1.46 1.45 1.49 1.54 1.56 1.60 1.64 1.61 1.54 1.49 1.41 1.40 1.36 1.35 1.35 1.33 1.35 1.38 1.36 1.33 1.30 1.29 1.32 1.36 1.38 1.40 1.43 1.45 1.50 1.48 1.44 1.41 1.40 1.39 1.35 1.35 1.36 1.37 1.37 1.27 1.18 1.12 1.12 1.13 1.09 1.09 1.07
0.86 0.88 0.90 0.93 0.95 0.97 1.01 1.04 1.08 1.10 1.13 1.16 1.21 1.26 1.31 1.36 1.38 1.42 1.49 1.52 1.56 1.55 1.58 1.58 1.55 1.50 1.45 1.42 1.36 1.33 1.29 1.28 1.33 1.36 1.35 1.31 1.28 1.27 1.31 1.35 1.39 1.40 1.40 1.46 1.46 1.47 1.44 1.42 1.40 1.40 1.38 1.37 1.38 1.37 1.35 1.28 1.22 1.16 1.13 1.13 1.12 1.16 1.15
0.82 0.84 0.86 0.88 0.92 0.96 0.98 1.01 1.02 1.05 1.10 1.17 1.18 1.20 1.26 1.31 1.36 1.41 1.43 1.47 1.55 1.58 1.58 1.57 1.56 1.51 1.48 1.44 1.37 1.28 1.26 1.28 1.30 1.33 1.33 1.27 1.26 1.26 1.28 1.33 1.36 1.38 1.39 1.39 1.45 1.48 1.45 1.44 1.43 1.43 1.41 1.40 1.39 1.39 1.36 1.32 1.27 1.21 1.15 1.11 1.13 1.18 1.20
0.81 0.83 0.85 0.88 0.92 0.95 0.97 0.99 0.99 0.98 1.01 1.05 1.08 1.11 1.21 1.30 1.33 1.35 1.40 1.47 1.52 1.54 1.56 1.59 1.59 1.57 1.52 1.45 1.36 1.27 1.25 1.26 1.25 1.28 1.29 1.28 1.27 1.24 1.26 1.32 1.36 1.38 1.35 1.36 1.41 1.48 1.47 1.45 1.43 1.42 1.42 1.41 1.41 1.40 1.38 1.36 1.30 1.27 1.21 1.15 1.13 1.15 1.18
0.79 0.83 0.84 0.87 0.89 0.91 0.94 0.98 1.00 1.00 1.03 1.05 1.05 1.09 1.16 1.22 1.29 1.36 1.39 1.42 1.48 1.51 1.57 1.61 1.62 1.60 1.53 1.46 1.37 1.30 1.26 1.21 1.20 1.21 1.25 1.27 1.27 1.24 1.26 1.32 1.36 1.38 1.35 1.36 1.40 1.42 1.46 1.47 1.45 1.44 1.43 1.42 1.41 1.40 1.40 1.38 1.34 1.30 1.28 1.22 1.18 1.15 1.15
0.72 0.78 0.82 0.83 0.85 0.88 0.92 0.99 1.00 0.99 1.01 1.04 1.09 1.11 1.13 1.20 1.27 1.31 1.35 1.40 1.43 1.50 1.59 1.63 1.64 1.59 1.53 1.46 1.38 1.33 1.26 1.19 1.17 1.15 1.20 1.25 1.26 1.24 1.27 1.30 1.33 1.35 1.33 1.35 1.37 1.42 1.45 1.47 1.48 1.46 1.45 1.42 1.41 1.41 1.41 1.40 1.37 1.35 1.34 1.31 1.25 1.22 1.19
0.70 0.74 0.76 0.81 0.86 0.90 0.92 0.96 0.98 1.00 1.02 1.06 1.13 1.16 1.15 1.17 1.22 1.27 1.32 1.36 1.43 1.49 1.56 1.61 1.64 1.60 1.52 1.46 1.38 1.32 1.26 1.21 1.16 1.12 1.15 1.21 1.23 1.23 1.25 1.28 1.29 1.30 1.32 1.33 1.32 1.38 1.44 1.45 1.47 1.47 1.45 1.45 1.45 1.46 1.47 1.47 1.43 1.41 1.39 1.36 1.32 1.27 1.25
0.70 0.74 0.78 0.83 0.87 0.90 0.92 0.94 0.95 1.00 1.03 1.07 1.12 1.17 1.17 1.17 1.19 1.22 1.26 1.33 1.42 1.48 1.54 1.58 1.60 1.58 1.52 1.46 1.39 1.33 1.26 1.21 1.15 1.13 1.13 1.17 1.20 1.24 1.24 1.25 1.28 1.30 1.30 1.33 1.32 1.34 1.37 1.42 1.43 1.47 1.48 1.49 1.50 1.51 1.52 1.51 1.50 1.47 1.45 1.41 1.37 1.32 1.28
0.69 0.72 0.78 0.82 0.83 0.85 0.85 0.87 0.94 0.98 1.02 1.06 1.11 1.16 1.19 1.17 1.16 1.18 1.22 1.28 1.37 1.47 1.52 1.56 1.55 1.55 1.52 1.46 1.40 1.34 1.27 1.21 1.17 1.15 1.15 1.15 1.18 1.22 1.23 1.25 1.29 1.31 1.35 1.36 1.33 1.32 1.36 1.39 1.41 1.46 1.49 1.50 1.52 1.56 1.58 1.55 1.54 1.52 1.48 1.44 1.42 1.40 1.33
0.74 0.77 0.83 0.83 0.83 0.87 0.89 0.96 1.01 1.00 1.03 1.07 1.10 1.15 1.19 1.22 1.24 1.28 1.32 1.36 1.40 1.43 1.47 1.53 1.52 1.52 1.51 1.46 1.39 1.33 1.31 1.27 1.22 1.21 1.19 1.16 1.15 1.17 1.21 1.25 1.30 1.35 1.39 1.39 1.37 1.36 1.36 1.41 1.45 1.47 1.49 1.51 1.53 1.55 1.56 1.54 1.52 1.53 1.50 1.47 1.46 1.43 1.35
0.79 0.79 0.81 0.83 0.86 0.90 0.96 1.02 0.99 0.98 1.02 1.07 1.11 1.13 1.18 1.21 1.23 1.24 1.24 1.27 1.34 1.38 1.45 1.52 1.50 1.49 1.49 1.44 1.38 1.36 1.34 1.31 1.26 1.23 1.22 1.19 1.16 1.17 1.21 1.26 1.31 1.35 1.37 1.38 1.40 1.43 1.45 1.45 1.48 1.51 1.51 1.51 1.53 1.56 1.57 1.56 1.56 1.55 1.52 1.49 1.44 1.38 1.36
0.82 0.85 0.88 0.93 0.94 0.95 0.97 0.93 0.88 0.93 0.99 1.03 1.09 1.15 1.18 1.20 1.24 1.26 1.26 1.28 1.33 1.37 1.43 1.46 1.46 1.48 1.46 1.41 1.40 1.39 1.36 1.31 1.25 1.24 1.22 1.22 1.23 1.27 1.29 1.30 1.33 1.34 1.36 1.38 1.42 1.45 1.50 1.54 1.52 1.53 1.55 1.55 1.54 1.55 1.58 1.58 1.55 1.53 1.52 1.52 1.51 1.43 1.34
0.74 0.78 0.83 0.86 0.92 0.90 0.85 0.82 0.86 0.93 0.98 1.01 1.05 1.10 1.11 1.13 1.17 1.21 1.25 1.29 1.31 1.35 1.42 1.42 1.42 1.42 1.42 1.42 1.41 1.39 1.37 1.32 1.28 1.25 1.21 1.23 1.25 1.31 1.36 1.38 1.38 1.37 1.39 1.42 1.45 1.49 1.54 1.56 1.59 1.62 1.63 1.62 1.62 1.60 1.59 1.56 1.53 1.52 1.54 1.56 1.60 1.56 1.46
0.75 0.78 0.77 0.77 0.81 0.81 0.80 0.81 0.88 0.93 0.96 1.02 1.05 1.07 1.11 1.12 1.13 1.16 1.21 1.26 1.29 1.37 1.40 1.38 1.38 1.38 1.39 1.44 1.41 1.36 1.34 1.33 1.31 1.29 1.27 1.25 1.27 1.33 1.40 1.41 1.41 1.42 1.44 1.46 1.51 1.57 1.58 1.62 1.70 1.74 1.77 1.78 1.75 1.74 1.73 1.66 1.62 1.58 1.63 1.65 1.70 1.72 1.65
0.74 0.88 0.96 0.93 0.88 0.85 0.87 0.92 0.95 0.96 0.94 0.94 0.98 1.02 1.05 1.10 1.10 1.09 1.15 1.20 1.29 1.36 1.39 1.36 1.35 1.36 1.37 1.41 1.40 1.35 1.31 1.32 1.32 1.31 1.31 1.33 1.34 1.37 1.39 1.40 1.42 1.46 1.53 1.60 1.67 1.67 1.69 1.73 1.77 1.85 1.88 1.88 1.86 1.83 1.80 1.75 1.71 1.68 1.67 1.70 1.75 1.74 1.67
0.63 0.66 0.79 0.90 0.87 0.88 0.92 0.94 0.94 0.93 0.91 0.91 0.95 1.01 1.06 1.09 1.09 1.09 1.12 1.18 1.25 1.32 1.35 1.35 1.32 1.32 1.33 1.34 1.36 1.34 1.31 1.31 1.32 1.31 1.35 1.40 1.42 1.41 1.40 1.42 1.47 1.53 1.60 1.67 1.71 1.73 1.72 1.75 1.80 1.87 1.91 1.90 1.89 1.86 1.79 1.77 1.73 1.70 1.72 1.73 1.80 1.74 1.61
0.56 0.64 0.70 0.91 1.03 0.99 0.92 0.94 0.97 0.94 0.92 0.94 0.99 1.05 1.07 1.06 1.08 1.08 1.09 1.16 1.18 1.24 1.30 1.33 1.31 1.27 1.27 1.27 1.29 1.30 1.29 1.29 1.29 1.32 1.38 1.43 1.46 1.46 1.45 1.46 1.49 1.52 1.64 1.70 1.73 1.77 1.78 1.80 1.78 1.72 1.74 1.84 1.84 1.79 1.71 1.70 1.68 1.68 1.69 1.70 1.69 1.66 1.57
0.56 0.61 0.66 0.70 0.84 1.08 1.14 1.12 1.07 1.07 1.07 1.05 1.05 1.06 1.06 1.05 1.08 1.07 1.08 1.12 1.15 1.17 1.22 1.28 1.27 1.24 1.22 1.20 1.20 1.22 1.25 1.27 1.29 1.34 1.42 1.48 1.49 1.49 1.50 1.51 1.53 1.61 1.70 1.68 1.70 1.75 1.83 1.86 1.79 1.75 1.74 1.72 1.70 1.65 1.62 1.63 1.68 1.68 1.67 1.65 1.62 1.57 1.50
0.49 0.50 0.53 0.58 0.69 0.77 0.92 1.02 1.03 1.04 1.06 1.11 1.12 1.13 1.13 1.12 1.09 1.09 1.09 1.09 1.10 1.10 1.13 1.19 1.21 1.22 1.18 1.16 1.16 1.19 1.23 1.27 1.33 1.39 1.46 1.50 1.51 1.55 1.58 1.62 1.67 1.69 1.72 1.67 1.70 1.75 1.81 1.82 1.76 1.73 1.70 1.65 1.63 1.64 1.62 1.63 1.67 1.65 1.63 1.61 1.57 1.53 1.45
0.57 0.49 0.47 0.49 0.50 0.58 0.76 0.87 0.93 0.95 1.03 1.09 1.11 1.19 1.19 1.15 1.09 1.07 1.05 1.06 1.07 1.06 1.06 1.10 1.17 1.20 1.17 1.14 1.17 1.21 1.26 1.32 1.37 1.43 1.47 1.50 1.54 1.63 1.67 1.69 1.71 1.77 1.78 1.78 1.80 1.80 1.82 1.79 1.72 1.70 1.66 1.64 1.70 1.74 1.69 1.67 1.66 1.63 1.60 1.57 1.51 1.46 1.41
0.52 0.61 0.56 0.50 0.51 0.54 0.60 0.76 0.85 0.91 0.91 0.95 0.98 1.05 1.15 1.19 1.14 1.05 1.03 1.03 1.04 1.02 1.00 1.01 1.09 1.17 1.19 1.19 1.21 1.25 1.31 1.38 1.41 1.47 1.50 1.54 1.62 1.70 1.74 1.79 1.80 1.78 1.78 1.81 1.83 1.79 1.77 1.73 1.68 1.61 1.62 1.70 1.72 1.67 1.66 1.64 1.63 1.62 1.57 1.50 1.46 1.43 1.40
0.66 0.63 0.64 0.65 0.59 0.65 0.74 0.76 0.83 0.99 0.99 1.00 1.07 1.13 1.16 1.20 1.18 1.11 1.04 1.02 1.03 1.00 0.97 0.98 1.05 1.16 1.26 1.30 1.29 1.32 1.37 1.44 1.48 1.52 1.59 1.64 1.68 1.74 1.78 1.79 1.79 1.82 1.83 1.82 1.82 1.76 1.67 1.62 1.59 1.59 1.64 1.68 1.67 1.64 1.63 1.59 1.53 1.50 1.45 1.40 1.39 1.40 1.40
0.68 0.71 0.81 0.87 0.97 0.80 0.68 0.86 0.94 0.98 1.03 1.03 1.01 1.07 1.14 1.17 1.16 1.13 1.09 1.07 1.03 1.01 1.03 1.05 1.10 1.23 1.36 1.41 1.40 1.43 1.48 1.52 1.60 1.64 1.65 1.72 1.74 1.76 1.77 1.83 1.89 1.92 1.92 1.86 1.77 1.64 1.53 1.52 1.58 1.61 1.62 1.61 1.61 1.59 1.53 1.48 1.43 1.40 1.38 1.37 1.37 1.37 1.39
0.86 0.79 0.71 0.76 0.86 1.03 1.10 1.01 1.09 1.14 1.14 1.13 1.03 1.02 1.10 1.16 1.17 1.16 1.17 1.14 1.11 1.13 1.17 1.24 1.29 1.37 1.45 1.51 1.54 1.56 1.58 1.62 1.64 1.65 1.71 1.74 1.78 1.77 1.78 1.90 1.95 1.94 1.88 1.78 1.65 1.56 1.54 1.57 1.59 1.58 1.54 1.52 1.53 1.51 1.45 1.42 1.41 1.40 1.38 1.37 1.35 1.34 1.36
0.83 0.89 0.98 0.95 0.89 1.04 1.15 1.11 1.12 1.19 1.32 1.41 1.52 1.60 1.67 1.68 1.51 1.33 1.23 1.17 1.20 1.30 1.41 1.48 1.49 1.54 1.57 1.63 1.66 1.67 1.69 1.72 1.72 1.75 1.78 1.80 1.83 1.85 1.89 1.93 1.93 1.84 1.69 1.58 1.48 1.43 1.45 1.49 1.53 1.49 1.45 1.41 1.39 1.39 1.41 1.42 1.40 1.38 1.37 1.35 1.33 1.33 1.34
0.89 0.88 0.86 0.85 0.94 1.03 0.95 1.05 1.12 1.16 1.22 1.33 1.39 1.40 1.36 1.47 1.68 1.88 1.62 1.33 1.43 1.47 1.54 1.65 1.73 1.71 1.71 1.75 1.76 1.76 1.80 1.81 1.81 1.82 1.86 1.90 1.94 1.93 1.92 1.88 1.74 1.55 1.50 1.42 1.39 1.40 1.39 1.39 1.41 1.39 1.38 1.35 1.30 1.33 1.37 1.39 1.37 1.33 1.32 1.29 1.28 1.30 1.33
0.96 0.94 0.93 0.93 0.92 0.95 1.02 1.01 0.99 1.06 1.21 1.40 1.52 1.54 1.56 1.54 1.51 1.50 1.84 2.05 1.89 1.75 1.75 1.87 1.90 1.95 1.97 2.04 2.08 2.14 2.06 1.98 1.98 2.00 2.04 2.06 2.00 1.97 1.87 1.64 1.51 1.42 1.38 1.39 1.40 1.38 1.38 1.43 1.43 1.41 1.36 1.31 1.30 1.31 1.33 1.33 1.29 1.26 1.25 1.24 1.24 1.27 1.29
0.98 0.96 0.96 0.97 1.00 1.01 1.02 1.05 1.01 1.00 1.04 1.10 1.27 1.42 1.59 1.65 1.57 1.56 1.72 1.93 2.16 1.82 1.70 1.70 1.90 2.02 2.12 2.11 2.10 2.06 2.10 2.06 2.08 2.14 2.09 2.11 1.98 1.76 1.59 1.50 1.42 1.39 1.40 1.41 1.40 1.41 1.42 1.43 1.42 1.38 1.32 1.26 1.27 1.30 1.27 1.21 1.18 1.17 1.19 1.21 1.22 1.22 1.22
1.00 1.03 1.07 1.08 1.09 1.08 1.05 1.05 1.06 1.09 1.10 1.11 1.22 1.32 1.41 1.46 1.55 1.67 1.87 1.94 2.11 2.18 1.90 1.72 1.69 1.84 1.94 2.00 1.93 1.97 2.03 2.02 2.04 2.01 1.91 1.67 1.54 1.48 1.48 1.48 1.48 1.43 1.40 1.39 1.41 1.42 1.43 1.41 1.36 1.29 1.25 1.23 1.24 1.23 1.17 1.12 1.12 1.15 1.16 1.18 1.18 1.15 1.13
1.03 1.09 1.13 1.13 1.12 1.10 1.07 1.10 1.12 1.14 1.09 1.10 1.25 1.39 1.42 1.40 1.39 1.52 1.62 1.89 2.11 2.03 2.09 2.01 1.96 1.93 1.75 1.95 2.08 1.98 2.02 2.04 1.93 1.64 1.47 1.43 1.42 1.45 1.47 1.46 1.42 1.40 1.41 1.50 1.57 1.55 1.45 1.35 1.35 1.34 1.29 1.26 1.20 1.14 1.09 1.08 1.07 1.13 1.19 1.18 1.15 1.10 1.07
1.05 1.05 1.14 1.21 1.22 1.21 1.19 1.18 1.19 1.21 1.24 1.29 1.34 1.38 1.40 1.38 1.45 1.48 1.57 1.71 1.94 2.05 2.05 1.91 1.89 1.94 1.85 1.86 1.81 1.83 1.73 1.61 1.52 1.46 1.41 1.37 1.36 1.37 1.41 1.48 1.48 1.46 1.43 1.41 1.48 1.51 1.49 1.43 1.32 1.30 1.28 1.21 1.22 1.21 1.13 1.09 1.12 1.22 1.24 1.21 1.18 1.15 1.13
1.07 1.10 1.13 1.22 1.26 1.27 1.26 1.24 1.30 1.35 1.35 1.39 1.43 1.50 1.54 1.47 1.43 1.49 1.58 1.76 1.79 1.83 1.77 1.77 1.77 1.77 1.63 1.55 1.50 1.48 1.46 1.46 1.43 1.41 1.40 1.38 1.37 1.38 1.35 1.37 1.45 1.48 1.45 1.40 1.41 1.41 1.40 1.40 1.40 1.35 1.29 1.20 1.15 1.22 1.26 1.24 1.25 1.28 1.27 1.25 1.22 1.20 1.19
1.21 1.23 1.24 1.28 1.30 1.34 1.37 1.37 1.36 1.41 1.48 1.55 1.56 1.60 1.62 1.46 1.35 1.51 1.69 1.80 1.81 1.86 1.68 1.68 1.65 1.54 1.50 1.49 1.48 1.48 1.47 1.45 1.41 1.39 1.38 1.39 1.39 1.36 1.27 1.24 1.26 1.32 1.38 1.38 1.38 1.38 1.39 1.39 1.39 1.34 1.33 1.30 1.29 1.26 1.23 1.27 1.31 1.31 1.28 1.26 1.24 1.21 1.16

ECMWFFLT1_prec_pwat_012.txt.gz
Precipitable_Water
0.94 0.98 1.02 1.07 1.09 1.09 1.08 1.08 1.08 1.10 1.15 1.18 1.23 1.28 1.34 1.37 1.36 1.34 1.32 1.31 1.27 1.26 1.31 1.33 1.32 1.32 1.26 1.24 1.26 1.27 1.28 1.27 1.22 1.12 1.08 1.10 1.15 1.18 1.20 1.26 1.30 1.34 1.38 1.34 1.33 1.32 1.41 1.51 1.55 1.56 1.56 1.50 1.45 1.41 1.38 1.38 1.33 1.31 1.29 1.27 1.22 1.16 1.11
0.95 0.98 1.01 1.06 1.09 1.11 1.12 1.12 1.13 1.12 1.14 1.19 1.24 1.30 1.35 1.37 1.39 1.36 1.34 1.36 1.34 1.31 1.31 1.34 1.35 1.36 1.32 1.28 1.27 1.27 1.25 1.25 1.23 1.19 1.15 1.14 1.19 1.21 1.25 1.28 1.31 1.33 1.36 1.37 1.36 1.41 1.46 1.50 1.54 1.53 1.52 1.49 1.42 1.38 1.36 1.36 1.34 1.31 1.27 1.25 1.20 1.15 1.14
0.94 0.99 1.01 1.04 1.07 1.09 1.13 1.15 1.15 1.15 1.16 1.20 1.26 1.32 1.34 1.36 1.39 1.37 1.38 1.39 1.40 1.41 1.41 1.39 1.39 1.39 1.40 1.37 1.30 1.25 1.24 1.24 1.24 1.22 1.16 1.12 1.16 1.20 1.28 1.33 1.34 1.34 1.37 1.41 1.41 1.43 1.48 1.46 1.52 1.54 1.52 1.45 1.39 1.36 1.34 1.34 1.35 1.31 1.24 1.23 1.18 1.15 1.13
0.92 0.96 1.00 1.04 1.05 1.08 1.12 1.15 1.16 1.16 1.19 1.22 1.26 1.29 1.32 1.35 1.40 1.43 1.44 1.43 1.41 1.43 1.40 1.41 1.43 1.44 1.44 1.40 1.33 1.26 1.22 1.20 1.22 1.22 1.22 1.22 1.21 1.25 1.29 1.33 1.35 1.36 1.38 1.40 1.43 1.44 1.46 1.45 1.47 1.50 1.50 1.41 1.35 1.34 1.34 1.33 1.35 1.32 1.26 1.21 1.17 1.15 1.13
0.86 0.92 0.99 1.05 1.06 1.08 1.12 1.17 1.21 1.22 1.19 1.22 1.25 1.28 1.32 1.39 1.43 1.46 1.48 1.50 1.48 1.43 1.44 1.46 1.46 1.46 1.48 1.46 1.38 1.30 1.21 1.17 1.19 1.25 1.28 1.29 1.29 1.30 1.29 1.30 1.32 1.34 1.37 1.44 1.45 1.45 1.45 1.43 1.43 1.44 1.43 1.38 1.34 1.33 1.32 1.35 1.35 1.34 1.29 1.19 1.13 1.14 1.12
0.79 0.85 0.94 1.02 1.05 1.06 1.09 1.14 1.19 1.22 1.20 1.20 1.26 1.32 1.37 1.42 1.47 1.46 1.49 1.51 1.50 1.52 1.54 1.54 1.51 1.50 1.44 1.44 1.40 1.34 1.29 1.23 1.21 1.23 1.27 1.30 1.30 1.28 1.29 1.32 1.33 1.35 1.38 1.43 1.46 1.44 1.45 1.42 1.39 1.39 1.37 1.35 1.34 1.33 1.34 1.35 1.35 1.34 1.31 1.21 1.12 1.12 1.11
0.76 0.81 0.87 0.98 1.03 1.04 1.06 1.09 1.14 1.19 1.22 1.23 1.28 1.33 1.37 1.40 1.41 1.42 1.48 1.50 1.53 1.50 1.50 1.50 1.52 1.52 1.48 1.44 1.39 1.34 1.28 1.23 1.19 1.21 1.30 1.33 1.34 1.29 1.32 1.35 1.35 1.37 1.42 1.47 1.44 1.44 1.40 1.39 1.39 1.38 1.37 1.36 1.35 1.32 1.32 1.34 1.36 1.39 1.36 1.23 1.12 1.13 1.12
0.74 0.76 0.81 0.86 0.95 0.99 1.03 1.06 1.10 1.15 1.20 1.24 1.27 1.30 1.32 1.36 1.38 1.40 1.42 1.46 1.50 1.52 1.51 1.49 1.50 1.50 1.49 1.46 1.40 1.34 1.30 1.25 1.22 1.21 1.28 1.32 1.34 1.31 1.33 1.34 1.35 1.40 1.43 1.40 1.43 1.44 1.39 1.39 1.39 1.39 1.39 1.39 1.37 1.34 1.35 1.37 1.40 1.43 1.40 1.27 1.15 1.12 1.14
0.73 0.75 0.77 0.83 0.87 0.93 0.97 1.01 1.05 1.09 1.13 1.16 1.18 1.22 1.27 1.31 1.33 1.34 1.36 1.41 1.46 1.47 1.46 1.48 1.49 1.52 1.52 1.47 1.41 1.36 1.34 1.30 1.25 1.24 1.26 1.27 1.29 1.30 1.34 1.36 1.38 1.41 1.38 1.38 1.41 1.43 1.41 1.39 1.38 1.39 1.41 1.41 1.40 1.39 1.38 1.40 1.42 1.45 1.43 1.33 1.22 1.16 1.15
0.72 0.75 0.79 0.82 0.85 0.91 0.95 0.99 1.04 1.07 1.10 1.14 1.17 1.20 1.23 1.25 1.27 1.29 1.32 1.35 1.41 1.42 1.46 1.51 1.52 1.52 1.51 1.48 1.45 1.42 1.36 1.29 1.28 1.27 1.24 1.20 1.23 1.27 1.34 1.40 1.40 1.40 1.38 1.39 1.40 1.38 1.39 1.41 1.40 1.40 1.42 1.42 1.41 1.40 1.40 1.42 1.44 1.46 1.47 1.40 1.30 1.23 1.21
0.74 0.76 0.76 0.78 0.82 0.87 0.94 0.99 1.02 1.06 1.09 1.11 1.13 1.17 1.21 1.23 1.25 1.26 1.28 1.33 1.36 1.41 1.50 1.53 1.55 1.52 1.49 1.48 1.44 1.44 1.39 1.30 1.27 1.24 1.21 1.17 1.19 1.25 1.35 1.40 1.42 1.41 1.38 1.37 1.35 1.35 1.37 1.39 1.40 1.40 1.41 1.41 1.41 1.42 1.43 1.44 1.46 1.46 1.49 1.48 1.40 1.32 1.28
0.70 0.73 0.74 0.76 0.80 0.85 0.90 0.96 1.00 1.03 1.06 1.10 1.13 1.15 1.18 1.21 1.23 1.23 1.26 1.28 1.35 1.41 1.48 1.53 1.57 1.53 1.50 1.49 1.45 1.42 1.39 1.32 1.25 1.20 1.18 1.16 1.17 1.23 1.31 1.38 1.42 1.41 1.40 1.36 1.30 1.32 1.36 1.37 1.37 1.36 1.36 1.41 1.44 1.46 1.46 1.48 1.49 1.49 1.51 1.51 1.49 1.44 1.38
0.71 0.74 0.75 0.77 0.78 0.82 0.90 0.95 0.99 1.02 1.06 1.09 1.12 1.14 1.17 1.20 1.21 1.22 1.23 1.25 1.35 1.43 1.47 1.52 1.56 1.57 1.54 1.51 1.46 1.41 1.39 1.34 1.23 1.18 1.17 1.16 1.17 1.22 1.29 1.35 1.40 1.40 1.37 1.37 1.34 1.32 1.33 1.37 1.38 1.39 1.39 1.43 1.48 1.49 1.50 1.51 1.53 1.54 1.56 1.58 1.56 1.47 1.40
0.72 0.75 0.76 0.78 0.77 0.79 0.84 0.90 0.95 1.01 1.06 1.09 1.10 1.13 1.16 1.21 1.21 1.20 1.20 1.22 1.30 1.39 1.46 1.52 1.55 1.57 1.56 1.52 1.46 1.41 1.37 1.34 1.27 1.21 1.18 1.18 1.21 1.23 1.26 1.32 1.37 1.38 1.41 1.41 1.36 1.34 1.34 1.36 1.38 1.42 1.44 1.45 1.47 1.49 1.51 1.51 1.52 1.56 1.59 1.59 1.56 1.49 1.41
0.71 0.76 0.78 0.77 0.76 0.77 0.80 0.86 0.92 0.98 1.03 1.06 1.08 1.09 1.13 1.19 1.22 1.23 1.22 1.25 1.30 1.35 1.40 1.47 1.51 1.53 1.53 1.52 1.45 1.39 1.36 1.36 1.33 1.27 1.23 1.23 1.22 1.22 1.24 1.28 1.33 1.39 1.42 1.41 1.39 1.38 1.38 1.40 1.41 1.41 1.42 1.45 1.47 1.49 1.52 1.52 1.52 1.56 1.59 1.59 1.59 1.54 1.46
0.63 0.67 0.72 0.75 0.78 0.80 0.84 0.86 0.90 0.94 0.99 1.03 1.06 1.07 1.11 1.16 1.20 1.21 1.19 1.22 1.27 1.30 1.35 1.44 1.47 1.49 1.51 1.48 1.43 1.40 1.39 1.37 1.33 1.28 1.24 1.23 1.21 1.20 1.22 1.27 1.32 1.37 1.40 1.41 1.40 1.40 1.42 1.43 1.45 1.44 1.41 1.40 1.42 1.47 1.50 1.52 1.56 1.59 1.61 1.63 1.62 1.59 1.54
0.60 0.64 0.69 0.74 0.77 0.80 0.83 0.87 0.91 0.94 0.96 1.01 1.04 1.05 1.07 1.10 1.13 1.16 1.19 1.24 1.27 1.29 1.34 1.39 1.41 1.46 1.48 1.44 1.44 1.45 1.42 1.38 1.33 1.29 1.25 1.22 1.21 1.24 1.26 1.28 1.32 1.36 1.39 1.41 1.42 1.41 1.42 1.44 1.44 1.43 1.43 1.41 1.41 1.43 1.47 1.51 1.56 1.58 1.60 1.63 1.64 1.62 1.57
0.54 0.58 0.68 0.73 0.77 0.86 0.91 0.93 0.95 0.94 0.95 1.00 1.02 1.04 1.06 1.07 1.08 1.10 1.13 1.20 1.24 1.28 1.36 1.40 1.42 1.42 1.44 1.44 1.48 1.51 1.44 1.36 1.32 1.29 1.26 1.26 1.24 1.25 1.28 1.33 1.36 1.37 1.39 1.41 1.41 1.42 1.43 1.42 1.43 1.45 1.46 1.47 1.48 1.47 1.49 1.54 1.60 1.63 1.65 1.67 1.68 1.68 1.65
0.59 0.59 0.63 0.70 0.78 0.86 0.91 0.93 0.95 0.96 1.00 1.02 1.03 1.04 1.06 1.07 1.09 1.10 1.14 1.17 1.20 1.27 1.33 1.36 1.39 1.40 1.41 1.44 1.48 1.49 1.46 1.39 1.33 1.29 1.27 1.29 1.28 1.30 1.34 1.36 1.37 1.38 1.39 1.37 1.39 1.38 1.35 1.38 1.43 1.46 1.50 1.50 1.48 1.49 1.57 1.63 1.69 1.72 1.74 1.76 1.77 1.76 1.75
0.62 0.64 0.63 0.66 0.71 0.78 0.85 0.92 0.95 1.01 1.03 1.02 1.01 1.02 1.04 1.06 1.04 1.03 1.06 1.07 1.15 1.23 1.26 1.28 1.33 1.38 1.39 1.44 1.46 1.48 1.48 1.43 1.36 1.31 1.28 1.31 1.36 1.39 1.39 1.39 1.38 1.40 1.43 1.42 1.39 1.34 1.34 1.38 1.41 1.45 1.48 1.49 1.50 1.56 1.67 1.72 1.78 1.81 1.83 1.85 1.86 1.83 1.77
0.63 0.65 0.66 0.69 0.71 0.76 0.85 0.92 0.95 0.96 1.00 1.01 1.00 1.00 1.04 1.09 1.10 1.11 1.15 1.20 1.23 1.25 1.24 1.25 1.26 1.30 1.36 1.40 1.44 1.48 1.49 1.47 1.40 1.34 1.33 1.36 1.39 1.40 1.41 1.43 1.45 1.46 1.45 1.43 1.40 1.37 1.36 1.38 1.39 1.44 1.50 1.56 1.63 1.69 1.76 1.82 1.87 1.85 1.83 1.83 1.85 1.82 1.80
0.76 0.76 0.73 0.72 0.71 0.73 0.80 0.92 0.96 0.97 0.97 1.01 1.01 1.01 1.05 1.05 1.09 1.12 1.14 1.22 1.24 1.25 1.26 1.26 1.25 1.26 1.31 1.36 1.41 1.44 1.46 1.46 1.41 1.37 1.38 1.38 1.38 1.37 1.39 1.43 1.44 1.43 1.45 1.45 1.44 1.46 1.48 1.49 1.53 1.55 1.59 1.67 1.72 1.76 1.79 1.84 1.79 1.78 1.81 1.84 1.83 1.81 1.80
0.69 0.72 0.79 0.83 0.78 0.76 0.74 0.76 0.86 0.98 1.03 1.06 1.04 1.03 1.04 1.06 1.09 1.11 1.12 1.15 1.19 1.21 1.23 1.24 1.22 1.22 1.25 1.30 1.37 1.41 1.44 1.46 1.44 1.42 1.40 1.38 1.35 1.33 1.36 1.41 1.46 1.49 1.49 1.43 1.42 1.42 1.46 1.51 1.57 1.63 1.68 1.74 1.79 1.80 1.79 1.76 1.75 1.78 1.83 1.86 1.85 1.81 1.80
0.69 0.64 0.64 0.78 0.92 0.88 0.81 0.80 0.86 0.92 0.87 0.89 1.01 1.07 1.05 1.06 1.09 1.10 1.11 1.14 1.17 1.19 1.20 1.21 1.19 1.20 1.20 1.22 1.32 1.41 1.43 1.46 1.48 1.47 1.42 1.37 1.29 1.29 1.34 1.43 1.50 1.50 1.51 1.42 1.39 1.40 1.47 1.56 1.61 1.67 1.73 1.77 1.79 1.82 1.74 1.69 1.74 1.81 1.85 1.86 1.84 1.81 1.77
0.66 0.70 0.64 0.62 0.72 0.83 0.90 0.90 0.87 0.90 0.97 0.97 0.96 1.03 1.09 1.11 1.13 1.15 1.13 1.15 1.19 1.22 1.19 1.18 1.17 1.19 1.20 1.19 1.25 1.38 1.47 1.47 1.49 1.50 1.46 1.38 1.32 1.32 1.35 1.40 1.44 1.52 1.56 1.52 1.49 1.50 1.57 1.62 1.62 1.66 1.75 1.81 1.84 1.83 1.75 1.71 1.77 1.86 1.89 1.86 1.83 1.82 1.75
0.63 0.66 0.73 0.80 0.66 0.68 0.74 0.88 0.93 0.92 0.93 0.93 0.94 1.00 1.08 1.15 1.18 1.18 1.15 1.14 1.17 1.17 1.16 1.16 1.17 1.19 1.21 1.21 1.24 1.30 1.39 1.49 1.50 1.51 1.50 1.42 1.39 1.39 1.38 1.43 1.50 1.54 1.53 1.54 1.57 1.59 1.63 1.63 1.63 1.65 1.74 1.85 1.87 1.80 1.78 1.76 1.82 1.90 1.91 1.85 1.81 1.77 1.70
0.73 0.71 0.71 0.79 0.84 0.87 0.70 0.64 0.73 0.83 0.89 0.95 0.97 0.99 1.01 1.03 1.04 1.07 1.09 1.10 1.10 1.09 1.10 1.14 1.17 1.19 1.22 1.24 1.27 1.29 1.32 1.38 1.44 1.47 1.51 1.52 1.46 1.44 1.47 1.51 1.52 1.55 1.55 1.55 1.61 1.63 1.65 1.66 1.69 1.74 1.80 1.87 1.85 1.78 1.78 1.79 1.80 1.86 1.86 1.81 1.76 1.73 1.64
0.71 0.73 0.78 0.85 0.93 0.92 0.84 0.77 0.77 0.86 1.01 1.15 1.21 1.27 1.31 1.27 1.11 0.98 0.97 1.02 1.03 1.04 1.10 1.15 1.20 1.22 1.23 1.25 1.27 1.27 1.29 1.33 1.39 1.45 1.50 1.55 1.58 1.56 1.55 1.58 1.60 1.58 1.58 1.61 1.62 1.64 1.67 1.73 1.77 1.79 1.82 1.84 1.80 1.74 1.75 1.81 1.82 1.79 1.77 1.75 1.71 1.61 1.55
0.69 0.69 0.68 0.70 0.77 0.98 1.03 0.95 0.87 0.89 0.97 1.08 1.17 1.25 1.35 1.35 1.27 1.22 1.19 1.15 1.19 1.28 1.35 1.40 1.40 1.37 1.33 1.32 1.34 1.32 1.31 1.34 1.37 1.43 1.50 1.55 1.59 1.60 1.59 1.64 1.64 1.62 1.63 1.62 1.66 1.72 1.76 1.78 1.81 1.83 1.83 1.80 1.74 1.71 1.74 1.79 1.76 1.74 1.71 1.66 1.58 1.51 1.49
0.80 0.78 0.78 0.83 0.86 0.89 0.98 1.04 1.08 1.09 1.06 1.10 1.17 1.25 1.32 1.36 1.35 1.33 1.25 1.21 1.30 1.31 1.32 1.33 1.40 1.47 1.49 1.50 1.50 1.48 1.44 1.44 1.47 1.50 1.55 1.59 1.68 1.70 1.69 1.74 1.77 1.78 1.76 1.77 1.78 1.82 1.85 1.91 1.85 1.88 1.80 1.66 1.62 1.66 1.69 1.69 1.68 1.68 1.65 1.57 1.50 1.47 1.44
0.80 0.79 0.79 0.79 0.82 0.87 0.92 0.93 0.97 1.05 1.09 1.20 1.27 1.28 1.30 1.37 1.37 1.38 1.32 1.35 1.37 1.36 1.42 1.46 1.43 1.42 1.41 1.45 1.51 1.54 1.55 1.56 1.56 1.59 1.63 1.69 1.78 1.81 1.86 1.90 1.91 1.82 1.77 1.74 1.77 1.80 1.72 1.73 1.83 1.84 1.73 1.62 1.59 1.61 1.63 1.63 1.64 1.65 1.61 1.55 1.48 1.43 1.40
0.92 0.94 0.94 0.90 0.87 0.86 0.88 0.92 0.95 0.95 0.94 1.01 1.13 1.22 1.41 1.54 1.52 1.48 1.58 1.68 1.71 1.69 1.62 1.57 1.60 1.58 1.53 1.54 1.56 1.58 1.59 1.56 1.59 1.61 1.63 1.65 1.69 1.76 1.84 1.79 1.80 1.78 1.82 1.88 1.91 1.80 1.78 1.78 1.86 1.74 1.68 1.62 1.60 1.59 1.60 1.61 1.62 1.61 1.55 1.50 1.46 1.41 1.39
0.88 0.95 0.96 0.94 0.99 0.99 0.96 0.93 0.88 0.89 0.90 0.91 0.99 1.03 1.13 1.23 1.27 1.42 1.63 1.73 1.82 1.90 1.90 1.87 1.79 1.72 1.63 1.62 1.65 1.67 1.66 1.65 1.65 1.65 1.69 1.69 1.70 1.74 1.78 1.86 1.88 1.94 1.97 1.90 1.79 1.80 1.81 1.84 1.76 1.68 1.62 1.57 1.57 1.58 1.59 1.59 1.57 1.51 1.47 1.46 1.40 1.37 1.35
0.90 0.94 1.00 1.05 1.06 1.06 1.04 1.00 0.95 0.92 0.93 0.95 1.00 1.04 1.07 1.08 1.10 1.15 1.20 1.24 1.28 1.38 1.62 1.86 1.88 1.75 1.66 1.56 1.51 1.49 1.47 1.44 1.53 1.61 1.70 1.75 1.74 1.68 1.71 1.84 1.96 1.94 1.89 1.85 1.80 1.68 1.66 1.69 1.68 1.64 1.56 1.54 1.56 1.54 1.57 1.55 1.50 1.46 1.42 1.38 1.32 1.29 1.30
1.02 1.03 1.03 1.02 1.05 1.08 1.04 1.03 1.01 1.01 1.02 1.02 1.07 1.11 1.12 1.12 1.15 1.23 1.29 1.35 1.42 1.47 1.49 1.53 1.57 1.62 1.64 1.65 1.59 1.50 1.50 1.44 1.44 1.61 1.69 1.77 1.87 1.88 1.88 1.82 1.81 1.83 1.87 1.94 1.80 1.65 1.60 1.67 1.68 1.62 1.63 1.62 1.53 1.50 1.49 1.43 1.34 1.38 1.40 1.32 1.27 1.23 1.22
1.04 1.05 1.06 1.10 1.12 1.12 1.11 1.12 1.10 1.08 1.07 1.10 1.16 1.17 1.15 1.16 1.20 1.26 1.31 1.33 1.35 1.35 1.29 1.30 1.32 1.33 1.34 1.36 1.44 1.50 1.47 1.36 1.48 1.48 1.54 1.64 1.70 1.78 1.81 1.87 1.89 1.89 1.91 1.81 1.73 1.76 1.82 1.80 1.71 1.66 1.64 1.57 1.59 1.60 1.46 1.39 1.42 1.39 1.32 1.27 1.24 1.20 1.15
1.03 1.04 1.07 1.13 1.14 1.14 1.14 1.17 1.19 1.16 1.13 1.16 1.20 1.21 1.22 1.23 1.25 1.25 1.26 1.27 1.30 1.29 1.26 1.25 1.26 1.30 1.35 1.36 1.30 1.42 1.72 1.80 1.71 1.65 1.78 1.84 1.88 1.86 1.80 1.77 1.78 1.84 1.89 1.83 1.76 1.78 1.73 1.70 1.71 1.65 1.58 1.54 1.55 1.60 1.57 1.48 1.37 1.31 1.28 1.24 1.20 1.15 1.12
1.14 1.15 1.17 1.18 1.18 1.19 1.19 1.18 1.19 1.18 1.18 1.26 1.28 1.27 1.31 1.31 1.35 1.37 1.40 1.40 1.39 1.40 1.39 1.39 1.35 1.35 1.39 1.42 1.39 1.35 1.35 1.73 1.91 1.84 1.81 1.83 1.89 1.85 1.81 1.78 1.72 1.78 1.82 1.81 1.78 1.70 1.62 1.59 1.54 1.51 1.56 1.61 1.58 1.50 1.44 1.40 1.36 1.31 1.28 1.24 1.19 1.15 1.13

ECMWFFLT1_prec_pwat_015.txt.gz
Precipitable_Water
0.85 0.90 0.95 1.01 1.04 1.07 1.10 1.12 1.13 1.12 1.10 1.09 1.11 1.15 1.20 1.24 1.26 1.23 1.16 1.13 1.11 1.11 1.16 1.19 1.19 1.21 1.19 1.17 1.20 1.24 1.26 1.25 1.26 1.23 1.22 1.22 1.22 1.19 1.20 1.25 1.24 1.27 1.32 1.30 1.32 1.35 1.43 1.52 1.51 1.53 1.60 1.62 1.60 1.59 1.56 1.51 1.43 1.39 1.36 1.34 1.31 1.27 1.23
0.86 0.89 0.93 0.99 1.02 1.05 1.10 1.14 1.16 1.16 1.14 1.10 1.11 1.16 1.21 1.25 1.30 1.32 1.29 1.23 1.16 1.14 1.16 1.19 1.20 1.20 1.20 1.20 1.21 1.25 1.26 1.26 1.26 1.26 1.27 1.26 1.26 1.23 1.22 1.25 1.27 1.28 1.32 1.33 1.36 1.41 1.47 1.51 1.51 1.52 1.55 1.58 1.58 1.58 1.55 1.48 1.42 1.40 1.37 1.34 1.29 1.25 1.23
0.82 0.86 0.92 0.97 1.01 1.03 1.08 1.16 1.19 1.19 1.18 1.14 1.14 1.17 1.21 1.24 1.29 1.32 1.36 1.37 1.31 1.26 1.25 1.24 1.24 1.20 1.20 1.21 1.23 1.24 1.27 1.28 1.28 1.26 1.23 1.19 1.19 1.20 1.21 1.24 1.30 1.32 1.35 1.39 1.41 1.42 1.49 1.50 1.52 1.54 1.54 1.55 1.57 1.54 1.51 1.46 1.43 1.41 1.39 1.34 1.28 1.25 1.23
0.78 0.82 0.88 0.95 1.01 1.06 1.11 1.17 1.21 1.24 1.23 1.20 1.16 1.17 1.20 1.24 1.32 1.37 1.41 1.44 1.42 1.39 1.33 1.32 1.30 1.27 1.25 1.23 1.24 1.26 1.28 1.29 1.28 1.26 1.25 1.25 1.22 1.24 1.22 1.22 1.28 1.35 1.37 1.38 1.41 1.44 1.49 1.52 1.52 1.52 1.54 1.54 1.55 1.53 1.49 1.44 1.42 1.41 1.40 1.34 1.25 1.24 1.25
0.77 0.82 0.86 0.92 0.99 1.06 1.12 1.17 1.21 1.23 1.23 1.23 1.21 1.21 1.22 1.27 1.35 1.42 1.46 1.47 1.48 1.44 1.41 1.36 1.37 1.35 1.33 1.32 1.29 1.31 1.32 1.31 1.30 1.29 1.28 1.28 1.27 1.26 1.21 1.18 1.24 1.29 1.35 1.41 1.45 1.45 1.49 1.51 1.51 1.49 1.49 1.52 1.53 1.51 1.47 1.45 1.42 1.40 1.39 1.36 1.25 1.22 1.22
0.71 0.75 0.80 0.86 0.94 1.02 1.09 1.16 1.19 1.22 1.22 1.20 1.20 1.21 1.25 1.31 1.39 1.42 1.44 1.45 1.46 1.49 1.53 1.55 1.52 1.48 1.40 1.39 1.38 1.38 1.42 1.43 1.40 1.34 1.30 1.29 1.26 1.22 1.18 1.19 1.24 1.29 1.34 1.38 1.45 1.46 1.51 1.50 1.48 1.45 1.43 1.46 1.49 1.49 1.48 1.44 1.41 1.38 1.38 1.38 1.33 1.25 1.20
0.63 0.68 0.75 0.81 0.88 0.96 1.06 1.14 1.18 1.22 1.24 1.24 1.24 1.25 1.29 1.35 1.37 1.40 1.46 1.47 1.47 1.45 1.49 1.51 1.53 1.52 1.48 1.49 1.46 1.44 1.42 1.42 1.43 1.38 1.34 1.31 1.29 1.23 1.19 1.21 1.25 1.29 1.33 1.42 1.43 1.48 1.50 1.49 1.47 1.45 1.42 1.42 1.45 1.46 1.45 1.42 1.37 1.35 1.35 1.36 1.34 1.33 1.27
0.58 0.62 0.71 0.77 0.83 0.90 0.99 1.07 1.14 1.19 1.24 1.27 1.29 1.30 1.31 1.34 1.37 1.40 1.43 1.45 1.47 1.48 1.48 1.48 1.48 1.47 1.47 1.52 1.52 1.48 1.45 1.44 1.44 1.42 1.36 1.30 1.27 1.21 1.18 1.20 1.24 1.30 1.35 1.36 1.42 1.49 1.50 1.51 1.49 1.47 1.43 1.41 1.41 1.45 1.47 1.44 1.38 1.34 1.34 1.34 1.36 1.36 1.34
0.59 0.63 0.68 0.74 0.80 0.86 0.92 0.98 1.05 1.12 1.17 1.22 1.26 1.26 1.27 1.32 1.35 1.36 1.39 1.44 1.47 1.44 1.43 1.45 1.44 1.47 1.52 1.53 1.52 1.51 1.52 1.50 1.44 1.40 1.35 1.27 1.24 1.17 1.14 1.17 1.24 1.33 1.32 1.34 1.39 1.49 1.53 1.53 1.51 1.48 1.45 1.41 1.41 1.44 1.45 1.43 1.39 1.36 1.34 1.34 1.36 1.38 1.39
0.60 0.65 0.70 0.74 0.80 0.84 0.89 0.94 1.01 1.08 1.14 1.18 1.21 1.24 1.27 1.29 1.31 1.34 1.38 1.42 1.44 1.41 1.40 1.43 1.46 1.50 1.53 1.54 1.53 1.55 1.54 1.49 1.46 1.41 1.34 1.26 1.21 1.14 1.12 1.17 1.23 1.32 1.34 1.35 1.41 1.45 1.53 1.56 1.54 1.50 1.47 1.42 1.42 1.43 1.42 1.41 1.39 1.36 1.35 1.35 1.37 1.40 1.41
0.63 0.68 0.71 0.73 0.77 0.82 0.87 0.91 0.95 1.00 1.05 1.10 1.13 1.17 1.20 1.22 1.26 1.30 1.33 1.38 1.39 1.38 1.41 1.43 1.48 1.49 1.52 1.54 1.54 1.56 1.53 1.50 1.48 1.40 1.33 1.26 1.23 1.16 1.14 1.17 1.22 1.30 1.32 1.36 1.40 1.46 1.51 1.54 1.54 1.49 1.47 1.43 1.41 1.40 1.39 1.39 1.39 1.37 1.36 1.38 1.41 1.43 1.45
0.55 0.62 0.68 0.73 0.76 0.79 0.81 0.86 0.91 0.95 1.01 1.07 1.12 1.15 1.18 1.21 1.24 1.27 1.31 1.33 1.35 1.36 1.39 1.42 1.47 1.48 1.49 1.52 1.53 1.53 1.53 1.52 1.49 1.41 1.35 1.28 1.26 1.22 1.18 1.18 1.21 1.26 1.31 1.37 1.40 1.46 1.50 1.50 1.48 1.46 1.43 1.44 1.43 1.41 1.41 1.42 1.41 1.40 1.39 1.41 1.44 1.46 1.48
0.48 0.52 0.60 0.66 0.71 0.76 0.79 0.82 0.86 0.91 0.96 1.02 1.07 1.12 1.16 1.20 1.22 1.25 1.29 1.31 1.35 1.37 1.37 1.40 1.44 1.46 1.47 1.50 1.51 1.51 1.53 1.53 1.50 1.46 1.41 1.34 1.29 1.29 1.26 1.21 1.21 1.23 1.26 1.36 1.42 1.46 1.47 1.48 1.45 1.44 1.43 1.43 1.45 1.44 1.43 1.44 1.44 1.43 1.45 1.46 1.48 1.48 1.50
0.46 0.49 0.56 0.66 0.72 0.78 0.81 0.83 0.84 0.87 0.94 1.00 1.06 1.11 1.15 1.21 1.24 1.25 1.26 1.28 1.34 1.38 1.40 1.42 1.42 1.42 1.44 1.47 1.48 1.48 1.50 1.53 1.56 1.55 1.50 1.43 1.37 1.34 1.30 1.25 1.24 1.23 1.29 1.35 1.38 1.43 1.45 1.44 1.41 1.41 1.42 1.42 1.44 1.47 1.49 1.48 1.46 1.45 1.48 1.49 1.50 1.50 1.51
0.40 0.44 0.49 0.54 0.63 0.73 0.81 0.84 0.85 0.85 0.89 0.96 1.03 1.09 1.13 1.18 1.22 1.27 1.30 1.33 1.35 1.37 1.36 1.38 1.38 1.39 1.42 1.45 1.44 1.44 1.48 1.53 1.59 1.61 1.59 1.54 1.44 1.35 1.31 1.26 1.24 1.27 1.29 1.31 1.34 1.41 1.44 1.44 1.43 1.39 1.39 1.42 1.44 1.46 1.50 1.49 1.47 1.46 1.46 1.46 1.48 1.52 1.53
0.38 0.41 0.46 0.52 0.60 0.68 0.76 0.83 0.86 0.86 0.88 0.92 0.98 1.03 1.10 1.15 1.19 1.22 1.23 1.26 1.32 1.34 1.38 1.42 1.39 1.38 1.39 1.39 1.40 1.45 1.52 1.56 1.58 1.58 1.60 1.58 1.49 1.39 1.34 1.30 1.28 1.30 1.29 1.29 1.31 1.35 1.39 1.42 1.43 1.42 1.40 1.39 1.42 1.45 1.47 1.47 1.47 1.45 1.45 1.48 1.49 1.51 1.55
0.42 0.44 0.46 0.50 0.59 0.66 0.71 0.79 0.85 0.88 0.90 0.94 0.99 1.03 1.07 1.11 1.17 1.20 1.21 1.24 1.28 1.31 1.38 1.41 1.38 1.39 1.37 1.35 1.40 1.48 1.55 1.58 1.59 1.60 1.57 1.57 1.55 1.49 1.42 1.37 1.33 1.31 1.30 1.30 1.29 1.28 1.32 1.37 1.39 1.41 1.43 1.42 1.40 1.40 1.41 1.42 1.43 1.44 1.44 1.45 1.49 1.51 1.53
0.45 0.46 0.48 0.50 0.56 0.63 0.69 0.75 0.81 0.84 0.88 0.92 0.97 1.02 1.07 1.11 1.17 1.21 1.20 1.23 1.25 1.30 1.39 1.41 1.39 1.37 1.34 1.35 1.44 1.51 1.54 1.57 1.61 1.61 1.58 1.59 1.57 1.53 1.48 1.44 1.38 1.31 1.29 1.29 1.26 1.27 1.29 1.29 1.32 1.37 1.41 1.42 1.42 1.40 1.38 1.37 1.39 1.41 1.42 1.44 1.47 1.51 1.55
0.51 0.49 0.51 0.53 0.57 0.64 0.69 0.72 0.76 0.80 0.86 0.91 0.95 0.99 1.05 1.11 1.15 1.17 1.19 1.19 1.23 1.33 1.38 1.38 1.38 1.36 1.35 1.39 1.45 1.49 1.54 1.58 1.60 1.61 1.61 1.60 1.60 1.61 1.57 1.48 1.39 1.32 1.27 1.24 1.26 1.28 1.24 1.23 1.27 1.30 1.36 1.39 1.38 1.37 1.38 1.36 1.39 1.40 1.42 1.45 1.49 1.57 1.68
0.61 0.61 0.63 0.63 0.63 0.64 0.66 0.70 0.76 0.81 0.84 0.87 0.91 0.98 1.06 1.13 1.15 1.18 1.22 1.22 1.28 1.32 1.34 1.35 1.36 1.36 1.34 1.38 1.42 1.47 1.52 1.57 1.59 1.60 1.61 1.64 1.65 1.64 1.58 1.47 1.36 1.31 1.30 1.29 1.31 1.26 1.21 1.21 1.21 1.24 1.27 1.31 1.32 1.33 1.35 1.36 1.38 1.41 1.44 1.48 1.54 1.65 1.77
0.66 0.66 0.63 0.63 0.64 0.67 0.70 0.72 0.75 0.79 0.83 0.88 0.94 1.02 1.07 1.11 1.18 1.23 1.28 1.30 1.29 1.30 1.28 1.28 1.27 1.28 1.30 1.32 1.37 1.45 1.50 1.54 1.57 1.59 1.64 1.67 1.67 1.64 1.57 1.48 1.38 1.35 1.35 1.34 1.28 1.21 1.16 1.15 1.17 1.19 1.21 1.24 1.28 1.29 1.30 1.33 1.36 1.39 1.44 1.51 1.61 1.73 1.81
0.58 0.64 0.62 0.65 0.65 0.67 0.69 0.72 0.73 0.76 0.80 0.88 0.95 1.00 1.04 1.06 1.15 1.20 1.24 1.30 1.26 1.24 1.23 1.21 1.20 1.20 1.24 1.27 1.32 1.38 1.44 1.49 1.53 1.58 1.63 1.65 1.65 1.60 1.53 1.49 1.43 1.33 1.34 1.35 1.34 1.31 1.26 1.23 1.22 1.18 1.18 1.22 1.23 1.22 1.21 1.28 1.35 1.39 1.47 1.58 1.70 1.79 1.86
0.58 0.59 0.60 0.62 0.68 0.72 0.76 0.79 0.82 0.86 0.88 0.92 0.96 1.00 1.04 1.09 1.14 1.17 1.19 1.21 1.21 1.20 1.21 1.23 1.21 1.21 1.23 1.25 1.29 1.35 1.41 1.46 1.50 1.55 1.59 1.62 1.59 1.56 1.53 1.49 1.44 1.40 1.40 1.37 1.35 1.31 1.25 1.18 1.18 1.21 1.19 1.18 1.20 1.21 1.23 1.30 1.37 1.44 1.55 1.67 1.76 1.81 1.83
0.72 0.72 0.74 0.74 0.74 0.74 0.80 0.83 0.85 0.88 0.94 0.99 0.98 1.00 1.03 1.10 1.14 1.14 1.12 1.12 1.14 1.16 1.18 1.20 1.18 1.20 1.23 1.26 1.32 1.35 1.38 1.42 1.47 1.52 1.57 1.60 1.56 1.55 1.56 1.54 1.50 1.46 1.45 1.35 1.31 1.29 1.25 1.25 1.25 1.25 1.23 1.23 1.25 1.28 1.27 1.32 1.43 1.54 1.65 1.74 1.79 1.83 1.83
0.75 0.76 0.79 0.84 0.83 0.79 0.79 0.80 0.85 0.91 0.94 0.95 0.98 1.04 1.08 1.11 1.13 1.09 1.05 1.05 1.09 1.11 1.11 1.13 1.14 1.18 1.21 1.25 1.29 1.31 1.35 1.41 1.45 1.49 1.54 1.57 1.57 1.59 1.58 1.55 1.50 1.49 1.49 1.44 1.40 1.34 1.34 1.35 1.31 1.28 1.30 1.30 1.30 1.35 1.38 1.44 1.53 1.62 1.72 1.81 1.82 1.81 1.80
0.66 0.71 0.77 0.87 0.89 0.88 0.89 0.85 0.85 0.83 0.82 0.86 0.91 1.07 1.19 1.18 1.11 1.05 1.03 1.05 1.09 1.07 1.05 1.07 1.12 1.18 1.22 1.23 1.25 1.30 1.35 1.39 1.40 1.41 1.46 1.50 1.56 1.61 1.60 1.62 1.61 1.57 1.51 1.47 1.46 1.42 1.41 1.39 1.36 1.31 1.30 1.34 1.37 1.44 1.50 1.53 1.58 1.70 1.82 1.85 1.81 1.77 1.79
0.76 0.79 0.77 0.80 0.87 0.92 0.88 0.87 0.83 0.84 0.87 0.90 0.97 1.07 1.13 1.18 1.16 1.10 1.07 1.08 1.08 1.03 1.02 1.06 1.12 1.17 1.17 1.19 1.25 1.30 1.34 1.38 1.39 1.37 1.38 1.43 1.50 1.57 1.62 1.65 1.62 1.60 1.54 1.50 1.49 1.46 1.44 1.42 1.44 1.44 1.44 1.47 1.48 1.52 1.57 1.61 1.63 1.76 1.86 1.85 1.78 1.77 1.83
0.72 0.71 0.78 0.82 0.85 0.87 0.87 0.90 0.87 0.85 0.88 0.97 1.04 1.07 1.09 1.10 1.07 1.04 1.07 1.10 1.05 1.02 1.04 1.09 1.13 1.12 1.14 1.20 1.25 1.28 1.32 1.37 1.41 1.43 1.42 1.45 1.52 1.56 1.57 1.64 1.68 1.66 1.63 1.60 1.53 1.48 1.45 1.49 1.53 1.56 1.55 1.53 1.52 1.55 1.59 1.66 1.74 1.85 1.91 1.82 1.77 1.80 1.87
0.69 0.69 0.69 0.68 0.69 0.78 0.83 0.83 0.82 0.84 0.86 0.96 1.02 1.10 1.13 1.10 1.02 1.05 1.11 1.08 1.05 1.11 1.19 1.22 1.26 1.27 1.24 1.26 1.28 1.30 1.34 1.39 1.44 1.49 1.55 1.55 1.56 1.55 1.55 1.64 1.70 1.74 1.75 1.71 1.65 1.57 1.52 1.50 1.52 1.51 1.49 1.47 1.51 1.59 1.67 1.74 1.85 1.96 1.93 1.85 1.85 1.90 1.90
0.71 0.72 0.72 0.80 0.81 0.82 0.84 0.84 0.88 0.86 0.90 0.94 0.99 1.06 1.15 1.11 1.08 1.07 1.06 1.07 1.19 1.26 1.25 1.25 1.26 1.29 1.30 1.32 1.34 1.36 1.38 1.40 1.44 1.48 1.54 1.57 1.61 1.60 1.61 1.63 1.66 1.71 1.73 1.75 1.73 1.65 1.54 1.51 1.52 1.51 1.49 1.48 1.57 1.68 1.72 1.74 1.84 2.00 1.97 1.93 1.90 1.90 1.87
0.74 0.72 0.73 0.73 0.76 0.85 0.87 0.84 0.86 0.93 0.94 0.96 0.96 1.02 1.05 1.09 1.06 1.08 1.08 1.16 1.27 1.27 1.23 1.22 1.24 1.27 1.29 1.30 1.32 1.35 1.42 1.50 1.56 1.62 1.66 1.71 1.74 1.71 1.69 1.66 1.67 1.62 1.67 1.74 1.77 1.74 1.64 1.57 1.53 1.50 1.51 1.56 1.60 1.64 1.68 1.74 1.84 1.86 1.79 1.77 1.86 1.88 1.87
0.79 0.80 0.79 0.80 0.82 0.84 0.86 0.88 0.88 0.89 0.91 0.98 1.04 1.06 1.10 1.10 1.11 1.04 1.09 1.20 1.23 1.25 1.24 1.24 1.25 1.25 1.25 1.28 1.30 1.33 1.38 1.40 1.47 1.55 1.63 1.70 1.78 1.76 1.78 1.74 1.73 1.69 1.69 1.71 1.73 1.76 1.71 1.63 1.58 1.55 1.60 1.62 1.59 1.59 1.67 1.76 1.79 1.77 1.67 1.63 1.78 1.84 1.83
0.84 0.84 0.80 0.77 0.83 0.87 0.87 0.87 0.87 0.89 0.90 0.91 1.03 1.09 1.12 1.14 1.18 1.19 1.22 1.27 1.35 1.34 1.31 1.28 1.26 1.27 1.31 1.32 1.34 1.35 1.37 1.36 1.37 1.46 1.55 1.58 1.71 1.82 1.81 1.81 1.83 1.79 1.74 1.69 1.66 1.65 1.67 1.68 1.65 1.63 1.66 1.68 1.62 1.59 1.66 1.70 1.74 1.65 1.54 1.55 1.63 1.73 1.75
0.90 0.91 0.92 0.93 0.93 0.91 0.89 0.89 0.90 0.92 0.94 0.94 1.00 1.05 1.09 1.12 1.15 1.21 1.28 1.34 1.36 1.36 1.32 1.27 1.26 1.24 1.24 1.30 1.36 1.39 1.36 1.35 1.37 1.41 1.49 1.56 1.61 1.67 1.76 1.80 1.84 1.77 1.71 1.66 1.61 1.55 1.53 1.55 1.62 1.69 1.73 1.75 1.70 1.63 1.65 1.70 1.67 1.56 1.49 1.49 1.60 1.72 1.73
0.97 0.97 0.98 0.96 0.98 0.99 0.94 0.93 0.92 0.95 0.95 0.99 1.05 1.08 1.09 1.10 1.14 1.20 1.21 1.27 1.34 1.36 1.31 1.26 1.23 1.24 1.28 1.34 1.36 1.37 1.45 1.52 1.61 1.57 1.41 1.31 1.29 1.44 1.53 1.54 1.69 1.78 1.74 1.75 1.79 1.73 1.64 1.63 1.74 1.92 1.99 1.90 1.78 1.67 1.66 1.68 1.55 1.47 1.49 1.48 1.69 1.72 1.59
0.99 0.99 1.01 1.05 1.07 1.06 1.04 1.03 1.02 1.01 1.01 1.04 1.09 1.10 1.11 1.12 1.15 1.19 1.21 1.24 1.26 1.28 1.26 1.29 1.32 1.31 1.29 1.30 1.30 1.34 1.41 1.45 1.45 1.46 1.45 1.39 1.25 1.24 1.41 1.52 1.52 1.67 1.73 1.72 1.80 1.84 1.85 1.84 1.86 1.88 1.88 1.88 1.89 1.93 1.80 1.59 1.49 1.54 1.48 1.54 1.66 1.66 1.59
1.02 1.02 1.03 1.08 1.06 1.07 1.07 1.07 1.07 1.05 1.05 1.09 1.13 1.13 1.13 1.13 1.17 1.18 1.19 1.20 1.23 1.24 1.24 1.23 1.22 1.28 1.33 1.35 1.32 1.29 1.27 1.30 1.35 1.40 1.38 1.35 1.35 1.37 1.35 1.42 1.55 1.64 1.72 1.78 1.77 1.76 1.80 1.91 1.99 1.88 1.71 1.82 1.84 1.95 1.88 1.75 1.63 1.52 1.52 1.55 1.60 1.58 1.53
1.14 1.13 1.13 1.14 1.13 1.12 1.13 1.12 1.11 1.08 1.08 1.10 1.11 1.09 1.10 1.14 1.19 1.22 1.25 1.27 1.28 1.29 1.27 1.27 1.26 1.24 1.27 1.31 1.30 1.28 1.26 1.25 1.25 1.26 1.27 1.30 1.35 1.37 1.37 1.38 1.38 1.48 1.61 1.66 1.73 1.96 2.01 2.00 1.94 1.90 1.89 1.78 1.71 1.70 1.73 1.74 1.66 1.54 1.52 1.51 1.49 1.44 1.43

ECMWFFLT1_prec_pwat_021.txt.gz
Precipitable_Water
0.74 0.80 0.85 0.92 0.98 1.02 1.06 1.11 1.13 1.14 1.17 1.17 1.12 1.05 0.97 0.92 0.90 0.90 0.88 0.91 0.93 0.96 1.03 1.06 1.07 1.08 1.06 1.07 1.10 1.12 1.15 1.16 1.15 1.12 1.11 1.11 1.13 1.14 1.11 1.12 1.11 1.11 1.14 1.11 1.13 1.14 1.24 1.36 1.39 1.43 1.50 1.55 1.57 1.59 1.62 1.65 1.64 1.61 1.57 1.54 1.51 1.45 1.42
0.71 0.75 0.80 0.88 0.91 0.96 1.02 1.09 1.13 1.16 1.17 1.19 1.18 1.16 1.10 1.02 0.97 0.92 0.88 0.89 0.89 0.91 0.97 1.03 1.06 1.08 1.08 1.09 1.11 1.13 1.14 1.16 1.18 1.18 1.19 1.19 1.20 1.20 1.19 1.17 1.15 1.14 1.15 1.17 1.19 1.21 1.26 1.33 1.37 1.40 1.46 1.53 1.55 1.58 1.60 1.63 1.64 1.60 1.55 1.52 1.48 1.45 1.41
0.70 0.73 0.78 0.82 0.84 0.87 0.93 1.03 1.10 1.14 1.17 1.19 1.21 1.20 1.16 1.12 1.08 1.00 0.96 0.92 0.90 0.93 0.99 1.04 1.06 1.08 1.11 1.12 1.13 1.13 1.16 1.19 1.19 1.19 1.15 1.13 1.14 1.19 1.24 1.24 1.22 1.19 1.20 1.23 1.23 1.23 1.27 1.31 1.36 1.40 1.45 1.49 1.51 1.54 1.57 1.60 1.62 1.61 1.56 1.52 1.49 1.44 1.40
0.68 0.71 0.74 0.76 0.77 0.81 0.86 0.91 1.00 1.08 1.15 1.19 1.20 1.21 1.21 1.19 1.19 1.16 1.11 1.03 0.96 0.95 0.96 1.01 1.06 1.08 1.11 1.12 1.13 1.16 1.18 1.21 1.21 1.19 1.19 1.20 1.19 1.23 1.25 1.25 1.25 1.25 1.22 1.20 1.24 1.25 1.26 1.29 1.33 1.38 1.44 1.47 1.48 1.52 1.54 1.55 1.58 1.58 1.56 1.52 1.48 1.47 1.44
0.68 0.71 0.74 0.75 0.77 0.84 0.89 0.93 0.95 0.99 1.05 1.11 1.18 1.22 1.24 1.26 1.27 1.25 1.23 1.21 1.15 1.06 1.04 1.06 1.11 1.14 1.17 1.19 1.18 1.19 1.19 1.20 1.23 1.24 1.24 1.24 1.25 1.25 1.22 1.21 1.22 1.22 1.23 1.27 1.28 1.26 1.24 1.25 1.29 1.34 1.40 1.46 1.47 1.49 1.50 1.53 1.53 1.55 1.53 1.51 1.46 1.47 1.44
0.64 0.67 0.68 0.70 0.73 0.79 0.83 0.87 0.92 0.97 1.02 1.08 1.12 1.17 1.22 1.27 1.31 1.29 1.26 1.26 1.26 1.27 1.28 1.26 1.21 1.20 1.17 1.18 1.19 1.19 1.23 1.24 1.26 1.27 1.26 1.25 1.24 1.21 1.19 1.20 1.22 1.23 1.24 1.25 1.29 1.28 1.28 1.25 1.25 1.28 1.33 1.42 1.45 1.45 1.47 1.48 1.49 1.50 1.49 1.50 1.47 1.45 1.42
0.59 0.63 0.65 0.68 0.71 0.73 0.77 0.81 0.87 0.95 1.02 1.07 1.13 1.19 1.22 1.26 1.28 1.31 1.33 1.28 1.27 1.29 1.35 1.35 1.35 1.32 1.26 1.23 1.21 1.20 1.17 1.19 1.22 1.22 1.25 1.25 1.25 1.22 1.20 1.21 1.23 1.24 1.26 1.31 1.29 1.29 1.27 1.24 1.23 1.26 1.30 1.37 1.43 1.42 1.43 1.44 1.44 1.46 1.46 1.46 1.44 1.44 1.42
0.54 0.58 0.63 0.66 0.69 0.73 0.78 0.82 0.87 0.93 1.02 1.09 1.12 1.15 1.19 1.24 1.29 1.33 1.36 1.34 1.29 1.31 1.35 1.39 1.43 1.45 1.43 1.41 1.36 1.28 1.21 1.21 1.23 1.23 1.24 1.23 1.24 1.22 1.23 1.23 1.23 1.26 1.31 1.28 1.30 1.31 1.27 1.25 1.25 1.26 1.28 1.33 1.39 1.42 1.43 1.44 1.44 1.43 1.43 1.40 1.39 1.40 1.42
0.50 0.58 0.63 0.66 0.69 0.73 0.78 0.82 0.84 0.90 0.97 1.03 1.07 1.10 1.15 1.22 1.26 1.29 1.33 1.36 1.36 1.32 1.31 1.37 1.42 1.48 1.52 1.52 1.51 1.47 1.42 1.35 1.29 1.26 1.24 1.23 1.24 1.24 1.26 1.28 1.28 1.31 1.28 1.28 1.30 1.32 1.28 1.25 1.24 1.25 1.27 1.29 1.36 1.39 1.41 1.42 1.43 1.43 1.40 1.38 1.37 1.36 1.36
0.45 0.51 0.59 0.66 0.71 0.73 0.76 0.82 0.89 0.92 0.96 1.02 1.07 1.13 1.16 1.21 1.26 1.31 1.34 1.36 1.37 1.33 1.31 1.37 1.44 1.49 1.51 1.52 1.54 1.56 1.56 1.50 1.45 1.38 1.31 1.25 1.26 1.26 1.28 1.30 1.31 1.33 1.31 1.32 1.33 1.29 1.27 1.27 1.25 1.26 1.26 1.26 1.31 1.36 1.38 1.40 1.42 1.42 1.40 1.38 1.36 1.35 1.33
0.41 0.46 0.51 0.57 0.62 0.67 0.72 0.75 0.79 0.83 0.89 0.96 1.05 1.13 1.19 1.23 1.26 1.30 1.32 1.35 1.35 1.33 1.36 1.40 1.46 1.48 1.49 1.50 1.50 1.53 1.53 1.51 1.51 1.44 1.40 1.36 1.36 1.34 1.35 1.34 1.34 1.35 1.33 1.35 1.33 1.31 1.28 1.26 1.27 1.25 1.25 1.23 1.26 1.32 1.35 1.38 1.41 1.40 1.38 1.38 1.39 1.37 1.35
0.35 0.41 0.43 0.47 0.53 0.60 0.62 0.65 0.70 0.75 0.81 0.90 1.00 1.07 1.14 1.21 1.25 1.29 1.32 1.34 1.35 1.33 1.36 1.40 1.45 1.47 1.48 1.49 1.48 1.48 1.47 1.48 1.48 1.46 1.45 1.45 1.45 1.44 1.44 1.43 1.42 1.40 1.38 1.35 1.30 1.31 1.29 1.23 1.22 1.21 1.21 1.24 1.26 1.30 1.35 1.38 1.41 1.40 1.38 1.37 1.37 1.36 1.37
0.29 0.33 0.38 0.42 0.48 0.54 0.60 0.63 0.65 0.69 0.74 0.82 0.92 1.02 1.09 1.15 1.21 1.26 1.29 1.31 1.34 1.36 1.37 1.40 1.44 1.46 1.46 1.46 1.47 1.46 1.43 1.44 1.43 1.46 1.49 1.51 1.51 1.53 1.52 1.49 1.49 1.48 1.44 1.41 1.35 1.31 1.27 1.24 1.20 1.22 1.23 1.25 1.27 1.28 1.32 1.37 1.40 1.40 1.40 1.38 1.36 1.34 1.34
0.31 0.31 0.32 0.37 0.42 0.47 0.50 0.54 0.60 0.65 0.69 0.75 0.84 0.93 1.01 1.10 1.16 1.21 1.24 1.26 1.31 1.34 1.36 1.39 1.41 1.41 1.42 1.43 1.43 1.44 1.43 1.42 1.45 1.47 1.50 1.54 1.57 1.57 1.56 1.56 1.55 1.54 1.54 1.50 1.41 1.35 1.30 1.25 1.21 1.23 1.25 1.27 1.28 1.29 1.33 1.37 1.39 1.40 1.40 1.39 1.35 1.32 1.32
0.27 0.27 0.29 0.31 0.36 0.41 0.45 0.48 0.54 0.60 0.65 0.69 0.79 0.88 0.93 1.01 1.08 1.15 1.20 1.24 1.27 1.28 1.28 1.34 1.35 1.36 1.37 1.39 1.37 1.38 1.43 1.47 1.49 1.51 1.52 1.54 1.56 1.57 1.57 1.57 1.58 1.59 1.57 1.53 1.46 1.41 1.36 1.33 1.28 1.24 1.23 1.27 1.29 1.29 1.31 1.32 1.36 1.39 1.38 1.37 1.35 1.33 1.31
0.25 0.27 0.29 0.32 0.35 0.40 0.44 0.48 0.51 0.56 0.62 0.67 0.72 0.81 0.91 0.96 1.00 1.06 1.09 1.14 1.19 1.20 1.25 1.32 1.31 1.30 1.32 1.32 1.32 1.38 1.45 1.49 1.50 1.51 1.52 1.51 1.51 1.54 1.58 1.59 1.60 1.59 1.57 1.55 1.51 1.46 1.40 1.36 1.31 1.25 1.22 1.23 1.25 1.27 1.28 1.28 1.34 1.37 1.37 1.36 1.33 1.32 1.32
0.26 0.27 0.27 0.29 0.31 0.35 0.41 0.46 0.51 0.57 0.62 0.66 0.68 0.73 0.81 0.90 0.96 1.02 1.06 1.11 1.14 1.17 1.23 1.26 1.25 1.25 1.27 1.26 1.32 1.39 1.42 1.44 1.46 1.49 1.48 1.49 1.52 1.54 1.57 1.59 1.61 1.59 1.58 1.57 1.54 1.49 1.43 1.37 1.30 1.24 1.22 1.21 1.21 1.22 1.23 1.25 1.30 1.34 1.38 1.38 1.36 1.36 1.34
0.26 0.27 0.28 0.30 0.34 0.36 0.38 0.41 0.46 0.52 0.58 0.64 0.68 0.73 0.78 0.83 0.92 0.99 1.01 1.06 1.09 1.13 1.19 1.21 1.22 1.21 1.23 1.26 1.33 1.36 1.38 1.41 1.44 1.45 1.45 1.49 1.49 1.52 1.56 1.60 1.60 1.58 1.57 1.56 1.54 1.52 1.48 1.39 1.33 1.28 1.23 1.20 1.20 1.20 1.20 1.23 1.27 1.30 1.35 1.38 1.37 1.37 1.38
0.28 0.29 0.30 0.32 0.34 0.37 0.38 0.40 0.43 0.49 0.56 0.64 0.67 0.70 0.75 0.81 0.88 0.93 0.99 1.03 1.07 1.14 1.17 1.18 1.18 1.19 1.21 1.27 1.30 1.33 1.37 1.42 1.42 1.42 1.44 1.46 1.49 1.54 1.57 1.58 1.58 1.57 1.56 1.55 1.57 1.55 1.46 1.41 1.37 1.30 1.27 1.21 1.16 1.15 1.20 1.22 1.24 1.27 1.32 1.35 1.36 1.37 1.41
0.31 0.32 0.34 0.35 0.37 0.38 0.40 0.44 0.47 0.50 0.56 0.62 0.69 0.72 0.78 0.86 0.87 0.92 1.01 1.08 1.17 1.18 1.19 1.21 1.20 1.21 1.23 1.28 1.29 1.33 1.37 1.39 1.39 1.39 1.41 1.46 1.49 1.52 1.53 1.53 1.52 1.55 1.59 1.61 1.61 1.55 1.49 1.45 1.38 1.33 1.28 1.23 1.19 1.17 1.18 1.21 1.23 1.25 1.29 1.32 1.34 1.38 1.43
0.36 0.37 0.38 0.39 0.39 0.40 0.43 0.45 0.48 0.52 0.55 0.61 0.70 0.77 0.81 0.85 0.87 0.93 1.01 1.06 1.08 1.13 1.17 1.21 1.22 1.26 1.30 1.31 1.34 1.37 1.37 1.37 1.37 1.37 1.42 1.45 1.47 1.48 1.48 1.49 1.52 1.55 1.58 1.59 1.57 1.54 1.51 1.48 1.41 1.37 1.32 1.28 1.24 1.19 1.17 1.23 1.26 1.25 1.28 1.31 1.34 1.39 1.45
0.42 0.43 0.41 0.44 0.43 0.45 0.47 0.49 0.49 0.50 0.55 0.67 0.73 0.75 0.79 0.84 0.89 0.90 0.93 1.02 1.06 1.10 1.14 1.18 1.21 1.25 1.31 1.33 1.36 1.38 1.39 1.39 1.38 1.40 1.43 1.45 1.47 1.46 1.46 1.48 1.50 1.51 1.58 1.59 1.60 1.62 1.63 1.62 1.55 1.42 1.33 1.31 1.28 1.22 1.20 1.24 1.25 1.23 1.26 1.30 1.34 1.42 1.48
0.52 0.51 0.51 0.52 0.53 0.52 0.57 0.60 0.58 0.59 0.66 0.72 0.74 0.73 0.75 0.84 0.90 0.91 0.93 0.95 1.02 1.08 1.11 1.15 1.15 1.18 1.22 1.26 1.31 1.35 1.38 1.40 1.41 1.42 1.44 1.48 1.48 1.48 1.49 1.50 1.54 1.58 1.64 1.58 1.57 1.57 1.59 1.57 1.56 1.56 1.48 1.41 1.34 1.27 1.25 1.25 1.24 1.22 1.24 1.30 1.36 1.42 1.47
0.64 0.63 0.62 0.61 0.62 0.61 0.63 0.66 0.67 0.68 0.72 0.75 0.75 0.77 0.80 0.84 0.89 0.91 0.93 0.95 1.01 1.05 1.07 1.09 1.10 1.16 1.18 1.19 1.23 1.27 1.34 1.39 1.41 1.42 1.45 1.49 1.46 1.47 1.51 1.56 1.61 1.61 1.64 1.55 1.52 1.54 1.58 1.64 1.64 1.65 1.63 1.52 1.40 1.34 1.29 1.30 1.30 1.27 1.28 1.32 1.36 1.39 1.43
0.70 0.71 0.72 0.70 0.65 0.61 0.64 0.68 0.68 0.69 0.74 0.78 0.75 0.80 0.84 0.85 0.87 0.88 0.88 0.94 0.98 1.04 1.07 1.07 1.10 1.15 1.16 1.18 1.25 1.31 1.36 1.41 1.44 1.45 1.45 1.44 1.44 1.48 1.49 1.53 1.57 1.63 1.67 1.63 1.62 1.60 1.65 1.70 1.66 1.65 1.66 1.62 1.55 1.50 1.40 1.36 1.35 1.32 1.32 1.35 1.37 1.40 1.44
0.75 0.78 0.78 0.79 0.77 0.76 0.74 0.74 0.72 0.69 0.71 0.72 0.77 0.85 0.88 0.88 0.88 0.87 0.89 0.93 0.97 0.98 0.99 1.03 1.11 1.19 1.25 1.30 1.35 1.38 1.40 1.43 1.43 1.44 1.43 1.40 1.42 1.47 1.50 1.57 1.62 1.61 1.60 1.62 1.65 1.65 1.68 1.66 1.67 1.63 1.60 1.65 1.67 1.63 1.53 1.44 1.43 1.37 1.35 1.38 1.39 1.41 1.45
0.89 0.89 0.85 0.83 0.82 0.85 0.80 0.77 0.76 0.75 0.77 0.81 0.81 0.82 0.88 0.92 0.91 0.90 0.93 0.97 0.96 0.95 1.01 1.12 1.21 1.27 1.32 1.36 1.38 1.42 1.46 1.50 1.50 1.47 1.45 1.43 1.44 1.49 1.53 1.56 1.54 1.58 1.61 1.60 1.63 1.64 1.66 1.66 1.65 1.63 1.64 1.67 1.68 1.70 1.65 1.56 1.46 1.40 1.37 1.37 1.40 1.44 1.48
0.94 0.97 0.97 0.98 0.95 0.90 0.84 0.80 0.78 0.80 0.83 0.87 0.88 0.88 0.90 0.91 0.92 0.95 0.98 0.99 0.99 1.05 1.13 1.14 1.16 1.23 1.29 1.34 1.38 1.43 1.49 1.51 1.52 1.51 1.50 1.51 1.52 1.50 1.50 1.57 1.61 1.61 1.60 1.61 1.61 1.60 1.59 1.64 1.65 1.63 1.64 1.69 1.71 1.69 1.69 1.68 1.59 1.47 1.42 1.41 1.42 1.44 1.48
0.89 0.91 0.93 0.95 0.95 0.95 0.90 0.81 0.79 0.79 0.82 0.88 0.91 0.94 0.96 0.93 0.91 0.94 0.98 1.02 1.10 1.18 1.20 1.20 1.21 1.24 1.28 1.31 1.34 1.38 1.41 1.46 1.47 1.46 1.51 1.52 1.54 1.52 1.50 1.57 1.58 1.59 1.60 1.59 1.57 1.56 1.56 1.58 1.58 1.61 1.62 1.65 1.70 1.72 1.70 1.72 1.72 1.63 1.57 1.51 1.47 1.44 1.45
0.93 0.95 0.96 1.00 1.00 0.98 0.96 0.87 0.86 0.85 0.89 0.92 0.94 0.97 1.01 0.99 0.93 0.94 0.94 0.97 1.16 1.23 1.26 1.26 1.27 1.28 1.28 1.29 1.32 1.35 1.37 1.39 1.42 1.46 1.50 1.52 1.53 1.53 1.52 1.54 1.55 1.56 1.55 1.55 1.53 1.51 1.51 1.52 1.58 1.61 1.58 1.57 1.63 1.70 1.74 1.81 1.78 1.71 1.73 1.71 1.66 1.57 1.50
0.91 0.92 0.94 0.94 0.95 0.98 0.97 0.91 0.88 0.89 0.91 0.98 1.00 1.04 1.06 1.06 0.98 0.95 0.92 1.03 1.12 1.13 1.15 1.18 1.23 1.27 1.26 1.27 1.30 1.33 1.37 1.40 1.42 1.45 1.48 1.51 1.53 1.50 1.52 1.53 1.55 1.50 1.52 1.51 1.50 1.49 1.47 1.52 1.59 1.58 1.58 1.59 1.59 1.63 1.74 1.83 1.82 1.73 1.74 1.76 1.81 1.83 1.80
0.94 0.95 0.96 0.96 0.96 0.96 0.95 0.94 0.93 0.92 0.89 0.96 1.05 1.09 1.14 1.14 1.11 0.99 1.03 1.14 1.16 1.17 1.17 1.15 1.14 1.15 1.21 1.29 1.33 1.34 1.37 1.36 1.39 1.43 1.46 1.50 1.52 1.51 1.52 1.50 1.51 1.46 1.46 1.46 1.44 1.47 1.49 1.48 1.52 1.54 1.55 1.56 1.59 1.63 1.68 1.77 1.75 1.74 1.77 1.81 1.86 1.91 1.94
0.91 0.92 0.91 0.90 0.95 0.98 0.96 0.92 0.88 0.87 0.88 0.87 0.99 1.06 1.11 1.15 1.17 1.18 1.20 1.21 1.26 1.27 1.26 1.22 1.17 1.15 1.19 1.23 1.29 1.34 1.37 1.37 1.39 1.42 1.47 1.51 1.53 1.55 1.57 1.59 1.57 1.53 1.48 1.44 1.42 1.43 1.46 1.47 1.49 1.49 1.51 1.52 1.56 1.65 1.72 1.73 1.70 1.68 1.70 1.73 1.78 1.82 1.87
0.93 0.93 0.97 0.99 1.00 1.01 0.98 0.94 0.88 0.87 0.87 0.87 0.93 0.98 1.03 1.07 1.12 1.17 1.21 1.22 1.26 1.28 1.28 1.25 1.23 1.21 1.21 1.23 1.28 1.34 1.38 1.37 1.38 1.40 1.43 1.48 1.51 1.51 1.53 1.56 1.57 1.55 1.51 1.49 1.49 1.48 1.47 1.48 1.48 1.45 1.45 1.46 1.52 1.63 1.67 1.70 1.70 1.67 1.64 1.65 1.68 1.72 1.78
0.99 0.98 1.00 1.00 1.03 1.05 0.99 0.97 0.92 0.90 0.88 0.89 0.96 0.98 0.99 1.01 1.07 1.11 1.12 1.13 1.14 1.15 1.13 1.16 1.21 1.23 1.24 1.27 1.28 1.27 1.31 1.32 1.33 1.34 1.34 1.37 1.43 1.48 1.53 1.53 1.55 1.55 1.57 1.65 1.65 1.59 1.51 1.50 1.51 1.53 1.58 1.59 1.62 1.61 1.57 1.55 1.46 1.45 1.61 1.66 1.70 1.80 1.85
1.06 1.04 1.03 1.06 1.08 1.09 1.06 1.03 0.98 0.92 0.89 0.91 0.97 0.98 0.98 1.00 1.03 1.07 1.08 1.08 1.09 1.11 1.07 1.06 1.08 1.10 1.14 1.20 1.24 1.28 1.30 1.31 1.32 1.33 1.33 1.33 1.33 1.35 1.41 1.54 1.57 1.59 1.57 1.60 1.74 1.76 1.75 1.72 1.64 1.67 1.73 1.73 1.74 1.70 1.59 1.55 1.61 1.76 1.79 1.73 1.72 1.74 1.78
1.10 1.08 1.07 1.09 1.06 1.05 1.05 1.05 1.04 0.99 0.95 0.96 0.98 0.98 0.98 0.98 1.01 1.02 1.04 1.05 1.06 1.05 1.03 1.04 1.01 1.01 1.02 1.04 1.05 1.08 1.13 1.17 1.21 1.27 1.31 1.34 1.34 1.35 1.33 1.35 1.43 1.50 1.54 1.57 1.61 1.65 1.66 1.67 1.68 1.71 1.75 1.77 1.71 1.77 1.82 1.83 1.84 1.81 1.81 1.84 1.86 1.87 1.91
1.18 1.16 1.13 1.11 1.07 1.08 1.08 1.08 1.07 1.06 1.05 1.07 1.06 1.02 1.01 1.00 1.02 1.05 1.08 1.11 1.12 1.13 1.09 1.06 1.01 0.96 0.97 0.99 1.00 1.01 1.02 1.04 1.06 1.08 1.10 1.15 1.21 1.25 1.26 1.26 1.25 1.33 1.43 1.45 1.46 1.49 1.53 1.56 1.59 1.63 1.67 1.70 1.73 1.74 1.77 1.82 1.82 1.80 1.80 1.81 1.85 1.95 2.04

ECMWFFLT1_prec_pwat_024.txt.gz
Precipitable_Water
0.76 0.79 0.84 0.90 0.91 0.93 0.97 1.06 1.11 1.16 1.19 1.21 1.23 1.18 1.10 1.01 0.95 0.96 0.97 0.99 0.99 1.03 1.10 1.13 1.12 1.13 1.13 1.16 1.17 1.16 1.19 1.17 1.15 1.13 1.13 1.13 1.13 1.14 1.13 1.13 1.12 1.12 1.14 1.12 1.14 1.11 1.17 1.27 1.33 1.40 1.46 1.51 1.52 1.54 1.56 1.59 1.60 1.61 1.60 1.60 1.55 1.54 1.54
0.74 0.75 0.80 0.85 0.86 0.90 0.98 1.05 1.11 1.15 1.18 1.22 1.24 1.26 1.20 1.10 1.01 0.94 0.91 0.92 0.93 0.94 1.00 1.05 1.07 1.08 1.10 1.11 1.14 1.15 1.12 1.14 1.13 1.14 1.19 1.17 1.15 1.16 1.17 1.17 1.14 1.13 1.13 1.15 1.18 1.20 1.19 1.25 1.28 1.33 1.39 1.46 1.49 1.54 1.57 1.59 1.60 1.61 1.59 1.58 1.52 1.52 1.51
0.74 0.73 0.76 0.81 0.85 0.88 0.94 1.05 1.10 1.12 1.15 1.17 1.22 1.26 1.23 1.18 1.11 0.99 0.92 0.88 0.88 0.92 0.98 0.99 1.01 1.03 1.05 1.08 1.12 1.10 1.09 1.15 1.13 1.15 1.15 1.11 1.09 1.13 1.19 1.20 1.20 1.17 1.17 1.20 1.19 1.20 1.23 1.22 1.26 1.29 1.34 1.37 1.44 1.51 1.56 1.59 1.59 1.59 1.60 1.57 1.49 1.46 1.48
0.73 0.72 0.74 0.79 0.83 0.90 0.93 0.95 1.03 1.08 1.15 1.18 1.18 1.20 1.25 1.27 1.25 1.15 1.01 0.90 0.85 0.86 0.88 0.93 0.97 0.99 1.03 1.04 1.06 1.07 1.09 1.12 1.12 1.17 1.18 1.14 1.16 1.21 1.20 1.20 1.22 1.23 1.21 1.19 1.23 1.23 1.25 1.26 1.25 1.27 1.30 1.33 1.38 1.47 1.54 1.56 1.59 1.59 1.60 1.59 1.49 1.45 1.46
0.69 0.72 0.76 0.81 0.85 0.89 0.92 0.92 0.92 0.97 1.01 1.09 1.16 1.21 1.24 1.30 1.33 1.29 1.18 1.05 0.94 0.85 0.84 0.87 0.93 0.98 1.02 1.04 1.04 1.06 1.06 1.06 1.09 1.18 1.19 1.18 1.22 1.25 1.21 1.19 1.21 1.21 1.22 1.26 1.29 1.26 1.25 1.25 1.24 1.25 1.29 1.31 1.36 1.42 1.48 1.56 1.56 1.58 1.58 1.60 1.51 1.43 1.41
0.65 0.68 0.72 0.76 0.81 0.85 0.85 0.84 0.86 0.89 0.94 1.03 1.12 1.18 1.24 1.30 1.34 1.31 1.29 1.20 1.08 1.04 1.01 1.01 1.00 1.01 0.99 1.01 1.04 1.05 1.08 1.11 1.13 1.17 1.19 1.21 1.22 1.22 1.21 1.22 1.23 1.24 1.25 1.26 1.31 1.30 1.30 1.26 1.23 1.25 1.25 1.30 1.33 1.37 1.44 1.49 1.54 1.55 1.54 1.57 1.55 1.45 1.37
0.65 0.69 0.69 0.73 0.78 0.80 0.81 0.83 0.88 0.92 0.98 1.03 1.13 1.24 1.29 1.31 1.30 1.33 1.36 1.31 1.25 1.16 1.10 1.05 1.04 1.06 1.05 1.06 1.07 1.08 1.07 1.09 1.13 1.14 1.18 1.20 1.23 1.22 1.23 1.27 1.27 1.28 1.29 1.34 1.30 1.31 1.30 1.28 1.25 1.26 1.26 1.27 1.31 1.34 1.38 1.43 1.48 1.53 1.51 1.52 1.54 1.47 1.39
0.62 0.71 0.72 0.73 0.76 0.78 0.80 0.85 0.89 0.93 0.98 1.01 1.06 1.12 1.15 1.20 1.26 1.30 1.31 1.33 1.33 1.31 1.23 1.13 1.13 1.15 1.15 1.14 1.12 1.09 1.10 1.11 1.15 1.16 1.18 1.18 1.22 1.22 1.23 1.25 1.26 1.28 1.31 1.28 1.30 1.32 1.29 1.30 1.31 1.30 1.29 1.27 1.29 1.32 1.37 1.40 1.45 1.48 1.47 1.45 1.50 1.45 1.42
0.64 0.77 0.78 0.77 0.80 0.83 0.88 0.92 0.93 0.93 0.91 0.92 0.95 1.01 1.10 1.17 1.19 1.21 1.26 1.32 1.35 1.32 1.29 1.27 1.22 1.22 1.24 1.24 1.21 1.18 1.19 1.17 1.17 1.16 1.16 1.16 1.18 1.18 1.20 1.24 1.27 1.31 1.27 1.26 1.27 1.30 1.30 1.31 1.34 1.34 1.33 1.29 1.28 1.30 1.33 1.38 1.42 1.45 1.44 1.43 1.45 1.42 1.38
0.68 0.78 0.77 0.76 0.78 0.80 0.85 0.88 0.93 0.90 0.88 0.91 0.95 0.99 1.05 1.11 1.15 1.19 1.21 1.25 1.30 1.31 1.32 1.35 1.36 1.35 1.32 1.30 1.28 1.29 1.29 1.27 1.24 1.21 1.19 1.15 1.16 1.15 1.17 1.22 1.26 1.29 1.26 1.25 1.27 1.27 1.30 1.32 1.35 1.38 1.35 1.31 1.29 1.29 1.29 1.33 1.38 1.43 1.43 1.41 1.42 1.40 1.37
0.58 0.65 0.69 0.71 0.72 0.73 0.76 0.78 0.80 0.80 0.85 0.89 0.92 0.97 1.02 1.08 1.12 1.15 1.19 1.23 1.24 1.28 1.37 1.41 1.42 1.40 1.39 1.37 1.36 1.37 1.35 1.33 1.32 1.28 1.24 1.19 1.16 1.14 1.17 1.20 1.23 1.25 1.21 1.20 1.20 1.23 1.29 1.30 1.34 1.35 1.35 1.30 1.27 1.26 1.25 1.27 1.33 1.36 1.39 1.41 1.41 1.40 1.39
0.52 0.53 0.59 0.66 0.70 0.70 0.70 0.74 0.80 0.82 0.84 0.88 0.92 0.95 1.00 1.06 1.12 1.16 1.21 1.25 1.29 1.32 1.39 1.44 1.45 1.42 1.39 1.40 1.40 1.42 1.43 1.45 1.45 1.41 1.36 1.31 1.24 1.21 1.20 1.20 1.21 1.22 1.24 1.21 1.19 1.22 1.25 1.27 1.27 1.29 1.29 1.30 1.29 1.27 1.25 1.26 1.29 1.32 1.34 1.37 1.39 1.39 1.39
0.42 0.48 0.52 0.54 0.58 0.62 0.67 0.71 0.74 0.81 0.86 0.89 0.91 0.95 1.00 1.05 1.10 1.15 1.20 1.26 1.33 1.39 1.43 1.47 1.48 1.47 1.42 1.40 1.40 1.41 1.43 1.47 1.48 1.48 1.49 1.47 1.43 1.41 1.39 1.34 1.30 1.27 1.26 1.28 1.26 1.25 1.25 1.27 1.27 1.27 1.27 1.29 1.30 1.28 1.27 1.26 1.27 1.29 1.31 1.33 1.36 1.37 1.37
0.35 0.42 0.48 0.51 0.54 0.56 0.59 0.63 0.69 0.75 0.82 0.87 0.92 0.96 0.99 1.06 1.11 1.14 1.20 1.26 1.33 1.39 1.43 1.48 1.49 1.48 1.43 1.41 1.41 1.40 1.41 1.46 1.50 1.51 1.50 1.51 1.51 1.49 1.47 1.46 1.44 1.41 1.41 1.41 1.35 1.32 1.32 1.31 1.30 1.30 1.30 1.31 1.31 1.30 1.30 1.27 1.25 1.27 1.29 1.29 1.31 1.34 1.37
0.33 0.33 0.38 0.51 0.50 0.55 0.59 0.62 0.64 0.66 0.72 0.78 0.82 0.85 0.88 0.96 1.07 1.14 1.19 1.25 1.32 1.36 1.40 1.46 1.46 1.46 1.43 1.40 1.38 1.39 1.44 1.50 1.54 1.56 1.54 1.51 1.50 1.47 1.49 1.50 1.50 1.50 1.51 1.50 1.49 1.48 1.45 1.44 1.42 1.38 1.34 1.34 1.33 1.31 1.32 1.29 1.26 1.27 1.27 1.24 1.25 1.30 1.33
0.29 0.28 0.28 0.34 0.49 0.56 0.55 0.56 0.59 0.60 0.63 0.67 0.71 0.75 0.81 0.87 0.98 1.07 1.12 1.19 1.27 1.32 1.38 1.44 1.44 1.43 1.41 1.38 1.37 1.43 1.47 1.51 1.53 1.55 1.55 1.52 1.46 1.45 1.48 1.50 1.53 1.54 1.52 1.53 1.55 1.56 1.57 1.56 1.56 1.51 1.44 1.38 1.36 1.34 1.31 1.29 1.30 1.27 1.25 1.24 1.23 1.25 1.31
0.28 0.27 0.28 0.32 0.44 0.39 0.45 0.48 0.51 0.57 0.58 0.60 0.63 0.68 0.77 0.82 0.90 1.01 1.07 1.14 1.19 1.25 1.32 1.38 1.39 1.42 1.41 1.38 1.42 1.46 1.46 1.47 1.49 1.52 1.52 1.50 1.48 1.48 1.49 1.50 1.54 1.55 1.55 1.57 1.60 1.61 1.63 1.63 1.61 1.59 1.59 1.53 1.45 1.38 1.32 1.28 1.27 1.24 1.22 1.21 1.20 1.25 1.29
0.29 0.29 0.29 0.32 0.43 0.44 0.39 0.40 0.43 0.49 0.54 0.56 0.58 0.64 0.71 0.78 0.85 0.94 0.98 1.06 1.12 1.20 1.27 1.28 1.31 1.31 1.32 1.35 1.41 1.42 1.41 1.41 1.44 1.46 1.47 1.51 1.48 1.49 1.52 1.54 1.55 1.55 1.58 1.60 1.60 1.64 1.67 1.64 1.64 1.65 1.65 1.65 1.60 1.51 1.42 1.33 1.25 1.21 1.19 1.18 1.18 1.19 1.25
0.31 0.32 0.31 0.33 0.41 0.43 0.38 0.39 0.44 0.48 0.51 0.58 0.59 0.60 0.66 0.74 0.81 0.86 0.94 1.01 1.12 1.23 1.25 1.23 1.24 1.27 1.31 1.35 1.37 1.38 1.40 1.41 1.38 1.38 1.42 1.44 1.48 1.54 1.57 1.55 1.54 1.55 1.56 1.56 1.62 1.67 1.65 1.66 1.68 1.68 1.69 1.66 1.62 1.58 1.55 1.46 1.34 1.23 1.19 1.18 1.17 1.18 1.21
0.37 0.36 0.35 0.37 0.45 0.44 0.45 0.47 0.45 0.48 0.54 0.57 0.58 0.61 0.67 0.76 0.78 0.84 0.95 1.04 1.13 1.14 1.17 1.18 1.20 1.24 1.28 1.30 1.32 1.35 1.37 1.39 1.39 1.38 1.41 1.47 1.51 1.53 1.53 1.53 1.50 1.53 1.59 1.61 1.65 1.64 1.66 1.69 1.68 1.72 1.72 1.67 1.65 1.62 1.60 1.54 1.46 1.31 1.22 1.20 1.20 1.20 1.22
0.35 0.38 0.42 0.41 0.38 0.39 0.46 0.52 0.54 0.54 0.52 0.53 0.59 0.63 0.66 0.71 0.80 0.92 0.99 1.00 1.01 1.06 1.11 1.17 1.19 1.22 1.27 1.27 1.28 1.32 1.34 1.35 1.36 1.38 1.43 1.48 1.50 1.50 1.50 1.50 1.52 1.54 1.57 1.60 1.60 1.61 1.61 1.68 1.62 1.69 1.72 1.69 1.67 1.64 1.60 1.58 1.53 1.40 1.29 1.23 1.21 1.22 1.24
0.38 0.41 0.44 0.52 0.56 0.57 0.56 0.56 0.59 0.60 0.60 0.64 0.62 0.63 0.67 0.71 0.84 0.89 0.93 1.01 1.00 1.05 1.09 1.14 1.18 1.19 1.25 1.27 1.29 1.30 1.33 1.34 1.36 1.39 1.42 1.45 1.48 1.47 1.45 1.46 1.48 1.48 1.56 1.59 1.63 1.66 1.69 1.70 1.66 1.69 1.70 1.70 1.69 1.63 1.57 1.56 1.56 1.47 1.37 1.28 1.25 1.25 1.25
0.44 0.54 0.61 0.60 0.59 0.60 0.66 0.67 0.64 0.64 0.67 0.67 0.64 0.65 0.67 0.74 0.83 0.88 0.91 0.96 0.99 1.04 1.08 1.12 1.13 1.17 1.21 1.25 1.28 1.30 1.34 1.38 1.38 1.38 1.40 1.43 1.44 1.43 1.43 1.44 1.48 1.54 1.62 1.59 1.60 1.62 1.63 1.59 1.67 1.72 1.69 1.69 1.67 1.64 1.62 1.59 1.58 1.50 1.42 1.33 1.27 1.24 1.22
0.58 0.58 0.60 0.64 0.69 0.69 0.72 0.74 0.74 0.73 0.69 0.66 0.68 0.68 0.71 0.77 0.84 0.87 0.88 0.92 1.00 1.05 1.08 1.09 1.09 1.13 1.19 1.23 1.28 1.34 1.39 1.42 1.41 1.40 1.41 1.42 1.40 1.40 1.44 1.50 1.56 1.58 1.64 1.59 1.57 1.57 1.60 1.66 1.68 1.70 1.72 1.68 1.67 1.67 1.65 1.66 1.65 1.54 1.45 1.41 1.34 1.26 1.21
0.72 0.71 0.72 0.72 0.71 0.71 0.73 0.76 0.75 0.73 0.74 0.72 0.66 0.69 0.73 0.80 0.85 0.86 0.86 0.90 0.96 1.04 1.07 1.05 1.07 1.12 1.17 1.25 1.34 1.38 1.40 1.42 1.42 1.40 1.39 1.37 1.39 1.45 1.48 1.52 1.57 1.64 1.69 1.66 1.65 1.64 1.69 1.72 1.69 1.68 1.70 1.74 1.71 1.71 1.69 1.70 1.71 1.68 1.58 1.47 1.40 1.34 1.31
0.71 0.72 0.75 0.77 0.82 0.82 0.82 0.82 0.79 0.74 0.71 0.70 0.72 0.78 0.77 0.81 0.84 0.84 0.86 0.89 0.93 0.97 1.03 1.07 1.12 1.19 1.24 1.28 1.30 1.34 1.37 1.37 1.35 1.35 1.35 1.35 1.40 1.47 1.50 1.57 1.59 1.61 1.62 1.65 1.67 1.67 1.69 1.69 1.69 1.65 1.68 1.75 1.72 1.69 1.71 1.70 1.73 1.71 1.70 1.66 1.52 1.42 1.39
0.78 0.79 0.78 0.81 0.83 0.85 0.88 0.87 0.83 0.79 0.81 0.85 0.85 0.82 0.84 0.85 0.82 0.82 0.87 0.92 0.91 0.93 1.03 1.15 1.19 1.20 1.22 1.26 1.28 1.31 1.34 1.35 1.36 1.36 1.41 1.45 1.47 1.50 1.53 1.57 1.57 1.60 1.62 1.62 1.65 1.67 1.66 1.65 1.66 1.66 1.67 1.70 1.71 1.71 1.71 1.70 1.69 1.74 1.71 1.70 1.68 1.60 1.47
0.80 0.85 0.91 0.93 0.94 0.92 0.93 0.89 0.86 0.84 0.83 0.86 0.88 0.85 0.87 0.86 0.82 0.83 0.87 0.90 0.93 0.99 1.08 1.15 1.20 1.23 1.25 1.26 1.27 1.30 1.35 1.37 1.41 1.45 1.47 1.50 1.52 1.50 1.51 1.58 1.62 1.63 1.62 1.63 1.63 1.61 1.60 1.63 1.62 1.58 1.61 1.67 1.69 1.69 1.69 1.70 1.68 1.72 1.68 1.67 1.66 1.67 1.65
0.83 0.83 0.85 0.88 0.94 0.98 0.95 0.92 0.86 0.86 0.87 0.90 0.97 0.95 0.90 0.87 0.84 0.84 0.88 0.88 0.98 1.09 1.13 1.17 1.23 1.26 1.27 1.26 1.24 1.27 1.34 1.41 1.42 1.44 1.49 1.50 1.52 1.50 1.49 1.55 1.58 1.60 1.62 1.61 1.58 1.58 1.58 1.59 1.58 1.55 1.54 1.57 1.62 1.64 1.65 1.67 1.68 1.67 1.63 1.64 1.66 1.67 1.68
0.93 0.95 0.92 0.95 0.97 0.98 0.99 0.95 0.93 0.91 0.92 0.95 1.01 1.07 1.03 0.93 0.90 0.91 0.90 0.98 1.11 1.16 1.22 1.26 1.29 1.30 1.29 1.28 1.28 1.29 1.32 1.37 1.39 1.42 1.44 1.48 1.51 1.51 1.51 1.54 1.58 1.60 1.61 1.60 1.57 1.55 1.55 1.55 1.54 1.55 1.52 1.47 1.54 1.59 1.60 1.64 1.67 1.67 1.62 1.60 1.63 1.66 1.68
0.96 0.97 0.97 0.95 0.98 1.03 1.05 1.02 0.98 0.96 0.94 0.97 1.00 1.07 1.11 1.12 1.03 0.99 0.97 1.04 1.13 1.12 1.11 1.15 1.21 1.25 1.25 1.27 1.29 1.30 1.32 1.35 1.39 1.42 1.44 1.48 1.52 1.50 1.52 1.54 1.57 1.54 1.55 1.55 1.54 1.51 1.49 1.49 1.52 1.49 1.50 1.48 1.51 1.53 1.54 1.59 1.63 1.66 1.61 1.58 1.60 1.61 1.65
1.02 1.04 1.06 1.06 1.06 1.09 1.10 1.10 1.07 1.03 0.99 0.99 1.04 1.04 1.07 1.09 1.08 0.98 1.01 1.12 1.16 1.20 1.19 1.17 1.15 1.17 1.20 1.25 1.29 1.32 1.36 1.37 1.41 1.46 1.49 1.50 1.54 1.54 1.55 1.54 1.54 1.51 1.52 1.55 1.50 1.51 1.48 1.46 1.49 1.50 1.50 1.49 1.52 1.52 1.53 1.60 1.64 1.65 1.61 1.59 1.60 1.63 1.64
1.04 1.06 1.06 1.04 1.07 1.11 1.11 1.10 1.07 1.04 1.04 1.01 1.07 1.09 1.10 1.11 1.12 1.13 1.15 1.15 1.21 1.25 1.26 1.21 1.17 1.16 1.19 1.22 1.27 1.32 1.35 1.35 1.38 1.45 1.50 1.53 1.54 1.56 1.58 1.60 1.58 1.57 1.55 1.54 1.50 1.48 1.50 1.51 1.50 1.51 1.52 1.50 1.52 1.54 1.59 1.61 1.62 1.63 1.61 1.59 1.59 1.57 1.58
1.05 1.07 1.10 1.13 1.13 1.11 1.10 1.09 1.07 1.08 1.08 1.07 1.11 1.15 1.16 1.16 1.16 1.20 1.24 1.27 1.30 1.30 1.29 1.25 1.19 1.16 1.17 1.21 1.24 1.26 1.30 1.30 1.33 1.35 1.40 1.46 1.49 1.49 1.51 1.55 1.58 1.57 1.54 1.53 1.53 1.49 1.49 1.50 1.49 1.49 1.50 1.50 1.51 1.53 1.56 1.56 1.57 1.60 1.58 1.50 1.51 1.53 1.61
1.08 1.09 1.12 1.11 1.11 1.11 1.05 1.05 1.04 1.07 1.08 1.09 1.15 1.17 1.18 1.17 1.20 1.23 1.25 1.29 1.33 1.38 1.34 1.30 1.28 1.28 1.25 1.23 1.23 1.21 1.23 1.24 1.28 1.28 1.31 1.39 1.46 1.52 1.55 1.52 1.52 1.54 1.57 1.65 1.68 1.64 1.58 1.57 1.58 1.60 1.63 1.64 1.62 1.59 1.56 1.54 1.53 1.56 1.68 1.65 1.63 1.65 1.63
1.13 1.12 1.12 1.14 1.14 1.11 1.08 1.07 1.05 1.04 1.05 1.08 1.12 1.12 1.12 1.12 1.14 1.18 1.21 1.24 1.26 1.28 1.27 1.29 1.32 1.32 1.31 1.31 1.30 1.28 1.23 1.24 1.24 1.25 1.25 1.28 1.33 1.40 1.49 1.59 1.60 1.61 1.56 1.57 1.67 1.69 1.70 1.66 1.60 1.65 1.70 1.67 1.69 1.72 1.65 1.63 1.72 1.86 1.86 1.80 1.75 1.72 1.72
1.13 1.13 1.13 1.14 1.10 1.09 1.08 1.07 1.07 1.06 1.04 1.06 1.08 1.08 1.08 1.07 1.10 1.13 1.16 1.18 1.20 1.21 1.20 1.21 1.17 1.15 1.15 1.18 1.18 1.21 1.22 1.24 1.25 1.29 1.31 1.32 1.33 1.34 1.32 1.35 1.47 1.54 1.54 1.51 1.51 1.54 1.55 1.55 1.55 1.56 1.57 1.56 1.53 1.64 1.71 1.69 1.71 1.77 1.80 1.80 1.79 1.79 1.82
1.18 1.18 1.18 1.18 1.16 1.15 1.13 1.13 1.12 1.09 1.08 1.11 1.12 1.10 1.10 1.10 1.12 1.14 1.15 1.19 1.20 1.20 1.18 1.14 1.09 1.04 1.03 1.02 1.03 1.03 1.04 1.04 1.04 1.06 1.06 1.10 1.14 1.14 1.13 1.10 1.10 1.21 1.32 1.33 1.35 1.38 1.40 1.41 1.44 1.46 1.48 1.51 1.51 1.49 1.52 1.58 1.62 1.64 1.65 1.65 1.66 1.68 1.75

ECMWFFLT1_prec_pwat_027.txt.gz
Precipitable_Water
0.77 0.94 0.99 1.03 1.03 1.04 1.11 1.20 1.24 1.26 1.28 1.29 1.28 1.24 1.23 1.17 1.08 1.08 1.07 1.08 1.08 1.09 1.13 1.15 1.12 1.15 1.13 1.14 1.16 1.17 1.17 1.15 1.14 1.10 1.08 1.09 1.12 1.14 1.13 1.19 1.22 1.19 1.18 1.17 1.20 1.19 1.22 1.25 1.29 1.35 1.41 1.46 1.46 1.44 1.45 1.52 1.57 1.65 1.66 1.64 1.63 1.60 1.59
0.89 0.95 0.99 1.06 1.03 0.99 1.05 1.17 1.22 1.24 1.29 1.32 1.33 1.32 1.29 1.25 1.18 1.07 1.02 1.03 1.03 1.03 1.08 1.10 1.11 1.11 1.12 1.12 1.13 1.15 1.17 1.14 1.14 1.13 1.12 1.11 1.13 1.14 1.16 1.19 1.20 1.20 1.18 1.17 1.23 1.29 1.27 1.27 1.23 1.27 1.33 1.39 1.42 1.46 1.47 1.52 1.55 1.57 1.61 1.63 1.62 1.60 1.57
0.90 0.80 0.87 0.87 0.93 1.02 0.99 1.08 1.15 1.18 1.21 1.27 1.32 1.32 1.28 1.26 1.24 1.16 1.06 1.00 0.99 1.03 1.06 1.07 1.07 1.08 1.09 1.10 1.12 1.12 1.14 1.14 1.13 1.11 1.06 1.05 1.06 1.07 1.13 1.18 1.20 1.20 1.22 1.22 1.19 1.27 1.33 1.31 1.29 1.24 1.28 1.33 1.39 1.45 1.44 1.48 1.55 1.56 1.56 1.56 1.58 1.58 1.56
0.77 0.74 0.82 0.88 0.97 1.06 1.02 1.03 1.08 1.13 1.21 1.25 1.24 1.26 1.28 1.31 1.34 1.31 1.20 1.05 0.95 0.97 0.98 1.02 1.04 1.05 1.08 1.07 1.07 1.09 1.11 1.13 1.12 1.10 1.08 1.08 1.09 1.11 1.13 1.14 1.17 1.20 1.21 1.20 1.20 1.20 1.29 1.36 1.34 1.30 1.26 1.27 1.32 1.39 1.42 1.42 1.51 1.56 1.57 1.56 1.55 1.58 1.58
0.78 0.83 0.86 0.90 1.01 1.12 1.05 1.03 1.06 1.10 1.13 1.19 1.25 1.30 1.31 1.36 1.41 1.38 1.32 1.21 1.03 0.89 0.91 0.93 0.98 1.00 1.05 1.06 1.05 1.06 1.06 1.07 1.11 1.11 1.10 1.11 1.16 1.17 1.10 1.11 1.14 1.15 1.16 1.21 1.25 1.22 1.21 1.29 1.33 1.35 1.30 1.28 1.29 1.32 1.34 1.39 1.41 1.50 1.55 1.56 1.53 1.55 1.55
0.65 0.76 0.83 0.84 0.81 0.95 1.10 1.02 1.03 1.07 1.13 1.18 1.23 1.28 1.33 1.35 1.38 1.36 1.35 1.29 1.19 1.03 0.94 0.95 0.96 1.00 0.98 0.99 0.99 1.00 1.04 1.08 1.09 1.10 1.08 1.11 1.13 1.12 1.11 1.10 1.14 1.16 1.16 1.16 1.25 1.25 1.24 1.23 1.28 1.34 1.35 1.34 1.29 1.26 1.33 1.36 1.37 1.43 1.48 1.53 1.54 1.54 1.49
0.64 0.73 0.78 0.83 0.91 0.90 1.06 1.02 1.02 1.08 1.09 1.14 1.24 1.32 1.35 1.35 1.32 1.32 1.36 1.31 1.26 1.13 1.00 0.93 0.94 0.96 0.93 0.97 0.99 0.99 0.99 1.00 1.04 1.06 1.11 1.12 1.13 1.14 1.16 1.18 1.18 1.21 1.20 1.22 1.21 1.26 1.27 1.26 1.25 1.32 1.37 1.37 1.36 1.28 1.27 1.29 1.34 1.39 1.45 1.49 1.51 1.54 1.50
0.72 0.80 0.77 0.80 0.92 1.08 1.11 1.03 1.04 1.08 1.13 1.16 1.19 1.22 1.22 1.29 1.35 1.35 1.31 1.32 1.30 1.26 1.13 0.98 0.94 0.92 0.92 0.96 0.98 0.97 0.98 1.00 1.06 1.09 1.13 1.11 1.15 1.15 1.18 1.20 1.23 1.23 1.25 1.19 1.20 1.23 1.27 1.29 1.31 1.33 1.36 1.37 1.39 1.33 1.31 1.31 1.31 1.38 1.39 1.44 1.48 1.50 1.53
0.68 0.73 0.77 0.83 0.91 0.92 0.85 1.15 1.13 1.10 1.10 1.08 1.11 1.18 1.24 1.29 1.30 1.28 1.29 1.34 1.35 1.29 1.25 1.16 1.05 1.00 0.99 0.96 0.97 0.97 1.00 1.02 1.06 1.10 1.11 1.11 1.13 1.15 1.17 1.22 1.25 1.28 1.22 1.19 1.20 1.26 1.27 1.32 1.36 1.36 1.36 1.35 1.37 1.37 1.31 1.32 1.30 1.34 1.36 1.37 1.44 1.46 1.47
0.63 0.68 0.76 0.78 0.84 0.90 1.01 1.14 1.19 1.11 1.10 1.09 1.10 1.15 1.20 1.19 1.25 1.31 1.33 1.33 1.34 1.31 1.31 1.31 1.26 1.20 1.12 1.04 1.00 0.99 1.00 1.00 1.03 1.07 1.08 1.08 1.10 1.12 1.14 1.18 1.23 1.26 1.20 1.19 1.21 1.26 1.32 1.35 1.39 1.41 1.38 1.34 1.34 1.35 1.32 1.29 1.29 1.28 1.30 1.32 1.37 1.45 1.45
0.70 0.78 0.88 0.92 0.95 0.95 0.98 1.02 1.11 1.03 1.00 1.00 1.02 1.06 1.13 1.17 1.19 1.26 1.31 1.33 1.32 1.32 1.38 1.40 1.40 1.37 1.29 1.15 1.06 1.08 1.08 1.06 1.07 1.07 1.08 1.07 1.09 1.11 1.12 1.14 1.17 1.22 1.17 1.17 1.15 1.19 1.28 1.30 1.35 1.38 1.38 1.34 1.32 1.32 1.31 1.29 1.27 1.26 1.25 1.28 1.33 1.38 1.44
0.82 0.90 0.85 0.79 0.79 0.80 0.83 0.88 0.99 0.97 0.96 1.01 1.04 1.04 1.08 1.17 1.22 1.24 1.29 1.33 1.35 1.36 1.39 1.42 1.43 1.41 1.41 1.34 1.19 1.12 1.12 1.14 1.13 1.13 1.14 1.14 1.13 1.14 1.14 1.14 1.13 1.18 1.20 1.16 1.12 1.12 1.18 1.26 1.26 1.28 1.31 1.30 1.30 1.30 1.31 1.32 1.30 1.26 1.24 1.23 1.27 1.33 1.39
0.64 0.69 0.72 0.73 0.76 0.79 0.82 0.86 0.91 0.98 0.99 1.04 1.08 1.06 1.07 1.12 1.18 1.22 1.25 1.29 1.36 1.41 1.42 1.43 1.44 1.43 1.44 1.43 1.36 1.26 1.19 1.18 1.17 1.21 1.24 1.24 1.21 1.21 1.23 1.20 1.18 1.18 1.21 1.23 1.18 1.15 1.13 1.22 1.25 1.25 1.28 1.29 1.27 1.25 1.27 1.29 1.29 1.29 1.27 1.23 1.23 1.26 1.30
0.53 0.64 0.65 0.71 0.74 0.77 0.78 0.81 0.87 0.95 0.98 1.01 1.03 1.04 1.04 1.08 1.13 1.17 1.21 1.23 1.29 1.38 1.43 1.45 1.43 1.43 1.45 1.47 1.47 1.43 1.36 1.30 1.28 1.27 1.29 1.33 1.34 1.31 1.28 1.27 1.23 1.21 1.25 1.31 1.26 1.20 1.21 1.22 1.30 1.31 1.30 1.33 1.32 1.31 1.31 1.30 1.29 1.30 1.30 1.26 1.22 1.24 1.27
0.50 0.54 0.65 0.62 0.68 0.71 0.78 0.80 0.85 0.89 0.95 0.95 0.98 1.00 1.01 1.04 1.08 1.15 1.21 1.27 1.29 1.30 1.36 1.45 1.47 1.46 1.47 1.50 1.50 1.51 1.52 1.48 1.44 1.43 1.38 1.39 1.42 1.38 1.35 1.33 1.30 1.30 1.32 1.35 1.38 1.33 1.32 1.32 1.34 1.38 1.36 1.38 1.41 1.40 1.39 1.34 1.31 1.31 1.31 1.30 1.26 1.23 1.25
0.43 0.45 0.48 0.69 0.69 0.71 0.69 0.79 0.76 0.77 0.82 0.86 0.89 0.94 0.96 0.97 1.00 1.05 1.14 1.21 1.29 1.29 1.31 1.39 1.44 1.46 1.49 1.51 1.53 1.58 1.62 1.59 1.55 1.52 1.52 1.48 1.48 1.49 1.46 1.38 1.38 1.37 1.36 1.41 1.46 1.47 1.44 1.43 1.44 1.47 1.48 1.44 1.45 1.47 1.45 1.42 1.38 1.32 1.31 1.32 1.30 1.26 1.24
0.41 0.45 0.47 0.48 0.67 0.74 0.72 0.66 0.72 0.75 0.75 0.76 0.80 0.84 0.90 0.94 1.00 1.06 1.09 1.17 1.24 1.28 1.32 1.35 1.40 1.46 1.49 1.51 1.58 1.63 1.65 1.64 1.58 1.57 1.54 1.53 1.53 1.58 1.58 1.54 1.50 1.46 1.46 1.46 1.52 1.57 1.59 1.57 1.56 1.56 1.60 1.59 1.54 1.50 1.49 1.47 1.46 1.41 1.33 1.30 1.29 1.30 1.27
0.43 0.47 0.51 0.52 0.51 0.54 0.99 0.83 0.74 0.73 0.67 0.68 0.73 0.77 0.84 0.90 0.99 1.03 1.03 1.09 1.15 1.26 1.31 1.32 1.35 1.40 1.46 1.52 1.60 1.63 1.64 1.61 1.59 1.55 1.54 1.55 1.55 1.56 1.59 1.58 1.55 1.50 1.48 1.50 1.50 1.55 1.61 1.60 1.59 1.61 1.62 1.67 1.66 1.62 1.62 1.59 1.52 1.49 1.43 1.37 1.30 1.27 1.29
0.44 0.46 0.51 0.54 0.52 0.51 0.55 0.72 1.03 0.98 0.88 0.86 0.87 0.84 0.81 0.83 0.86 0.90 0.95 1.03 1.12 1.22 1.25 1.22 1.25 1.33 1.40 1.48 1.52 1.55 1.58 1.58 1.54 1.52 1.52 1.52 1.53 1.56 1.60 1.57 1.52 1.47 1.46 1.46 1.49 1.54 1.53 1.55 1.59 1.59 1.62 1.65 1.66 1.66 1.69 1.70 1.68 1.58 1.53 1.47 1.40 1.33 1.27
0.45 0.51 0.51 0.51 0.53 0.55 0.61 0.69 0.75 0.83 0.75 0.83 0.82 0.79 0.91 0.98 0.89 0.87 0.95 1.00 1.08 1.09 1.16 1.20 1.21 1.25 1.33 1.38 1.43 1.47 1.51 1.51 1.49 1.47 1.47 1.49 1.50 1.50 1.49 1.50 1.47 1.44 1.46 1.50 1.52 1.50 1.52 1.55 1.57 1.60 1.63 1.62 1.64 1.67 1.71 1.73 1.75 1.70 1.63 1.57 1.51 1.45 1.37
0.44 0.43 0.43 0.41 0.46 0.64 0.90 0.83 0.85 0.75 0.72 0.70 0.66 0.67 0.75 0.80 0.95 0.98 0.94 0.95 1.00 1.06 1.10 1.17 1.21 1.23 1.28 1.30 1.35 1.41 1.46 1.46 1.44 1.43 1.46 1.48 1.49 1.47 1.44 1.43 1.44 1.47 1.49 1.51 1.52 1.52 1.51 1.55 1.58 1.61 1.64 1.66 1.66 1.68 1.69 1.70 1.77 1.74 1.70 1.64 1.58 1.54 1.50
0.40 0.40 0.39 0.43 0.61 0.68 0.65 0.65 0.67 0.63 0.64 0.76 0.73 0.71 0.69 0.69 0.81 0.94 0.95 0.97 0.97 1.02 1.06 1.11 1.17 1.21 1.26 1.28 1.30 1.33 1.38 1.41 1.41 1.41 1.43 1.44 1.45 1.41 1.39 1.42 1.44 1.46 1.54 1.56 1.59 1.63 1.64 1.65 1.66 1.63 1.64 1.68 1.70 1.65 1.60 1.65 1.75 1.74 1.71 1.71 1.68 1.62 1.57
0.33 0.38 0.53 0.71 0.70 0.67 0.69 0.67 0.66 0.69 0.69 0.69 0.69 0.64 0.63 0.68 0.73 0.81 0.93 0.97 0.98 1.01 1.05 1.07 1.08 1.13 1.19 1.24 1.32 1.36 1.42 1.45 1.43 1.41 1.42 1.44 1.43 1.41 1.41 1.43 1.49 1.55 1.60 1.55 1.56 1.59 1.60 1.59 1.63 1.67 1.68 1.66 1.66 1.59 1.60 1.64 1.71 1.72 1.72 1.73 1.74 1.71 1.64
0.87 0.85 0.79 0.81 0.78 0.74 0.76 0.81 0.86 0.87 0.84 0.78 0.75 0.73 0.71 0.71 0.72 0.76 0.83 0.92 0.99 1.00 1.02 1.04 1.01 1.06 1.15 1.24 1.36 1.43 1.48 1.50 1.49 1.46 1.45 1.44 1.41 1.43 1.48 1.54 1.59 1.59 1.63 1.55 1.54 1.55 1.60 1.63 1.62 1.64 1.64 1.62 1.62 1.61 1.57 1.58 1.69 1.71 1.70 1.71 1.74 1.74 1.71
0.85 0.85 0.83 0.77 0.74 0.73 0.80 0.82 0.79 0.74 0.73 0.69 0.64 0.77 0.86 0.80 0.74 0.77 0.80 0.86 0.96 1.00 0.99 1.01 1.05 1.09 1.11 1.22 1.38 1.45 1.49 1.53 1.53 1.50 1.48 1.46 1.48 1.54 1.54 1.55 1.58 1.64 1.67 1.63 1.62 1.58 1.62 1.66 1.62 1.62 1.64 1.65 1.65 1.65 1.60 1.60 1.66 1.68 1.68 1.69 1.70 1.71 1.73
0.76 0.77 0.77 0.74 0.79 0.90 0.82 0.80 0.82 0.86 0.87 0.92 0.93 0.92 0.89 0.87 0.79 0.77 0.82 0.87 0.93 0.96 0.97 1.01 1.10 1.18 1.23 1.26 1.35 1.46 1.49 1.51 1.52 1.53 1.53 1.51 1.56 1.60 1.60 1.62 1.61 1.61 1.59 1.60 1.60 1.58 1.58 1.59 1.60 1.60 1.62 1.67 1.66 1.65 1.64 1.62 1.65 1.68 1.66 1.67 1.67 1.69 1.73
0.89 0.84 0.80 0.82 0.85 0.84 0.81 0.86 0.96 0.91 0.87 0.91 0.93 0.99 0.96 0.93 0.83 0.78 0.83 0.91 0.93 0.94 1.03 1.14 1.22 1.26 1.29 1.29 1.30 1.39 1.47 1.50 1.53 1.54 1.57 1.58 1.55 1.56 1.58 1.60 1.57 1.58 1.58 1.56 1.58 1.58 1.58 1.58 1.59 1.59 1.61 1.66 1.69 1.67 1.67 1.66 1.63 1.66 1.64 1.62 1.63 1.65 1.67
0.91 0.92 0.89 0.96 0.92 0.91 0.91 0.94 1.00 0.98 0.98 0.98 0.93 0.97 0.91 0.89 0.87 0.82 0.85 0.90 0.92 1.00 1.16 1.24 1.29 1.31 1.31 1.30 1.30 1.36 1.45 1.49 1.52 1.55 1.54 1.55 1.56 1.54 1.52 1.58 1.62 1.61 1.60 1.61 1.59 1.56 1.57 1.60 1.60 1.60 1.61 1.66 1.70 1.71 1.69 1.71 1.68 1.69 1.63 1.60 1.60 1.62 1.64
0.86 0.86 0.88 0.89 0.92 0.97 0.93 0.92 0.95 0.96 0.97 1.02 1.07 1.11 1.11 0.97 0.89 0.89 0.90 0.89 0.97 1.08 1.14 1.23 1.31 1.34 1.33 1.31 1.32 1.35 1.40 1.48 1.52 1.53 1.55 1.55 1.57 1.56 1.53 1.57 1.59 1.62 1.65 1.63 1.61 1.60 1.58 1.59 1.62 1.61 1.60 1.63 1.67 1.71 1.72 1.73 1.74 1.71 1.64 1.60 1.59 1.61 1.64
0.92 0.97 0.97 1.02 1.03 0.99 0.93 0.96 1.00 1.02 1.06 1.06 1.08 1.11 1.13 1.09 0.96 0.96 0.96 0.98 1.12 1.14 1.15 1.19 1.27 1.35 1.34 1.32 1.33 1.35 1.40 1.49 1.55 1.57 1.57 1.57 1.57 1.57 1.54 1.53 1.55 1.59 1.60 1.61 1.60 1.58 1.57 1.61 1.63 1.63 1.60 1.59 1.62 1.66 1.70 1.75 1.76 1.74 1.67 1.62 1.62 1.62 1.64
0.93 0.95 0.96 1.00 1.02 1.02 1.02 1.01 1.00 1.03 1.05 1.08 1.10 1.12 1.16 1.21 1.11 1.07 1.10 1.22 1.26 1.24 1.25 1.22 1.23 1.30 1.33 1.36 1.39 1.40 1.42 1.49 1.57 1.61 1.62 1.64 1.62 1.56 1.56 1.55 1.56 1.52 1.57 1.59 1.59 1.58 1.55 1.59 1.64 1.62 1.59 1.60 1.57 1.59 1.64 1.69 1.71 1.74 1.74 1.67 1.62 1.62 1.64
0.97 1.01 1.05 1.07 1.09 1.11 1.08 1.09 1.07 1.05 1.02 1.06 1.11 1.13 1.17 1.19 1.20 1.13 1.15 1.24 1.27 1.34 1.30 1.32 1.32 1.33 1.37 1.40 1.42 1.42 1.45 1.46 1.54 1.60 1.62 1.61 1.62 1.61 1.62 1.60 1.59 1.56 1.57 1.57 1.56 1.57 1.56 1.55 1.57 1.59 1.60 1.60 1.62 1.64 1.67 1.70 1.70 1.69 1.72 1.67 1.62 1.61 1.61
1.03 1.04 1.04 1.06 1.11 1.12 1.14 1.13 1.07 1.04 1.06 1.04 1.12 1.16 1.16 1.17 1.17 1.17 1.21 1.25 1.33 1.35 1.32 1.28 1.26 1.27 1.28 1.32 1.38 1.42 1.44 1.44 1.48 1.53 1.60 1.61 1.62 1.63 1.63 1.63 1.63 1.61 1.58 1.56 1.54 1.54 1.56 1.57 1.58 1.58 1.58 1.57 1.60 1.63 1.63 1.63 1.64 1.65 1.69 1.71 1.65 1.62 1.64
1.06 1.07 1.11 1.14 1.17 1.17 1.16 1.14 1.11 1.08 1.09 1.10 1.16 1.21 1.23 1.25 1.25 1.28 1.29 1.29 1.31 1.34 1.30 1.25 1.23 1.24 1.26 1.31 1.36 1.40 1.41 1.40 1.43 1.47 1.53 1.58 1.61 1.58 1.58 1.60 1.59 1.56 1.53 1.52 1.53 1.52 1.54 1.57 1.55 1.56 1.57 1.56 1.58 1.58 1.58 1.59 1.62 1.65 1.67 1.75 1.72 1.69 1.70
1.09 1.11 1.14 1.15 1.16 1.16 1.13 1.13 1.13 1.12 1.11 1.14 1.20 1.21 1.22 1.24 1.28 1.31 1.32 1.34 1.36 1.39 1.32 1.29 1.27 1.33 1.35 1.40 1.42 1.42 1.45 1.45 1.44 1.44 1.47 1.54 1.57 1.60 1.62 1.60 1.60 1.61 1.61 1.68 1.73 1.69 1.64 1.61 1.61 1.64 1.68 1.68 1.64 1.58 1.56 1.61 1.62 1.70 1.85 1.89 1.87 1.79 1.74
1.12 1.14 1.16 1.18 1.18 1.18 1.14 1.15 1.15 1.15 1.14 1.16 1.23 1.24 1.24 1.25 1.28 1.32 1.35 1.37 1.40 1.44 1.39 1.37 1.36 1.34 1.34 1.38 1.38 1.41 1.35 1.42 1.44 1.46 1.46 1.47 1.50 1.52 1.57 1.65 1.67 1.67 1.66 1.68 1.70 1.72 1.74 1.71 1.68 1.73 1.75 1.73 1.77 1.81 1.69 1.67 1.78 1.89 1.88 1.88 1.85 1.78 1.69
1.13 1.16 1.17 1.18 1.15 1.17 1.16 1.15 1.17 1.15 1.13 1.14 1.17 1.18 1.21 1.24 1.28 1.30 1.33 1.37 1.39 1.41 1.38 1.40 1.40 1.41 1.42 1.42 1.39 1.41 1.43 1.43 1.46 1.47 1.44 1.43 1.44 1.44 1.42 1.44 1.55 1.59 1.59 1.59 1.62 1.62 1.62 1.63 1.65 1.69 1.71 1.69 1.65 1.73 1.78 1.79 1.82 1.81 1.77 1.73 1.72 1.74 1.72
1.19 1.21 1.23 1.24 1.24 1.23 1.23 1.19 1.19 1.18 1.16 1.19 1.20 1.21 1.23 1.23 1.24 1.26 1.28 1.32 1.34 1.36 1.35 1.34 1.31 1.26 1.26 1.28 1.36 1.34 1.37 1.39 1.41 1.39 1.38 1.40 1.42 1.40 1.38 1.34 1.35 1.43 1.48 1.45 1.43 1.46 1.47 1.49 1.51 1.54 1.55 1.57 1.54 1.49 1.46 1.50 1.52 1.52 1.52 1.53 1.55 1.55 1.55

ECMWFFLT1_prec_pwat_030.txt.gz
Precipitable_Water
0.87 1.05 0.99 1.05 1.11 1.12 1.10 1.18 1.23 1.25 1.29 1.44 1.55 1.52 1.43 1.37 1.29 1.23 1.13 1.07 1.02 1.04 1.11 1.13 1.13 1.13 1.10 1.10 1.12 1.12 1.12 1.12 1.10 1.07 1.08 1.06 1.04 1.04 1.04 1.11 1.13 1.15 1.17 1.15 1.17 1.17 1.23 1.30 1.30 1.30 1.32 1.33 1.36 1.39 1.40 1.40 1.45 1.53 1.59 1.64 1.64 1.60 1.55
0.84 0.98 1.09 1.05 1.07 1.02 1.04 1.12 1.21 1.28 1.43 1.64 1.67 1.57 1.50 1.41 1.36 1.29 1.16 1.08 1.02 0.99 1.04 1.10 1.10 1.09 1.07 1.09 1.12 1.12 1.10 1.10 1.10 1.07 1.08 1.07 1.07 1.04 1.05 1.06 1.10 1.14 1.17 1.18 1.23 1.26 1.27 1.28 1.28 1.25 1.25 1.29 1.32 1.38 1.40 1.42 1.41 1.44 1.49 1.58 1.58 1.59 1.56
0.80 0.86 1.05 1.10 1.06 1.02 1.07 1.12 1.21 1.35 1.47 1.62 1.71 1.59 1.46 1.39 1.34 1.28 1.26 1.12 1.05 1.04 1.04 1.03 1.04 1.05 1.06 1.08 1.06 1.08 1.07 1.08 1.08 1.08 1.03 1.02 1.02 1.01 1.03 1.05 1.08 1.14 1.18 1.21 1.26 1.31 1.31 1.29 1.28 1.30 1.27 1.25 1.28 1.33 1.35 1.39 1.41 1.42 1.47 1.52 1.56 1.56 1.53
0.83 0.85 0.89 1.13 1.14 1.13 1.15 1.18 1.24 1.37 1.57 1.61 1.60 1.50 1.44 1.44 1.43 1.41 1.37 1.23 1.05 1.06 1.04 1.01 1.02 1.02 1.04 1.02 1.01 1.02 1.02 1.03 1.05 1.05 1.03 1.03 1.02 1.02 1.02 1.03 1.06 1.13 1.18 1.19 1.22 1.27 1.31 1.31 1.31 1.28 1.31 1.28 1.26 1.30 1.34 1.34 1.38 1.41 1.45 1.50 1.52 1.57 1.57
0.85 0.86 0.86 1.07 1.10 1.15 1.12 1.15 1.29 1.45 1.38 1.51 1.55 1.51 1.48 1.50 1.48 1.44 1.41 1.38 1.21 1.03 1.01 1.02 1.02 1.03 1.03 1.02 1.00 1.00 0.99 1.01 1.04 1.07 1.06 1.05 1.05 1.04 0.98 0.98 1.03 1.06 1.11 1.23 1.25 1.22 1.25 1.31 1.30 1.29 1.29 1.29 1.29 1.31 1.31 1.34 1.34 1.38 1.41 1.45 1.45 1.52 1.56
0.84 0.81 0.81 1.03 1.07 1.11 1.06 0.99 1.04 1.16 1.36 1.52 1.52 1.49 1.49 1.48 1.46 1.41 1.42 1.41 1.33 1.19 1.10 1.06 1.04 1.06 1.04 1.05 1.02 0.98 0.99 1.01 1.02 1.02 1.05 1.05 1.04 1.01 0.97 0.97 1.02 1.04 1.08 1.18 1.26 1.25 1.21 1.26 1.29 1.31 1.30 1.30 1.31 1.33 1.35 1.33 1.32 1.34 1.36 1.40 1.39 1.45 1.51
0.78 0.78 0.81 1.05 1.08 1.03 1.00 1.03 1.14 1.26 1.40 1.49 1.63 1.64 1.54 1.48 1.44 1.42 1.44 1.42 1.38 1.23 1.12 1.04 1.03 1.04 1.04 1.08 1.02 0.97 0.95 0.97 1.00 1.01 1.05 1.06 1.07 1.04 1.01 1.01 1.04 1.08 1.12 1.20 1.21 1.27 1.25 1.18 1.24 1.32 1.34 1.32 1.30 1.31 1.33 1.32 1.29 1.31 1.32 1.32 1.32 1.38 1.44
0.77 0.79 0.82 0.85 0.93 0.92 0.97 1.10 1.24 1.20 1.27 1.43 1.60 1.63 1.49 1.45 1.47 1.45 1.42 1.43 1.40 1.34 1.22 1.09 1.05 1.02 1.00 1.03 0.99 0.96 0.96 0.98 0.99 1.00 1.01 1.00 1.02 1.03 1.04 1.06 1.09 1.11 1.18 1.19 1.21 1.26 1.26 1.22 1.21 1.28 1.36 1.34 1.31 1.30 1.34 1.35 1.31 1.30 1.31 1.27 1.26 1.28 1.35
0.75 0.73 0.72 0.77 0.88 0.94 0.96 1.00 1.01 1.04 1.06 1.13 1.32 1.43 1.55 1.46 1.42 1.41 1.43 1.45 1.44 1.37 1.32 1.25 1.14 1.08 1.04 1.01 0.99 0.97 1.00 1.01 0.99 0.98 1.00 0.99 1.03 1.06 1.07 1.10 1.14 1.17 1.18 1.20 1.25 1.28 1.27 1.26 1.23 1.24 1.32 1.33 1.35 1.33 1.30 1.32 1.31 1.32 1.30 1.28 1.24 1.21 1.24
0.59 0.71 0.75 0.78 0.97 1.06 1.07 1.01 1.02 1.01 1.03 1.11 1.20 1.39 1.45 1.39 1.37 1.41 1.44 1.44 1.43 1.40 1.41 1.37 1.27 1.17 1.07 1.04 1.03 1.03 1.02 1.01 1.03 1.03 1.01 1.03 1.07 1.06 1.09 1.16 1.15 1.18 1.19 1.21 1.26 1.27 1.26 1.28 1.27 1.24 1.24 1.25 1.29 1.32 1.28 1.28 1.31 1.32 1.32 1.30 1.27 1.21 1.19
0.64 0.71 0.79 0.82 0.90 1.02 1.07 1.08 0.97 0.98 1.00 1.10 1.26 1.38 1.40 1.41 1.38 1.37 1.38 1.43 1.43 1.44 1.49 1.47 1.43 1.33 1.18 1.06 1.01 1.01 1.01 1.01 1.04 1.06 1.06 1.05 1.07 1.09 1.12 1.17 1.17 1.18 1.18 1.21 1.24 1.27 1.25 1.24 1.29 1.25 1.21 1.20 1.24 1.28 1.29 1.27 1.29 1.30 1.31 1.32 1.33 1.28 1.23
0.71 0.69 0.71 0.77 0.82 0.97 0.98 1.00 0.98 1.06 1.12 1.19 1.29 1.36 1.39 1.40 1.40 1.39 1.37 1.37 1.45 1.49 1.49 1.49 1.49 1.45 1.38 1.23 1.09 1.02 1.02 1.01 1.04 1.05 1.06 1.05 1.04 1.08 1.12 1.16 1.19 1.22 1.22 1.27 1.21 1.21 1.24 1.22 1.21 1.23 1.21 1.19 1.21 1.24 1.28 1.30 1.29 1.29 1.28 1.28 1.32 1.31 1.28
0.81 0.77 0.74 0.79 0.84 0.92 0.91 0.94 0.94 0.93 0.96 1.09 1.20 1.31 1.35 1.38 1.38 1.37 1.38 1.39 1.44 1.48 1.48 1.50 1.51 1.49 1.47 1.40 1.24 1.11 1.06 1.04 1.01 1.04 1.06 1.05 1.07 1.09 1.12 1.16 1.19 1.21 1.24 1.25 1.25 1.18 1.18 1.22 1.18 1.19 1.20 1.18 1.17 1.18 1.23 1.26 1.27 1.27 1.27 1.28 1.30 1.28 1.25
0.77 0.81 0.82 0.87 0.93 0.96 0.93 0.97 1.10 1.12 1.10 1.12 1.20 1.30 1.34 1.39 1.39 1.36 1.37 1.38 1.42 1.45 1.48 1.50 1.50 1.47 1.48 1.49 1.39 1.26 1.15 1.13 1.06 1.03 1.07 1.08 1.08 1.10 1.11 1.15 1.18 1.20 1.28 1.32 1.26 1.24 1.17 1.18 1.19 1.17 1.19 1.20 1.18 1.20 1.24 1.27 1.28 1.30 1.31 1.30 1.29 1.29 1.26
0.69 0.75 0.81 0.88 0.89 0.93 0.91 0.94 0.95 1.06 1.23 1.25 1.30 1.33 1.33 1.36 1.39 1.39 1.39 1.40 1.41 1.41 1.43 1.47 1.46 1.45 1.43 1.45 1.43 1.38 1.33 1.28 1.22 1.15 1.11 1.12 1.13 1.12 1.13 1.15 1.20 1.22 1.29 1.35 1.32 1.30 1.26 1.24 1.31 1.25 1.21 1.26 1.28 1.28 1.31 1.31 1.33 1.35 1.34 1.32 1.29 1.30 1.28
0.64 0.67 0.69 0.74 0.78 0.75 0.89 0.90 1.02 1.08 1.17 1.27 1.31 1.31 1.29 1.30 1.33 1.37 1.36 1.35 1.39 1.40 1.44 1.47 1.44 1.42 1.39 1.39 1.41 1.45 1.46 1.42 1.36 1.30 1.24 1.19 1.18 1.19 1.20 1.22 1.27 1.30 1.31 1.35 1.37 1.36 1.34 1.31 1.32 1.38 1.34 1.27 1.30 1.34 1.35 1.35 1.37 1.37 1.36 1.35 1.33 1.29 1.28
0.51 0.65 0.73 0.72 0.73 0.67 0.79 0.88 1.01 1.17 1.22 1.21 1.21 1.23 1.26 1.26 1.28 1.33 1.36 1.35 1.36 1.38 1.42 1.46 1.46 1.43 1.39 1.37 1.44 1.50 1.50 1.48 1.47 1.45 1.40 1.34 1.28 1.27 1.28 1.29 1.32 1.35 1.35 1.36 1.39 1.39 1.39 1.38 1.35 1.34 1.43 1.42 1.36 1.36 1.36 1.37 1.38 1.37 1.36 1.35 1.34 1.34 1.32
0.50 0.56 0.73 0.76 0.77 0.72 0.71 0.74 0.82 0.88 0.94 0.99 1.05 1.12 1.14 1.16 1.16 1.19 1.23 1.31 1.32 1.36 1.39 1.40 1.44 1.45 1.45 1.45 1.51 1.54 1.52 1.51 1.52 1.52 1.52 1.51 1.44 1.37 1.35 1.36 1.37 1.38 1.38 1.37 1.36 1.39 1.42 1.39 1.37 1.38 1.41 1.49 1.51 1.49 1.47 1.46 1.46 1.44 1.42 1.42 1.39 1.37 1.35
0.53 0.54 0.56 0.59 0.72 0.92 0.84 0.87 0.87 0.84 0.94 0.94 0.96 1.02 1.06 1.08 1.08 1.03 1.09 1.20 1.28 1.34 1.33 1.30 1.34 1.45 1.46 1.48 1.48 1.52 1.58 1.59 1.57 1.57 1.58 1.59 1.57 1.52 1.46 1.43 1.42 1.40 1.39 1.36 1.37 1.40 1.37 1.38 1.39 1.40 1.42 1.45 1.50 1.53 1.59 1.60 1.61 1.58 1.57 1.56 1.54 1.51 1.47
0.54 0.57 0.62 0.64 0.64 0.67 0.82 1.01 0.97 1.18 1.18 1.22 1.18 1.10 1.11 1.12 1.07 1.04 1.08 1.10 1.19 1.21 1.27 1.29 1.28 1.34 1.43 1.46 1.48 1.52 1.58 1.63 1.64 1.62 1.62 1.64 1.64 1.59 1.52 1.47 1.42 1.41 1.42 1.43 1.42 1.39 1.37 1.39 1.40 1.41 1.42 1.42 1.45 1.51 1.57 1.61 1.66 1.66 1.65 1.64 1.64 1.65 1.63
0.57 0.63 0.64 0.64 0.63 0.82 0.88 0.90 1.18 1.17 1.07 0.94 0.93 1.01 1.21 1.24 1.13 1.14 1.08 1.05 1.09 1.16 1.20 1.24 1.25 1.25 1.37 1.40 1.45 1.51 1.54 1.58 1.60 1.60 1.63 1.65 1.64 1.59 1.54 1.49 1.45 1.44 1.44 1.44 1.43 1.40 1.37 1.37 1.39 1.42 1.42 1.43 1.45 1.49 1.54 1.59 1.66 1.67 1.68 1.68 1.68 1.69 1.69
0.44 0.48 0.53 0.59 0.90 0.98 0.95 0.99 1.00 1.03 1.07 1.03 0.98 0.90 0.85 0.92 1.16 1.15 1.05 1.05 1.02 1.07 1.11 1.17 1.18 1.19 1.27 1.33 1.38 1.43 1.50 1.53 1.55 1.56 1.57 1.58 1.58 1.55 1.50 1.50 1.49 1.45 1.47 1.46 1.46 1.49 1.48 1.47 1.47 1.46 1.47 1.50 1.51 1.49 1.48 1.57 1.65 1.66 1.68 1.70 1.71 1.72 1.71
1.07 0.86 1.04 1.14 1.10 0.96 0.98 1.06 1.04 1.07 1.08 1.02 0.90 0.75 0.80 0.86 0.85 0.94 1.08 1.05 1.04 1.03 1.06 1.08 1.11 1.12 1.18 1.27 1.34 1.40 1.45 1.48 1.49 1.50 1.50 1.51 1.50 1.49 1.48 1.48 1.51 1.54 1.58 1.50 1.49 1.50 1.48 1.46 1.47 1.49 1.52 1.53 1.55 1.51 1.48 1.52 1.61 1.64 1.65 1.68 1.72 1.73 1.71
1.17 1.07 1.05 1.06 1.13 1.09 1.04 0.94 0.90 0.84 0.82 0.77 0.72 0.80 0.93 0.98 0.97 0.93 0.98 1.06 1.05 1.03 1.02 1.03 1.04 1.11 1.17 1.22 1.30 1.35 1.43 1.49 1.51 1.49 1.49 1.50 1.47 1.50 1.53 1.55 1.57 1.58 1.62 1.54 1.50 1.49 1.51 1.54 1.52 1.54 1.54 1.53 1.53 1.54 1.51 1.52 1.61 1.63 1.64 1.67 1.71 1.72 1.71
1.13 1.09 1.10 1.15 1.18 1.03 0.95 0.85 0.74 0.80 0.88 1.06 1.01 1.08 0.96 0.91 0.98 0.94 0.89 0.94 1.02 1.02 0.99 1.00 1.04 1.11 1.16 1.23 1.32 1.38 1.43 1.50 1.54 1.55 1.54 1.54 1.58 1.62 1.56 1.55 1.57 1.62 1.67 1.62 1.58 1.54 1.57 1.60 1.58 1.58 1.60 1.61 1.62 1.64 1.61 1.59 1.63 1.65 1.64 1.68 1.73 1.76 1.77
0.94 0.95 0.96 1.07 1.13 1.03 0.94 0.86 0.99 1.00 0.93 1.01 1.03 1.11 1.10 1.08 0.98 0.84 0.84 0.87 0.91 0.95 0.97 1.00 1.10 1.17 1.24 1.28 1.34 1.37 1.42 1.46 1.51 1.59 1.61 1.60 1.63 1.66 1.61 1.63 1.62 1.63 1.64 1.65 1.63 1.57 1.57 1.58 1.60 1.60 1.63 1.67 1.66 1.65 1.65 1.64 1.66 1.69 1.68 1.69 1.71 1.74 1.77
0.96 0.97 0.91 0.94 0.96 0.96 0.96 0.89 1.01 0.96 0.98 0.96 0.91 0.96 1.01 0.94 0.90 0.85 0.80 0.83 0.85 0.85 0.95 1.11 1.18 1.22 1.25 1.29 1.32 1.37 1.39 1.45 1.49 1.54 1.66 1.73 1.71 1.72 1.68 1.66 1.63 1.64 1.64 1.64 1.65 1.62 1.59 1.57 1.57 1.59 1.62 1.68 1.70 1.67 1.67 1.68 1.68 1.73 1.72 1.71 1.71 1.72 1.74
0.95 0.98 1.00 0.97 0.93 1.03 0.95 0.92 0.91 0.94 0.95 0.95 1.02 1.06 1.12 1.09 0.92 0.80 0.85 0.82 0.84 0.92 1.01 1.20 1.22 1.25 1.27 1.29 1.30 1.34 1.42 1.45 1.51 1.57 1.63 1.72 1.77 1.72 1.67 1.71 1.71 1.68 1.66 1.68 1.67 1.61 1.59 1.60 1.59 1.58 1.61 1.66 1.71 1.71 1.71 1.76 1.76 1.76 1.74 1.73 1.73 1.74 1.76
0.97 0.95 0.96 0.92 1.04 1.10 0.96 0.91 0.90 0.91 0.98 1.03 1.01 0.97 1.03 1.09 1.04 0.96 0.91 0.85 0.92 1.03 1.05 1.16 1.30 1.28 1.31 1.33 1.32 1.32 1.41 1.51 1.55 1.58 1.63 1.66 1.73 1.72 1.66 1.68 1.69 1.70 1.71 1.67 1.65 1.65 1.62 1.62 1.64 1.62 1.61 1.64 1.68 1.73 1.78 1.82 1.85 1.82 1.77 1.76 1.77 1.78 1.78
0.92 0.96 0.93 0.99 0.98 1.02 0.93 0.93 0.99 0.94 1.04 1.03 1.01 1.01 1.00 1.11 1.08 1.02 0.99 1.04 1.13 1.11 1.10 1.13 1.29 1.29 1.30 1.32 1.36 1.36 1.41 1.53 1.60 1.65 1.66 1.67 1.70 1.70 1.67 1.66 1.67 1.69 1.70 1.68 1.65 1.62 1.61 1.62 1.65 1.63 1.58 1.56 1.59 1.67 1.74 1.81 1.85 1.86 1.83 1.79 1.78 1.79 1.80
0.91 0.95 0.97 0.95 1.02 1.05 1.02 0.99 1.03 1.00 0.98 1.04 1.04 1.05 1.05 1.19 1.22 1.14 1.13 1.21 1.28 1.22 1.22 1.19 1.24 1.31 1.29 1.31 1.38 1.42 1.44 1.50 1.60 1.65 1.68 1.70 1.71 1.68 1.69 1.69 1.67 1.63 1.68 1.70 1.67 1.64 1.60 1.63 1.66 1.62 1.60 1.59 1.58 1.64 1.73 1.80 1.85 1.88 1.89 1.86 1.82 1.81 1.83
0.97 1.03 1.03 1.03 1.05 1.06 1.00 1.08 1.09 1.02 0.96 0.99 1.06 1.09 1.09 1.24 1.26 1.21 1.25 1.32 1.31 1.33 1.30 1.28 1.27 1.28 1.31 1.34 1.38 1.44 1.49 1.48 1.55 1.62 1.67 1.69 1.71 1.73 1.75 1.68 1.67 1.63 1.67 1.68 1.67 1.66 1.63 1.62 1.64 1.65 1.65 1.65 1.66 1.67 1.69 1.76 1.80 1.84 1.92 1.92 1.87 1.82 1.79
0.97 1.04 1.06 1.05 1.09 1.10 1.10 1.06 1.05 1.03 1.00 1.01 1.05 1.16 1.16 1.21 1.27 1.25 1.30 1.33 1.35 1.35 1.36 1.33 1.35 1.35 1.37 1.39 1.42 1.46 1.48 1.46 1.49 1.56 1.62 1.66 1.69 1.73 1.74 1.76 1.74 1.70 1.68 1.67 1.64 1.64 1.65 1.64 1.63 1.63 1.63 1.62 1.65 1.67 1.70 1.69 1.71 1.73 1.79 1.88 1.87 1.80 1.79
1.01 1.06 1.13 1.18 1.19 1.17 1.14 1.13 1.10 1.09 1.07 1.06 1.09 1.15 1.19 1.22 1.24 1.28 1.30 1.30 1.35 1.35 1.34 1.33 1.33 1.35 1.38 1.43 1.46 1.48 1.51 1.49 1.50 1.54 1.55 1.60 1.64 1.65 1.67 1.69 1.71 1.67 1.67 1.65 1.64 1.60 1.58 1.60 1.59 1.58 1.57 1.57 1.61 1.64 1.67 1.70 1.72 1.84 1.82 1.83 1.82 1.83 1.82
1.07 1.10 1.13 1.16 1.20 1.18 1.13 1.12 1.15 1.15 1.14 1.11 1.16 1.18 1.19 1.21 1.25 1.30 1.31 1.34 1.35 1.42 1.33 1.29 1.31 1.36 1.39 1.41 1.43 1.43 1.47 1.50 1.52 1.54 1.55 1.60 1.61 1.67 1.70 1.67 1.66 1.65 1.69 1.79 1.79 1.73 1.66 1.65 1.68 1.71 1.75 1.74 1.72 1.68 1.65 1.68 1.72 1.77 1.81 1.83 1.81 1.79 1.79
1.07 1.15 1.18 1.22 1.21 1.20 1.16 1.14 1.17 1.17 1.15 1.16 1.24 1.24 1.23 1.25 1.28 1.33 1.38 1.42 1.48 1.41 1.38 1.32 1.29 1.32 1.35 1.42 1.45 1.48 1.48 1.48 1.53 1.49 1.54 1.57 1.59 1.59 1.65 1.81 1.86 1.87 1.84 1.76 1.80 1.81 1.81 1.77 1.71 1.73 1.75 1.73 1.79 1.77 1.66 1.62 1.70 1.74 1.74 1.74 1.76 1.77 1.76
1.08 1.14 1.20 1.21 1.17 1.20 1.20 1.16 1.17 1.17 1.16 1.22 1.26 1.31 1.30 1.29 1.29 1.31 1.34 1.39 1.44 1.49 1.53 1.49 1.39 1.40 1.42 1.44 1.46 1.49 1.48 1.53 1.58 1.57 1.56 1.63 1.67 1.65 1.62 1.63 1.70 1.77 1.81 1.77 1.75 1.76 1.75 1.74 1.72 1.70 1.70 1.70 1.67 1.71 1.69 1.66 1.62 1.61 1.61 1.59 1.58 1.58 1.58
1.14 1.16 1.20 1.26 1.25 1.25 1.24 1.24 1.22 1.20 1.19 1.26 1.30 1.30 1.29 1.24 1.24 1.29 1.30 1.40 1.43 1.43 1.41 1.44 1.46 1.46 1.48 1.44 1.46 1.48 1.50 1.57 1.59 1.59 1.56 1.58 1.62 1.65 1.65 1.62 1.65 1.65 1.72 1.73 1.70 1.69 1.68 1.65 1.62 1.59 1.57 1.54 1.51 1.47 1.45 1.44 1.43 1.43 1.43 1.43 1.42 1.42 1.43

ECMWFFLT1_prec_pwat_033.txt.gz
Precipitable_Water
1.09 1.12 1.12 1.13 1.16 1.17 1.16 1.16 1.18 1.19 1.23 1.27 1.27 1.27 1.28 1.27 1.27 1.29 1.24 1.22 1.17 1.16 1.20 1.20 1.17 1.18 1.13 1.10 1.11 1.12 1.10 1.07 1.07 1.04 1.01 0.97 0.95 0.95 0.94 0.99 1.01 1.05 1.09 1.06 1.06 1.07 1.12 1.21 1.23 1.26 1.32 1.36 1.40 1.42 1.41 1.41 1.42 1.45 1.51 1.57 1.58 1.58 1.57
0.96 1.02 1.05 1.10 1.12 1.18 1.21 1.19 1.16 1.21 1.25 1.29 1.31 1.34 1.34 1.30 1.30 1.28 1.26 1.21 1.17 1.16 1.19 1.20 1.18 1.17 1.13 1.09 1.09 1.10 1.07 1.07 1.07 1.06 1.03 1.00 1.00 1.02 1.02 1.01 1.02 1.03 1.08 1.10 1.12 1.16 1.19 1.21 1.22 1.23 1.25 1.32 1.36 1.41 1.44 1.43 1.42 1.42 1.44 1.51 1.51 1.52 1.53
0.91 0.96 1.00 1.01 1.04 1.11 1.19 1.22 1.20 1.20 1.22 1.26 1.31 1.34 1.31 1.30 1.30 1.31 1.31 1.25 1.19 1.19 1.24 1.24 1.21 1.16 1.14 1.11 1.07 1.06 1.06 1.07 1.06 1.04 1.00 0.96 0.96 0.99 1.05 1.05 1.05 1.05 1.07 1.13 1.16 1.17 1.22 1.22 1.23 1.22 1.25 1.27 1.31 1.36 1.40 1.42 1.42 1.42 1.42 1.45 1.48 1.47 1.47
0.84 0.90 0.94 0.99 1.04 1.10 1.15 1.17 1.17 1.18 1.20 1.22 1.25 1.27 1.31 1.37 1.42 1.43 1.39 1.31 1.20 1.18 1.18 1.22 1.23 1.19 1.17 1.11 1.06 1.04 1.05 1.06 1.05 1.03 1.00 0.99 0.97 1.00 1.04 1.08 1.10 1.11 1.11 1.10 1.14 1.17 1.21 1.24 1.23 1.23 1.24 1.23 1.25 1.28 1.31 1.32 1.35 1.37 1.39 1.41 1.41 1.44 1.47
0.84 0.89 0.94 1.00 1.05 1.09 1.14 1.17 1.17 1.17 1.19 1.25 1.29 1.30 1.34 1.42 1.46 1.46 1.43 1.38 1.29 1.17 1.16 1.19 1.21 1.21 1.20 1.19 1.11 1.06 1.02 1.02 1.03 1.04 1.03 1.03 1.02 1.02 1.00 1.01 1.06 1.07 1.07 1.11 1.15 1.18 1.20 1.20 1.21 1.22 1.23 1.23 1.22 1.24 1.24 1.26 1.27 1.29 1.31 1.35 1.34 1.38 1.41
0.83 0.87 0.91 0.93 1.00 1.03 1.07 1.15 1.16 1.16 1.19 1.25 1.30 1.33 1.35 1.39 1.45 1.45 1.42 1.37 1.31 1.28 1.27 1.27 1.26 1.25 1.20 1.19 1.17 1.10 1.07 1.06 1.04 1.03 1.01 1.00 1.00 1.00 0.97 0.97 0.98 1.02 1.07 1.07 1.11 1.15 1.19 1.20 1.20 1.22 1.21 1.23 1.24 1.24 1.25 1.24 1.26 1.27 1.25 1.25 1.26 1.30 1.33
0.81 0.83 0.85 0.90 0.95 0.98 1.04 1.09 1.15 1.19 1.22 1.23 1.28 1.32 1.34 1.36 1.37 1.40 1.42 1.35 1.33 1.28 1.26 1.25 1.25 1.25 1.20 1.20 1.16 1.12 1.08 1.05 1.05 1.04 1.04 1.03 1.02 0.99 0.98 0.98 0.98 0.98 0.99 1.07 1.09 1.13 1.17 1.21 1.23 1.25 1.24 1.23 1.23 1.23 1.24 1.24 1.25 1.28 1.27 1.24 1.22 1.24 1.27
0.77 0.78 0.83 0.88 0.95 0.98 1.03 1.08 1.14 1.18 1.21 1.21 1.22 1.24 1.22 1.29 1.35 1.37 1.34 1.31 1.31 1.33 1.31 1.25 1.23 1.21 1.19 1.19 1.16 1.10 1.06 1.06 1.06 1.04 1.04 1.02 1.01 0.98 0.98 0.98 0.98 0.98 1.01 1.03 1.10 1.16 1.16 1.20 1.26 1.29 1.29 1.26 1.23 1.24 1.25 1.26 1.26 1.28 1.28 1.23 1.21 1.21 1.25
0.74 0.79 0.81 0.87 0.93 0.99 1.03 1.08 1.13 1.14 1.11 1.12 1.15 1.19 1.26 1.34 1.34 1.31 1.32 1.31 1.31 1.31 1.32 1.31 1.25 1.22 1.20 1.17 1.15 1.12 1.11 1.10 1.08 1.07 1.06 1.04 1.04 1.01 1.00 1.01 1.02 1.06 1.05 1.04 1.09 1.18 1.19 1.19 1.22 1.27 1.29 1.27 1.26 1.25 1.24 1.24 1.25 1.27 1.25 1.23 1.21 1.18 1.19
0.72 0.80 0.80 0.85 0.89 0.97 1.05 1.09 1.14 1.13 1.10 1.11 1.18 1.23 1.30 1.34 1.38 1.39 1.37 1.35 1.36 1.35 1.39 1.41 1.35 1.27 1.19 1.14 1.12 1.13 1.13 1.11 1.10 1.08 1.06 1.03 1.04 1.03 1.05 1.07 1.08 1.11 1.10 1.08 1.09 1.12 1.20 1.23 1.22 1.25 1.27 1.24 1.24 1.24 1.22 1.22 1.23 1.24 1.24 1.22 1.22 1.19 1.17
0.72 0.78 0.81 0.81 0.84 0.93 1.03 1.08 1.11 1.11 1.10 1.12 1.17 1.23 1.26 1.32 1.38 1.37 1.39 1.44 1.42 1.44 1.49 1.50 1.47 1.38 1.26 1.15 1.08 1.09 1.11 1.11 1.12 1.10 1.07 1.05 1.06 1.06 1.08 1.10 1.11 1.14 1.13 1.12 1.11 1.13 1.18 1.24 1.27 1.25 1.24 1.22 1.19 1.18 1.19 1.19 1.20 1.19 1.21 1.22 1.24 1.22 1.19
0.66 0.67 0.72 0.77 0.83 0.90 0.95 1.00 1.03 1.03 1.03 1.08 1.13 1.20 1.27 1.32 1.34 1.36 1.39 1.44 1.52 1.51 1.53 1.56 1.58 1.52 1.40 1.29 1.16 1.09 1.08 1.09 1.12 1.12 1.09 1.07 1.07 1.07 1.09 1.11 1.13 1.15 1.17 1.16 1.12 1.14 1.18 1.20 1.24 1.22 1.18 1.18 1.18 1.17 1.16 1.18 1.19 1.19 1.18 1.20 1.22 1.23 1.22
0.64 0.66 0.73 0.77 0.83 0.92 0.96 0.98 0.97 1.01 1.06 1.12 1.20 1.21 1.23 1.27 1.30 1.34 1.36 1.42 1.48 1.55 1.59 1.62 1.63 1.60 1.53 1.43 1.32 1.19 1.11 1.09 1.09 1.10 1.09 1.10 1.09 1.10 1.10 1.10 1.12 1.15 1.16 1.18 1.17 1.16 1.17 1.19 1.20 1.22 1.18 1.15 1.16 1.17 1.16 1.14 1.16 1.17 1.18 1.19 1.22 1.22 1.20
0.73 0.72 0.79 0.83 0.88 0.91 0.95 0.99 1.05 1.07 1.12 1.17 1.23 1.27 1.27 1.30 1.32 1.31 1.31 1.33 1.43 1.52 1.58 1.63 1.64 1.64 1.61 1.55 1.45 1.33 1.20 1.12 1.07 1.07 1.08 1.10 1.10 1.09 1.08 1.09 1.11 1.13 1.17 1.19 1.18 1.19 1.19 1.17 1.17 1.19 1.19 1.15 1.13 1.14 1.17 1.18 1.19 1.20 1.22 1.22 1.22 1.23 1.22
0.72 0.73 0.83 0.86 0.89 0.92 0.96 1.01 1.07 1.13 1.18 1.22 1.24 1.22 1.20 1.21 1.26 1.33 1.35 1.37 1.40 1.46 1.51 1.60 1.62 1.63 1.63 1.60 1.53 1.46 1.39 1.28 1.18 1.12 1.09 1.08 1.08 1.07 1.07 1.09 1.11 1.13 1.16 1.18 1.19 1.21 1.21 1.20 1.21 1.19 1.18 1.18 1.16 1.17 1.22 1.25 1.26 1.27 1.27 1.26 1.27 1.29 1.28
0.73 0.74 0.80 0.83 0.86 0.90 0.94 0.98 1.03 1.07 1.08 1.12 1.16 1.17 1.18 1.21 1.29 1.34 1.35 1.38 1.43 1.44 1.50 1.55 1.56 1.58 1.60 1.58 1.56 1.55 1.52 1.44 1.32 1.21 1.14 1.11 1.08 1.07 1.07 1.09 1.12 1.14 1.16 1.18 1.19 1.20 1.22 1.22 1.22 1.20 1.17 1.17 1.20 1.22 1.24 1.25 1.29 1.30 1.28 1.28 1.26 1.26 1.29
0.75 0.75 0.82 0.89 0.91 0.94 0.96 0.99 1.02 1.04 1.07 1.11 1.15 1.18 1.25 1.28 1.31 1.37 1.40 1.43 1.44 1.44 1.48 1.52 1.50 1.51 1.53 1.55 1.60 1.61 1.58 1.51 1.44 1.35 1.23 1.17 1.13 1.11 1.09 1.08 1.12 1.15 1.17 1.19 1.21 1.21 1.24 1.24 1.21 1.20 1.21 1.21 1.22 1.22 1.23 1.25 1.27 1.27 1.29 1.29 1.30 1.30 1.30
0.81 0.86 0.90 0.94 0.97 0.98 0.98 0.97 1.00 1.01 1.07 1.15 1.22 1.26 1.33 1.35 1.38 1.41 1.41 1.44 1.44 1.46 1.50 1.51 1.52 1.51 1.52 1.57 1.62 1.63 1.61 1.58 1.54 1.47 1.37 1.29 1.23 1.19 1.16 1.14 1.13 1.15 1.18 1.20 1.23 1.25 1.28 1.27 1.23 1.21 1.24 1.24 1.24 1.24 1.25 1.26 1.27 1.29 1.31 1.33 1.34 1.36 1.36
0.84 0.90 0.95 0.98 1.01 1.02 1.03 1.03 1.07 1.10 1.12 1.17 1.23 1.28 1.32 1.35 1.38 1.38 1.41 1.41 1.45 1.50 1.50 1.49 1.50 1.52 1.53 1.57 1.60 1.61 1.62 1.61 1.57 1.53 1.50 1.43 1.36 1.32 1.29 1.25 1.20 1.19 1.20 1.22 1.27 1.32 1.30 1.28 1.27 1.24 1.25 1.26 1.23 1.22 1.26 1.30 1.34 1.36 1.39 1.42 1.46 1.49 1.51
0.72 0.79 0.81 0.88 0.86 0.95 1.06 1.16 1.16 1.17 1.22 1.29 1.39 1.46 1.53 1.51 1.47 1.48 1.48 1.47 1.50 1.49 1.49 1.47 1.48 1.50 1.52 1.56 1.58 1.61 1.63 1.60 1.57 1.53 1.53 1.55 1.53 1.48 1.43 1.39 1.34 1.28 1.27 1.29 1.35 1.36 1.34 1.31 1.27 1.25 1.24 1.25 1.26 1.27 1.29 1.33 1.39 1.42 1.45 1.49 1.53 1.57 1.60
0.80 0.88 1.00 0.94 0.87 0.89 0.99 1.04 1.08 1.12 1.19 1.17 1.28 1.40 1.48 1.49 1.46 1.45 1.43 1.46 1.47 1.48 1.46 1.46 1.45 1.46 1.50 1.52 1.57 1.61 1.62 1.62 1.59 1.54 1.54 1.58 1.59 1.59 1.56 1.54 1.51 1.46 1.40 1.37 1.36 1.34 1.32 1.31 1.29 1.27 1.26 1.27 1.30 1.32 1.33 1.36 1.42 1.46 1.49 1.52 1.56 1.60 1.63
0.99 1.00 1.04 1.09 1.09 1.02 1.00 0.96 0.94 1.03 1.04 1.08 1.06 1.05 1.14 1.22 1.24 1.23 1.23 1.31 1.35 1.44 1.47 1.45 1.43 1.42 1.46 1.48 1.52 1.56 1.60 1.60 1.59 1.59 1.60 1.60 1.63 1.62 1.60 1.61 1.59 1.54 1.53 1.48 1.42 1.39 1.38 1.38 1.38 1.35 1.33 1.34 1.35 1.34 1.33 1.39 1.47 1.50 1.53 1.56 1.60 1.64 1.66
1.08 1.08 1.12 1.13 1.12 1.11 1.10 1.14 1.15 1.11 1.13 1.12 1.12 1.15 1.14 1.23 1.27 1.28 1.21 1.15 1.12 1.18 1.33 1.41 1.40 1.39 1.41 1.43 1.47 1.52 1.58 1.60 1.59 1.59 1.62 1.64 1.62 1.59 1.60 1.60 1.60 1.60 1.60 1.51 1.45 1.41 1.38 1.36 1.38 1.42 1.42 1.41 1.41 1.37 1.34 1.39 1.50 1.55 1.59 1.63 1.67 1.70 1.70
1.04 1.11 1.17 1.16 1.16 1.12 1.16 1.18 1.16 1.23 1.23 1.11 1.11 1.12 1.19 1.24 1.21 1.23 1.27 1.27 1.19 1.09 1.04 1.14 1.26 1.35 1.39 1.41 1.45 1.49 1.56 1.60 1.59 1.57 1.58 1.60 1.58 1.58 1.59 1.61 1.62 1.60 1.62 1.52 1.47 1.44 1.44 1.46 1.45 1.46 1.46 1.44 1.43 1.43 1.40 1.42 1.52 1.57 1.61 1.66 1.71 1.73 1.73
1.06 1.07 1.11 1.14 1.12 1.11 1.16 1.17 1.14 1.18 1.19 1.15 1.05 1.10 1.14 1.12 1.16 1.16 1.17 1.19 1.24 1.19 1.12 1.06 1.08 1.17 1.27 1.37 1.45 1.49 1.52 1.56 1.58 1.56 1.56 1.54 1.56 1.59 1.58 1.58 1.57 1.61 1.64 1.61 1.60 1.56 1.57 1.56 1.51 1.50 1.50 1.50 1.50 1.52 1.49 1.50 1.57 1.61 1.62 1.66 1.72 1.77 1.81
1.11 1.07 1.05 1.11 1.20 1.19 1.17 1.22 1.18 1.05 1.03 1.07 1.10 1.22 1.16 1.07 1.04 1.08 1.11 1.15 1.19 1.14 1.09 1.07 1.10 1.19 1.22 1.26 1.37 1.45 1.49 1.51 1.52 1.54 1.55 1.57 1.61 1.65 1.66 1.68 1.66 1.62 1.61 1.62 1.63 1.60 1.60 1.59 1.56 1.51 1.51 1.54 1.54 1.54 1.56 1.55 1.60 1.66 1.66 1.69 1.73 1.78 1.82
1.17 1.11 1.09 1.17 1.18 1.21 1.10 1.08 1.08 1.01 0.96 1.01 1.05 1.10 1.16 1.14 1.01 0.98 1.03 1.07 1.06 1.07 1.11 1.16 1.18 1.20 1.23 1.26 1.28 1.33 1.41 1.47 1.49 1.49 1.53 1.59 1.64 1.69 1.71 1.72 1.69 1.69 1.66 1.63 1.64 1.62 1.59 1.56 1.55 1.53 1.53 1.56 1.57 1.57 1.58 1.61 1.62 1.68 1.71 1.72 1.74 1.77 1.78
1.08 1.07 1.13 1.16 1.20 1.17 1.08 1.06 1.00 0.93 0.97 0.94 0.91 0.92 0.95 1.02 1.00 0.96 0.99 0.97 0.97 1.04 1.13 1.17 1.14 1.14 1.17 1.19 1.23 1.28 1.34 1.40 1.47 1.51 1.53 1.58 1.63 1.64 1.67 1.74 1.75 1.72 1.70 1.68 1.64 1.60 1.57 1.57 1.56 1.53 1.54 1.58 1.62 1.62 1.62 1.67 1.67 1.69 1.74 1.76 1.79 1.81 1.82
0.99 0.99 0.99 1.00 1.12 1.14 1.09 1.06 1.02 0.96 0.98 0.96 0.94 0.90 0.92 0.93 0.93 0.97 0.95 0.88 0.98 1.08 1.11 1.11 1.11 1.10 1.11 1.14 1.19 1.25 1.32 1.38 1.43 1.48 1.55 1.57 1.60 1.61 1.62 1.71 1.73 1.73 1.72 1.67 1.64 1.61 1.58 1.58 1.57 1.54 1.52 1.54 1.59 1.64 1.68 1.72 1.76 1.78 1.80 1.82 1.85 1.86 1.86
1.00 1.02 1.04 1.09 1.10 1.09 1.10 1.07 1.10 1.06 1.01 0.99 0.99 0.97 0.99 1.01 1.02 1.08 0.99 0.92 1.03 1.08 1.11 1.14 1.13 1.13 1.12 1.14 1.20 1.26 1.32 1.38 1.44 1.49 1.54 1.58 1.60 1.61 1.61 1.62 1.66 1.70 1.70 1.69 1.66 1.62 1.58 1.59 1.60 1.58 1.53 1.51 1.54 1.62 1.70 1.77 1.81 1.83 1.86 1.87 1.87 1.86 1.85
0.96 0.99 1.01 1.05 1.07 1.06 1.12 1.10 1.11 1.08 1.05 1.03 1.03 1.05 1.11 1.18 1.13 1.10 1.03 1.10 1.17 1.11 1.06 1.10 1.13 1.14 1.14 1.16 1.22 1.27 1.33 1.40 1.44 1.49 1.53 1.59 1.61 1.58 1.60 1.63 1.65 1.61 1.67 1.70 1.67 1.64 1.60 1.61 1.64 1.60 1.58 1.58 1.57 1.61 1.69 1.78 1.86 1.90 1.93 1.91 1.87 1.84 1.83
0.97 1.03 1.06 1.09 1.09 1.04 1.06 1.12 1.13 1.07 1.01 1.02 1.08 1.10 1.15 1.20 1.21 1.12 1.14 1.25 1.25 1.24 1.19 1.16 1.15 1.16 1.18 1.22 1.25 1.31 1.36 1.38 1.43 1.49 1.54 1.59 1.63 1.62 1.65 1.65 1.66 1.62 1.64 1.66 1.65 1.65 1.62 1.62 1.65 1.65 1.65 1.64 1.66 1.67 1.70 1.77 1.79 1.84 1.91 1.86 1.81 1.80 1.82
0.92 0.98 1.05 1.05 1.12 1.09 1.05 1.06 1.05 1.06 1.03 0.99 1.04 1.12 1.15 1.20 1.24 1.24 1.25 1.26 1.28 1.29 1.28 1.24 1.23 1.23 1.23 1.26 1.31 1.37 1.42 1.40 1.42 1.48 1.55 1.59 1.65 1.68 1.70 1.70 1.69 1.66 1.64 1.65 1.65 1.65 1.66 1.66 1.67 1.68 1.69 1.68 1.70 1.74 1.77 1.77 1.82 1.82 1.80 1.83 1.83 1.82 1.83
0.93 0.99 1.08 1.13 1.17 1.13 1.10 1.05 1.06 1.05 1.04 1.03 1.07 1.15 1.15 1.18 1.21 1.27 1.27 1.27 1.30 1.33 1.32 1.30 1.30 1.31 1.31 1.31 1.34 1.38 1.42 1.45 1.50 1.51 1.53 1.59 1.63 1.66 1.70 1.73 1.75 1.71 1.68 1.68 1.68 1.65 1.64 1.67 1.68 1.67 1.68 1.69 1.73 1.75 1.77 1.81 1.79 1.80 1.79 1.80 1.82 1.82 1.83
1.01 1.03 1.12 1.13 1.17 1.14 1.08 1.05 1.05 1.06 1.06 1.08 1.18 1.22 1.21 1.21 1.24 1.29 1.32 1.30 1.29 1.30 1.26 1.29 1.34 1.39 1.38 1.41 1.39 1.39 1.43 1.46 1.51 1.55 1.58 1.62 1.68 1.75 1.78 1.72 1.70 1.71 1.76 1.81 1.85 1.81 1.74 1.73 1.75 1.77 1.80 1.79 1.76 1.72 1.69 1.70 1.70 1.76 1.83 1.84 1.85 1.83 1.78
1.10 1.10 1.17 1.19 1.20 1.17 1.13 1.13 1.07 1.07 1.08 1.16 1.25 1.28 1.28 1.29 1.32 1.30 1.34 1.36 1.38 1.38 1.32 1.28 1.36 1.38 1.40 1.42 1.42 1.42 1.41 1.43 1.47 1.55 1.58 1.62 1.66 1.69 1.68 1.75 1.77 1.83 1.73 1.70 1.76 1.83 1.88 1.88 1.82 1.83 1.81 1.75 1.76 1.78 1.74 1.69 1.75 1.82 1.80 1.78 1.74 1.73 1.70
1.13 1.10 1.13 1.19 1.19 1.21 1.16 1.13 1.13 1.12 1.11 1.23 1.29 1.27 1.30 1.34 1.31 1.33 1.35 1.38 1.43 1.43 1.37 1.31 1.36 1.39 1.39 1.41 1.41 1.42 1.40 1.42 1.46 1.54 1.57 1.61 1.62 1.60 1.55 1.59 1.71 1.82 1.83 1.83 1.82 1.82 1.82 1.83 1.85 1.88 1.89 1.86 1.77 1.77 1.78 1.75 1.72 1.68 1.67 1.65 1.63 1.60 1.56
1.14 1.18 1.16 1.21 1.25 1.26 1.24 1.21 1.20 1.19 1.17 1.24 1.28 1.29 1.29 1.26 1.27 1.32 1.38 1.38 1.45 1.48 1.45 1.45 1.47 1.40 1.39 1.42 1.44 1.46 1.47 1.49 1.51 1.50 1.53 1.58 1.65 1.63 1.58 1.57 1.52 1.55 1.66 1.69 1.72 1.74 1.74 1.73 1.71 1.71 1.69 1.69 1.67 1.63 1.61 1.61 1.60 1.58 1.55 1.52 1.48 1.45 1.42

ECMWFFLT1_prec_pwat_036.txt.gz
Precipitable_Water
1.03 1.09 1.14 1.18 1.22 1.25 1.27 1.29 1.29 1.27 1.26 1.24 1.19 1.18 1.19 1.18 1.15 1.16 1.17 1.21 1.20 1.18 1.20 1.21 1.19 1.21 1.19 1.20 1.21 1.20 1.18 1.15 1.15 1.13 1.11 1.08 1.07 1.06 1.03 1.04 1.02 0.99 1.00 0.97 0.98 1.01 1.08 1.18 1.23 1.28 1.35 1.38 1.37 1.35 1.32 1.33 1.35 1.45 1.52 1.55 1.54 1.55 1.56
0.98 1.06 1.11 1.17 1.20 1.23 1.24 1.27 1.30 1.30 1.28 1.24 1.19 1.18 1.18 1.16 1.16 1.13 1.11 1.15 1.18 1.17 1.18 1.18 1.18 1.17 1.16 1.16 1.19 1.19 1.15 1.13 1.12 1.12 1.12 1.11 1.12 1.11 1.08 1.04 1.02 0.99 0.98 0.97 1.00 1.05 1.11 1.17 1.21 1.24 1.26 1.32 1.35 1.38 1.37 1.36 1.36 1.39 1.45 1.50 1.49 1.50 1.54
0.91 1.01 1.08 1.12 1.17 1.20 1.22 1.26 1.28 1.28 1.27 1.24 1.21 1.21 1.19 1.17 1.16 1.13 1.11 1.11 1.14 1.19 1.23 1.22 1.20 1.17 1.17 1.17 1.17 1.16 1.16 1.13 1.11 1.08 1.05 1.05 1.06 1.07 1.09 1.07 1.04 1.02 1.00 1.02 1.05 1.06 1.10 1.12 1.19 1.21 1.23 1.25 1.31 1.36 1.37 1.36 1.36 1.38 1.41 1.46 1.47 1.46 1.47
0.87 0.97 1.04 1.10 1.15 1.18 1.19 1.21 1.22 1.26 1.28 1.25 1.21 1.20 1.16 1.15 1.17 1.18 1.16 1.11 1.10 1.16 1.18 1.21 1.24 1.22 1.20 1.18 1.17 1.16 1.15 1.16 1.13 1.09 1.06 1.06 1.05 1.08 1.08 1.07 1.05 1.04 1.03 1.00 1.01 1.05 1.08 1.10 1.13 1.16 1.20 1.21 1.25 1.29 1.33 1.32 1.34 1.35 1.37 1.41 1.43 1.44 1.45
0.83 0.95 1.04 1.08 1.12 1.17 1.19 1.19 1.20 1.24 1.25 1.24 1.24 1.20 1.16 1.19 1.22 1.21 1.21 1.20 1.17 1.13 1.16 1.18 1.21 1.22 1.22 1.22 1.18 1.16 1.14 1.14 1.14 1.14 1.11 1.09 1.08 1.10 1.07 1.03 1.02 0.99 0.96 0.99 1.03 1.05 1.08 1.09 1.10 1.12 1.15 1.17 1.18 1.23 1.25 1.29 1.30 1.33 1.33 1.35 1.35 1.40 1.41
0.78 0.85 0.95 1.02 1.08 1.12 1.15 1.17 1.19 1.21 1.22 1.19 1.20 1.22 1.26 1.29 1.28 1.24 1.23 1.23 1.21 1.20 1.22 1.24 1.24 1.23 1.20 1.21 1.19 1.17 1.17 1.18 1.17 1.15 1.12 1.10 1.07 1.05 1.02 1.00 0.99 0.97 0.96 0.95 1.01 1.03 1.07 1.09 1.09 1.11 1.11 1.15 1.17 1.19 1.22 1.23 1.24 1.26 1.26 1.28 1.27 1.29 1.32
0.80 0.86 0.94 0.99 1.03 1.08 1.14 1.18 1.22 1.24 1.24 1.20 1.20 1.26 1.32 1.33 1.27 1.25 1.27 1.25 1.24 1.19 1.20 1.23 1.24 1.24 1.20 1.22 1.20 1.18 1.15 1.14 1.15 1.14 1.15 1.14 1.14 1.08 1.03 1.02 1.01 0.99 0.96 0.98 0.98 1.03 1.06 1.09 1.11 1.13 1.14 1.15 1.17 1.17 1.18 1.19 1.20 1.25 1.24 1.23 1.21 1.22 1.23
0.79 0.84 0.93 0.98 1.02 1.08 1.14 1.18 1.22 1.26 1.28 1.27 1.27 1.28 1.30 1.32 1.30 1.28 1.25 1.24 1.26 1.25 1.22 1.18 1.20 1.22 1.21 1.22 1.20 1.17 1.15 1.14 1.15 1.14 1.14 1.12 1.13 1.10 1.08 1.06 1.04 1.03 1.04 1.00 0.98 1.03 1.04 1.07 1.12 1.15 1.16 1.16 1.15 1.16 1.18 1.19 1.20 1.22 1.23 1.19 1.17 1.18 1.21
0.76 0.80 0.88 0.96 1.01 1.07 1.10 1.13 1.18 1.23 1.25 1.23 1.22 1.24 1.26 1.29 1.29 1.25 1.23 1.25 1.27 1.25 1.21 1.21 1.19 1.21 1.23 1.21 1.18 1.15 1.16 1.15 1.13 1.12 1.12 1.12 1.13 1.11 1.11 1.10 1.08 1.10 1.07 1.03 1.04 1.07 1.07 1.07 1.10 1.12 1.15 1.14 1.14 1.15 1.15 1.16 1.18 1.21 1.20 1.18 1.16 1.13 1.15
0.70 0.79 0.86 0.92 0.99 1.05 1.09 1.13 1.16 1.20 1.22 1.21 1.23 1.26 1.26 1.26 1.26 1.25 1.25 1.26 1.27 1.23 1.24 1.25 1.24 1.24 1.23 1.20 1.17 1.16 1.15 1.13 1.12 1.12 1.12 1.11 1.12 1.11 1.11 1.12 1.11 1.12 1.11 1.11 1.13 1.11 1.11 1.12 1.11 1.13 1.13 1.11 1.11 1.12 1.12 1.14 1.16 1.17 1.18 1.17 1.16 1.13 1.12
0.67 0.73 0.82 0.90 0.98 1.03 1.09 1.16 1.17 1.16 1.17 1.18 1.20 1.21 1.21 1.21 1.24 1.25 1.23 1.27 1.26 1.26 1.30 1.31 1.30 1.26 1.24 1.21 1.16 1.15 1.13 1.10 1.10 1.08 1.09 1.09 1.11 1.11 1.12 1.13 1.14 1.15 1.12 1.12 1.15 1.16 1.16 1.15 1.17 1.15 1.14 1.11 1.08 1.07 1.08 1.10 1.13 1.14 1.14 1.16 1.17 1.16 1.14
0.63 0.71 0.77 0.85 0.94 1.02 1.06 1.10 1.13 1.15 1.16 1.19 1.21 1.19 1.18 1.21 1.26 1.27 1.27 1.27 1.31 1.29 1.31 1.32 1.34 1.30 1.26 1.23 1.17 1.13 1.09 1.06 1.05 1.04 1.05 1.08 1.09 1.10 1.11 1.14 1.16 1.16 1.16 1.16 1.12 1.14 1.18 1.18 1.18 1.14 1.10 1.09 1.08 1.08 1.08 1.11 1.13 1.13 1.12 1.13 1.16 1.17 1.17
0.63 0.68 0.73 0.82 0.92 0.99 1.04 1.07 1.09 1.12 1.14 1.17 1.19 1.19 1.20 1.20 1.24 1.26 1.27 1.29 1.32 1.34 1.34 1.34 1.33 1.31 1.28 1.26 1.21 1.16 1.11 1.07 1.04 1.04 1.05 1.08 1.09 1.12 1.14 1.15 1.17 1.17 1.16 1.18 1.16 1.15 1.15 1.17 1.17 1.16 1.11 1.09 1.09 1.08 1.08 1.11 1.14 1.14 1.14 1.14 1.15 1.15 1.15
0.64 0.67 0.73 0.82 0.93 0.97 0.97 0.98 1.04 1.10 1.14 1.16 1.17 1.18 1.20 1.24 1.24 1.25 1.25 1.25 1.32 1.37 1.38 1.40 1.39 1.36 1.32 1.30 1.26 1.22 1.17 1.12 1.08 1.06 1.07 1.10 1.13 1.14 1.15 1.16 1.17 1.17 1.18 1.20 1.19 1.18 1.17 1.16 1.15 1.14 1.13 1.09 1.08 1.08 1.11 1.12 1.12 1.13 1.15 1.16 1.16 1.16 1.16
0.62 0.65 0.70 0.78 0.86 0.88 0.88 0.90 0.97 1.04 1.10 1.14 1.16 1.15 1.20 1.24 1.25 1.30 1.34 1.34 1.36 1.38 1.39 1.45 1.46 1.43 1.41 1.38 1.34 1.29 1.25 1.20 1.17 1.15 1.14 1.15 1.15 1.16 1.17 1.18 1.18 1.19 1.19 1.20 1.19 1.20 1.19 1.19 1.18 1.15 1.13 1.11 1.09 1.08 1.11 1.11 1.11 1.13 1.15 1.17 1.19 1.22 1.20
0.58 0.64 0.70 0.76 0.81 0.84 0.85 0.88 0.95 1.00 1.06 1.12 1.13 1.12 1.17 1.22 1.25 1.29 1.30 1.30 1.33 1.34 1.40 1.45 1.44 1.45 1.46 1.44 1.42 1.42 1.39 1.35 1.29 1.22 1.19 1.17 1.15 1.16 1.18 1.19 1.19 1.20 1.20 1.19 1.20 1.20 1.20 1.20 1.19 1.17 1.12 1.08 1.08 1.07 1.09 1.13 1.17 1.18 1.19 1.22 1.23 1.24 1.24
0.56 0.64 0.73 0.79 0.83 0.85 0.87 0.91 0.97 1.02 1.05 1.09 1.11 1.12 1.14 1.18 1.23 1.27 1.29 1.31 1.33 1.35 1.41 1.44 1.43 1.45 1.48 1.48 1.52 1.51 1.51 1.48 1.43 1.37 1.29 1.24 1.22 1.20 1.19 1.18 1.20 1.21 1.20 1.20 1.20 1.20 1.20 1.20 1.18 1.15 1.13 1.09 1.06 1.07 1.11 1.14 1.18 1.19 1.20 1.21 1.23 1.26 1.27
0.55 0.64 0.75 0.79 0.83 0.86 0.88 0.92 0.98 1.01 1.04 1.09 1.13 1.15 1.17 1.18 1.21 1.25 1.25 1.28 1.29 1.34 1.43 1.45 1.45 1.43 1.47 1.52 1.54 1.55 1.53 1.53 1.53 1.49 1.43 1.39 1.32 1.26 1.23 1.20 1.19 1.18 1.18 1.19 1.18 1.19 1.22 1.21 1.17 1.14 1.12 1.10 1.09 1.11 1.13 1.15 1.17 1.18 1.20 1.21 1.21 1.25 1.27
0.59 0.67 0.75 0.80 0.84 0.87 0.90 0.93 0.98 1.02 1.08 1.14 1.16 1.17 1.19 1.21 1.20 1.20 1.24 1.26 1.31 1.39 1.40 1.42 1.44 1.47 1.48 1.52 1.55 1.56 1.59 1.60 1.59 1.58 1.56 1.51 1.47 1.42 1.36 1.28 1.21 1.17 1.16 1.15 1.17 1.19 1.19 1.18 1.16 1.13 1.12 1.10 1.08 1.10 1.14 1.15 1.16 1.17 1.18 1.20 1.22 1.25 1.31
0.76 0.81 0.86 0.90 0.92 0.94 0.98 1.03 1.06 1.12 1.16 1.18 1.21 1.22 1.26 1.28 1.23 1.25 1.33 1.37 1.41 1.40 1.41 1.42 1.45 1.48 1.50 1.54 1.57 1.60 1.63 1.64 1.63 1.61 1.62 1.65 1.62 1.57 1.49 1.40 1.30 1.23 1.20 1.19 1.21 1.20 1.19 1.19 1.18 1.15 1.14 1.12 1.11 1.11 1.13 1.15 1.17 1.19 1.20 1.23 1.27 1.32 1.39
0.90 0.90 0.93 0.97 1.01 1.07 1.10 1.12 1.14 1.17 1.20 1.25 1.29 1.35 1.39 1.40 1.39 1.38 1.41 1.45 1.43 1.46 1.45 1.46 1.47 1.49 1.52 1.54 1.58 1.60 1.62 1.64 1.65 1.63 1.65 1.66 1.67 1.66 1.59 1.52 1.45 1.40 1.34 1.27 1.22 1.21 1.20 1.19 1.18 1.18 1.17 1.16 1.16 1.15 1.14 1.17 1.22 1.26 1.29 1.32 1.35 1.40 1.46
1.00 1.01 1.03 1.11 1.13 1.17 1.20 1.23 1.23 1.24 1.25 1.31 1.36 1.42 1.44 1.44 1.46 1.42 1.42 1.47 1.46 1.47 1.48 1.49 1.48 1.48 1.52 1.54 1.57 1.60 1.63 1.64 1.64 1.65 1.66 1.65 1.66 1.64 1.63 1.62 1.58 1.52 1.49 1.43 1.35 1.33 1.32 1.31 1.32 1.29 1.26 1.24 1.23 1.20 1.18 1.23 1.31 1.34 1.38 1.41 1.44 1.49 1.53
1.16 1.18 1.24 1.31 1.34 1.34 1.40 1.42 1.41 1.44 1.45 1.46 1.47 1.48 1.49 1.48 1.48 1.45 1.44 1.43 1.46 1.49 1.51 1.51 1.49 1.49 1.50 1.53 1.57 1.60 1.63 1.64 1.63 1.63 1.63 1.65 1.63 1.62 1.65 1.66 1.67 1.67 1.68 1.59 1.51 1.42 1.36 1.33 1.34 1.36 1.34 1.31 1.29 1.25 1.23 1.28 1.37 1.41 1.44 1.47 1.52 1.56 1.57
1.25 1.31 1.37 1.40 1.44 1.47 1.48 1.49 1.50 1.52 1.52 1.53 1.56 1.62 1.66 1.65 1.62 1.58 1.58 1.57 1.56 1.53 1.48 1.44 1.42 1.47 1.50 1.51 1.57 1.62 1.66 1.68 1.67 1.63 1.62 1.62 1.59 1.61 1.66 1.72 1.75 1.75 1.76 1.68 1.61 1.54 1.49 1.47 1.41 1.39 1.38 1.35 1.34 1.35 1.33 1.35 1.44 1.48 1.50 1.53 1.57 1.59 1.58
1.19 1.18 1.21 1.28 1.32 1.32 1.39 1.46 1.50 1.51 1.51 1.47 1.45 1.54 1.63 1.65 1.65 1.62 1.60 1.62 1.58 1.54 1.49 1.45 1.43 1.42 1.41 1.45 1.53 1.58 1.62 1.64 1.66 1.65 1.63 1.59 1.59 1.63 1.64 1.69 1.73 1.78 1.80 1.76 1.71 1.65 1.64 1.60 1.51 1.47 1.46 1.45 1.44 1.46 1.44 1.44 1.50 1.54 1.56 1.58 1.61 1.63 1.64
1.23 1.22 1.21 1.23 1.25 1.23 1.20 1.21 1.20 1.20 1.23 1.24 1.23 1.35 1.39 1.45 1.47 1.47 1.47 1.47 1.48 1.44 1.41 1.42 1.46 1.50 1.49 1.47 1.47 1.49 1.52 1.55 1.57 1.61 1.61 1.60 1.63 1.64 1.65 1.71 1.74 1.75 1.75 1.74 1.72 1.67 1.64 1.59 1.54 1.49 1.49 1.53 1.54 1.54 1.55 1.54 1.57 1.61 1.62 1.63 1.65 1.67 1.68
1.31 1.32 1.27 1.24 1.23 1.24 1.20 1.21 1.20 1.18 1.17 1.23 1.23 1.26 1.28 1.31 1.29 1.29 1.32 1.32 1.26 1.22 1.28 1.34 1.38 1.37 1.40 1.45 1.45 1.45 1.46 1.51 1.52 1.53 1.58 1.63 1.64 1.66 1.66 1.68 1.68 1.71 1.70 1.67 1.68 1.64 1.60 1.57 1.57 1.55 1.54 1.57 1.58 1.58 1.60 1.62 1.62 1.66 1.68 1.68 1.68 1.69 1.69
1.27 1.29 1.32 1.32 1.31 1.24 1.20 1.16 1.14 1.12 1.11 1.12 1.10 1.09 1.08 1.10 1.09 1.14 1.21 1.22 1.19 1.24 1.33 1.35 1.34 1.33 1.30 1.29 1.33 1.38 1.40 1.42 1.47 1.52 1.55 1.61 1.65 1.63 1.63 1.68 1.72 1.71 1.70 1.70 1.66 1.62 1.59 1.59 1.58 1.55 1.55 1.59 1.61 1.61 1.63 1.68 1.69 1.69 1.69 1.70 1.69 1.70 1.71
1.18 1.17 1.17 1.18 1.19 1.24 1.21 1.10 1.07 1.06 1.07 1.10 1.08 1.08 1.04 1.00 0.95 0.98 1.05 1.04 1.14 1.27 1.29 1.29 1.28 1.28 1.27 1.25 1.25 1.29 1.35 1.39 1.42 1.46 1.53 1.55 1.59 1.60 1.58 1.65 1.66 1.68 1.70 1.69 1.67 1.64 1.61 1.60 1.59 1.56 1.55 1.57 1.60 1.64 1.67 1.70 1.72 1.72 1.70 1.70 1.70 1.71 1.73
1.19 1.19 1.18 1.19 1.21 1.22 1.23 1.17 1.14 1.09 1.10 1.12 1.11 1.11 1.09 1.05 1.01 1.01 1.00 1.01 1.16 1.22 1.23 1.23 1.22 1.22 1.19 1.21 1.21 1.24 1.29 1.36 1.41 1.46 1.49 1.51 1.54 1.55 1.55 1.58 1.62 1.65 1.66 1.67 1.65 1.62 1.60 1.61 1.61 1.59 1.55 1.53 1.57 1.64 1.69 1.74 1.75 1.76 1.75 1.74 1.74 1.76 1.78
1.14 1.11 1.08 1.05 1.05 1.11 1.12 1.12 1.12 1.12 1.10 1.11 1.09 1.11 1.10 1.09 1.00 0.99 0.97 1.09 1.18 1.18 1.15 1.16 1.18 1.16 1.11 1.13 1.18 1.19 1.24 1.31 1.37 1.42 1.47 1.52 1.54 1.52 1.53 1.55 1.60 1.59 1.66 1.68 1.66 1.64 1.60 1.61 1.63 1.59 1.58 1.58 1.56 1.61 1.68 1.74 1.79 1.80 1.80 1.79 1.78 1.79 1.79
1.16 1.15 1.12 1.06 1.01 0.98 0.95 0.95 0.96 0.97 0.97 1.00 1.02 1.03 1.07 1.07 1.05 0.96 1.01 1.13 1.15 1.16 1.16 1.13 1.09 1.06 1.05 1.06 1.11 1.19 1.26 1.27 1.33 1.42 1.48 1.53 1.58 1.57 1.59 1.58 1.59 1.59 1.62 1.66 1.66 1.66 1.64 1.63 1.64 1.63 1.61 1.58 1.60 1.62 1.67 1.74 1.78 1.79 1.80 1.82 1.83 1.83 1.86
1.10 1.11 1.09 1.05 1.06 1.03 0.94 0.87 0.82 0.84 0.88 0.90 0.98 1.02 1.05 1.06 1.09 1.10 1.13 1.16 1.20 1.20 1.18 1.14 1.11 1.08 1.08 1.06 1.11 1.18 1.25 1.27 1.30 1.37 1.47 1.54 1.60 1.64 1.66 1.67 1.66 1.65 1.63 1.64 1.63 1.64 1.65 1.65 1.65 1.64 1.64 1.60 1.61 1.65 1.69 1.72 1.76 1.76 1.79 1.84 1.86 1.88 1.92
1.11 1.11 1.12 1.13 1.11 1.09 1.02 0.94 0.88 0.87 0.89 0.90 0.97 1.01 1.04 1.06 1.10 1.15 1.16 1.19 1.22 1.21 1.20 1.17 1.17 1.13 1.13 1.11 1.12 1.15 1.19 1.23 1.29 1.34 1.42 1.52 1.60 1.62 1.66 1.69 1.70 1.65 1.63 1.62 1.61 1.58 1.58 1.60 1.60 1.58 1.58 1.57 1.61 1.65 1.67 1.70 1.72 1.77 1.79 1.83 1.84 1.84 1.85
1.14 1.15 1.15 1.12 1.11 1.10 1.04 1.01 0.96 0.95 0.96 0.98 1.06 1.08 1.09 1.10 1.13 1.16 1.16 1.18 1.20 1.20 1.15 1.14 1.20 1.23 1.23 1.24 1.21 1.19 1.24 1.26 1.30 1.33 1.40 1.50 1.53 1.56 1.61 1.63 1.67 1.68 1.68 1.69 1.69 1.70 1.63 1.59 1.61 1.64 1.68 1.69 1.66 1.62 1.64 1.70 1.73 1.81 1.88 1.87 1.87 1.88 1.86
1.12 1.14 1.14 1.17 1.19 1.18 1.14 1.09 1.03 1.00 1.01 1.07 1.12 1.14 1.16 1.16 1.17 1.18 1.18 1.18 1.19 1.22 1.17 1.16 1.21 1.27 1.27 1.32 1.30 1.30 1.31 1.33 1.36 1.40 1.44 1.43 1.43 1.46 1.53 1.63 1.69 1.73 1.68 1.65 1.72 1.78 1.86 1.89 1.83 1.86 1.83 1.74 1.76 1.82 1.79 1.78 1.87 1.91 1.89 1.87 1.86 1.86 1.85
1.01 1.03 1.05 1.09 1.10 1.12 1.15 1.14 1.10 1.08 1.06 1.12 1.15 1.15 1.19 1.20 1.23 1.22 1.23 1.23 1.27 1.28 1.27 1.27 1.23 1.27 1.32 1.35 1.37 1.38 1.39 1.42 1.42 1.47 1.49 1.47 1.46 1.48 1.48 1.51 1.60 1.68 1.70 1.70 1.76 1.82 1.82 1.86 1.90 1.94 1.97 1.95 1.87 1.87 1.87 1.84 1.82 1.79 1.78 1.78 1.77 1.75 1.73
0.98 1.03 1.06 1.09 1.07 1.08 1.15 1.18 1.15 1.10 1.10 1.16 1.19 1.18 1.20 1.21 1.24 1.25 1.27 1.31 1.34 1.40 1.37 1.34 1.29 1.28 1.33 1.39 1.44 1.47 1.47 1.48 1.50 1.52 1.49 1.49 1.51 1.50 1.48 1.48 1.48 1.56 1.64 1.65 1.71 1.76 1.78 1.76 1.74 1.74 1.74 1.80 1.84 1.80 1.75 1.74 1.74 1.75 1.76 1.76 1.75 1.72 1.68

ECMWFFLT1_prec_pwat_042.txt.gz
Precipitable_Water
1.00 1.07 1.15 1.20 1.22 1.23 1.22 1.25 1.26 1.27 1.28 1.31 1.34 1.36 1.37 1.35 1.33 1.31 1.25 1.23 1.21 1.22 1.30 1.33 1.33 1.33 1.29 1.29 1.32 1.34 1.36 1.36 1.36 1.32 1.29 1.26 1.24 1.23 1.21 1.22 1.20 1.21 1.23 1.20 1.21 1.21 1.25 1.33 1.32 1.32 1.34 1.33 1.30 1.31 1.32 1.35 1.37 1.40 1.43 1.47 1.48 1.49 1.51
0.98 1.04 1.11 1.18 1.20 1.21 1.22 1.26 1.28 1.30 1.32 1.34 1.35 1.38 1.38 1.35 1.33 1.29 1.26 1.25 1.21 1.20 1.24 1.30 1.33 1.32 1.30 1.28 1.30 1.32 1.32 1.33 1.34 1.35 1.33 1.29 1.28 1.27 1.26 1.23 1.20 1.20 1.22 1.23 1.23 1.25 1.26 1.27 1.29 1.29 1.29 1.30 1.29 1.31 1.31 1.32 1.35 1.37 1.39 1.41 1.41 1.43 1.48
0.91 0.99 1.06 1.14 1.17 1.19 1.20 1.25 1.29 1.30 1.30 1.33 1.35 1.36 1.35 1.34 1.33 1.27 1.26 1.26 1.23 1.23 1.26 1.28 1.30 1.30 1.31 1.31 1.29 1.29 1.31 1.32 1.32 1.31 1.27 1.23 1.21 1.22 1.25 1.24 1.22 1.20 1.20 1.24 1.24 1.23 1.26 1.25 1.28 1.29 1.27 1.26 1.26 1.27 1.28 1.29 1.31 1.35 1.37 1.39 1.37 1.36 1.39
0.85 0.93 1.01 1.09 1.13 1.17 1.20 1.23 1.24 1.26 1.29 1.31 1.31 1.33 1.36 1.37 1.38 1.36 1.32 1.29 1.26 1.24 1.20 1.23 1.28 1.29 1.30 1.28 1.27 1.27 1.28 1.30 1.30 1.28 1.26 1.26 1.24 1.26 1.25 1.24 1.24 1.24 1.21 1.18 1.21 1.24 1.25 1.25 1.24 1.24 1.25 1.21 1.21 1.23 1.25 1.25 1.27 1.30 1.34 1.36 1.35 1.34 1.34
0.83 0.90 0.97 1.04 1.09 1.14 1.19 1.22 1.24 1.27 1.27 1.30 1.34 1.38 1.41 1.42 1.43 1.40 1.36 1.34 1.31 1.24 1.21 1.22 1.26 1.29 1.32 1.32 1.29 1.28 1.27 1.27 1.28 1.28 1.28 1.28 1.30 1.30 1.25 1.22 1.22 1.20 1.18 1.20 1.23 1.23 1.22 1.21 1.18 1.18 1.18 1.17 1.15 1.18 1.18 1.22 1.24 1.27 1.31 1.35 1.33 1.36 1.34
0.77 0.86 0.92 0.97 1.05 1.10 1.15 1.18 1.21 1.25 1.26 1.28 1.32 1.35 1.40 1.43 1.43 1.37 1.36 1.33 1.31 1.30 1.29 1.28 1.29 1.30 1.28 1.29 1.30 1.29 1.31 1.31 1.31 1.29 1.26 1.27 1.27 1.26 1.23 1.22 1.22 1.20 1.19 1.18 1.21 1.20 1.21 1.19 1.15 1.12 1.10 1.11 1.11 1.12 1.14 1.16 1.20 1.25 1.27 1.32 1.33 1.36 1.36
0.73 0.81 0.87 0.93 0.99 1.05 1.11 1.15 1.19 1.24 1.29 1.32 1.37 1.42 1.45 1.44 1.39 1.37 1.38 1.34 1.32 1.25 1.24 1.24 1.26 1.29 1.29 1.32 1.30 1.30 1.27 1.27 1.27 1.26 1.26 1.25 1.25 1.22 1.22 1.23 1.24 1.23 1.22 1.25 1.21 1.21 1.18 1.16 1.13 1.11 1.09 1.08 1.08 1.08 1.08 1.09 1.13 1.20 1.24 1.26 1.27 1.32 1.34
0.71 0.77 0.84 0.90 0.95 1.00 1.06 1.11 1.16 1.23 1.30 1.36 1.39 1.40 1.39 1.39 1.39 1.37 1.32 1.31 1.31 1.28 1.25 1.21 1.23 1.26 1.30 1.32 1.31 1.28 1.26 1.26 1.28 1.27 1.26 1.22 1.21 1.18 1.18 1.20 1.21 1.22 1.25 1.20 1.19 1.20 1.16 1.14 1.13 1.11 1.09 1.07 1.06 1.07 1.07 1.08 1.11 1.18 1.21 1.20 1.20 1.22 1.28
0.67 0.73 0.78 0.85 0.91 0.97 1.02 1.07 1.13 1.20 1.25 1.28 1.31 1.32 1.35 1.36 1.35 1.32 1.31 1.31 1.29 1.25 1.21 1.22 1.22 1.26 1.30 1.30 1.28 1.27 1.27 1.28 1.26 1.26 1.24 1.20 1.18 1.15 1.15 1.17 1.18 1.23 1.20 1.17 1.17 1.19 1.16 1.12 1.11 1.09 1.09 1.06 1.05 1.06 1.06 1.06 1.09 1.14 1.16 1.15 1.15 1.13 1.15
0.59 0.67 0.74 0.82 0.89 0.95 1.00 1.05 1.14 1.20 1.23 1.27 1.30 1.33 1.35 1.35 1.35 1.35 1.33 1.29 1.26 1.21 1.21 1.23 1.24 1.25 1.28 1.29 1.28 1.29 1.29 1.26 1.26 1.25 1.22 1.18 1.17 1.14 1.14 1.15 1.16 1.19 1.16 1.15 1.16 1.13 1.13 1.13 1.10 1.09 1.07 1.03 1.02 1.03 1.03 1.05 1.07 1.09 1.11 1.10 1.10 1.09 1.08
0.54 0.59 0.63 0.70 0.80 0.88 0.99 1.08 1.13 1.15 1.18 1.22 1.26 1.30 1.33 1.35 1.34 1.33 1.30 1.29 1.24 1.20 1.22 1.23 1.25 1.25 1.24 1.25 1.25 1.28 1.28 1.27 1.27 1.22 1.20 1.17 1.17 1.14 1.14 1.14 1.15 1.16 1.13 1.13 1.10 1.09 1.10 1.11 1.12 1.09 1.05 1.00 0.98 0.98 0.99 1.00 1.04 1.05 1.06 1.09 1.12 1.11 1.11
0.47 0.54 0.59 0.64 0.70 0.84 0.94 1.03 1.08 1.10 1.15 1.20 1.25 1.28 1.31 1.33 1.33 1.33 1.31 1.28 1.28 1.22 1.22 1.24 1.27 1.26 1.24 1.24 1.23 1.25 1.26 1.26 1.26 1.22 1.19 1.17 1.16 1.15 1.15 1.14 1.13 1.11 1.12 1.12 1.08 1.09 1.09 1.07 1.08 1.07 1.02 1.00 0.99 0.99 0.99 1.01 1.04 1.04 1.05 1.08 1.11 1.13 1.13
0.41 0.46 0.53 0.60 0.66 0.76 0.90 0.99 1.03 1.07 1.12 1.17 1.22 1.27 1.30 1.32 1.32 1.31 1.30 1.29 1.30 1.27 1.24 1.24 1.25 1.26 1.24 1.24 1.23 1.22 1.23 1.24 1.23 1.23 1.20 1.19 1.17 1.18 1.17 1.14 1.12 1.11 1.08 1.11 1.09 1.08 1.06 1.06 1.05 1.06 1.04 1.02 1.03 1.01 1.00 1.01 1.03 1.04 1.05 1.07 1.09 1.09 1.09
0.38 0.43 0.48 0.57 0.65 0.70 0.80 0.91 0.99 1.05 1.11 1.15 1.20 1.27 1.31 1.34 1.33 1.30 1.28 1.26 1.27 1.28 1.27 1.27 1.25 1.25 1.25 1.25 1.23 1.21 1.21 1.22 1.25 1.25 1.23 1.22 1.20 1.18 1.16 1.14 1.12 1.10 1.10 1.12 1.09 1.06 1.04 1.03 1.03 1.05 1.08 1.06 1.06 1.05 1.06 1.06 1.05 1.05 1.04 1.05 1.05 1.05 1.04
0.34 0.39 0.46 0.53 0.60 0.67 0.74 0.83 0.93 1.00 1.06 1.12 1.18 1.24 1.29 1.32 1.34 1.35 1.33 1.32 1.31 1.29 1.27 1.29 1.26 1.23 1.22 1.22 1.20 1.20 1.21 1.24 1.25 1.26 1.25 1.23 1.20 1.17 1.14 1.13 1.12 1.12 1.12 1.11 1.08 1.07 1.05 1.06 1.08 1.08 1.08 1.10 1.10 1.09 1.10 1.08 1.04 1.03 1.01 1.00 1.01 1.02 1.00
0.34 0.37 0.43 0.51 0.57 0.62 0.70 0.78 0.85 0.94 1.02 1.09 1.15 1.22 1.28 1.31 1.32 1.31 1.27 1.25 1.27 1.27 1.30 1.32 1.27 1.25 1.24 1.22 1.20 1.22 1.24 1.25 1.24 1.23 1.22 1.20 1.16 1.14 1.13 1.13 1.12 1.11 1.10 1.09 1.08 1.07 1.07 1.08 1.10 1.10 1.09 1.08 1.10 1.13 1.13 1.10 1.07 1.03 1.02 1.02 1.00 0.99 0.99
0.36 0.38 0.41 0.49 0.56 0.58 0.63 0.72 0.84 0.93 1.00 1.06 1.12 1.19 1.25 1.29 1.30 1.30 1.29 1.27 1.26 1.26 1.30 1.30 1.26 1.25 1.24 1.22 1.25 1.26 1.28 1.26 1.23 1.22 1.18 1.16 1.16 1.15 1.14 1.12 1.12 1.11 1.09 1.08 1.08 1.07 1.08 1.10 1.08 1.08 1.09 1.10 1.10 1.12 1.13 1.11 1.08 1.04 1.03 1.02 1.02 1.03 1.01
0.42 0.41 0.41 0.46 0.54 0.57 0.59 0.69 0.80 0.91 0.97 1.03 1.11 1.19 1.25 1.28 1.31 1.31 1.27 1.26 1.24 1.26 1.30 1.28 1.26 1.23 1.23 1.24 1.27 1.28 1.26 1.25 1.24 1.20 1.17 1.18 1.15 1.14 1.14 1.15 1.13 1.10 1.08 1.08 1.07 1.08 1.11 1.10 1.09 1.09 1.11 1.12 1.13 1.13 1.13 1.12 1.11 1.09 1.07 1.05 1.03 1.04 1.03
0.48 0.46 0.42 0.46 0.53 0.58 0.61 0.67 0.76 0.87 0.96 1.04 1.10 1.16 1.22 1.27 1.27 1.25 1.25 1.25 1.26 1.30 1.27 1.25 1.25 1.24 1.24 1.26 1.27 1.26 1.26 1.26 1.22 1.19 1.18 1.17 1.17 1.17 1.17 1.15 1.12 1.10 1.08 1.06 1.08 1.11 1.11 1.10 1.11 1.11 1.13 1.13 1.11 1.10 1.11 1.12 1.12 1.12 1.09 1.07 1.05 1.04 1.06
0.51 0.50 0.48 0.49 0.55 0.59 0.64 0.70 0.79 0.89 0.97 1.04 1.10 1.14 1.21 1.27 1.25 1.27 1.32 1.33 1.35 1.31 1.28 1.27 1.28 1.30 1.30 1.33 1.32 1.32 1.31 1.29 1.25 1.20 1.19 1.20 1.20 1.19 1.16 1.13 1.10 1.10 1.12 1.12 1.14 1.13 1.13 1.13 1.12 1.12 1.13 1.14 1.13 1.12 1.13 1.12 1.11 1.11 1.10 1.09 1.07 1.07 1.10
0.51 0.50 0.52 0.57 0.60 0.64 0.69 0.74 0.83 0.93 1.04 1.13 1.18 1.24 1.28 1.32 1.36 1.39 1.38 1.36 1.34 1.34 1.32 1.32 1.33 1.34 1.37 1.36 1.39 1.40 1.39 1.38 1.35 1.31 1.29 1.28 1.25 1.21 1.17 1.15 1.14 1.14 1.16 1.18 1.17 1.16 1.13 1.11 1.11 1.12 1.13 1.14 1.15 1.14 1.12 1.12 1.14 1.13 1.11 1.10 1.11 1.14 1.18
0.56 0.56 0.55 0.58 0.63 0.69 0.73 0.78 0.83 0.93 1.04 1.17 1.23 1.25 1.28 1.29 1.34 1.35 1.35 1.37 1.34 1.34 1.34 1.35 1.34 1.36 1.39 1.39 1.42 1.44 1.46 1.46 1.45 1.45 1.44 1.42 1.38 1.33 1.28 1.26 1.23 1.20 1.24 1.25 1.25 1.26 1.26 1.25 1.24 1.19 1.16 1.17 1.19 1.17 1.12 1.12 1.15 1.14 1.13 1.13 1.15 1.20 1.22
0.71 0.64 0.66 0.70 0.73 0.76 0.82 0.86 0.93 1.06 1.16 1.20 1.24 1.26 1.27 1.33 1.36 1.36 1.36 1.34 1.33 1.33 1.34 1.35 1.34 1.34 1.36 1.37 1.43 1.47 1.51 1.53 1.53 1.53 1.53 1.54 1.51 1.49 1.48 1.46 1.44 1.42 1.43 1.36 1.33 1.29 1.27 1.24 1.24 1.23 1.20 1.19 1.20 1.17 1.12 1.11 1.15 1.15 1.15 1.16 1.20 1.21 1.22
0.93 0.84 0.79 0.78 0.83 0.87 0.91 1.00 1.11 1.19 1.20 1.23 1.26 1.30 1.33 1.35 1.35 1.35 1.34 1.34 1.35 1.32 1.31 1.31 1.31 1.35 1.37 1.38 1.45 1.50 1.54 1.57 1.58 1.59 1.61 1.63 1.62 1.63 1.66 1.68 1.68 1.65 1.66 1.56 1.49 1.42 1.38 1.36 1.33 1.32 1.29 1.23 1.18 1.18 1.14 1.13 1.17 1.19 1.19 1.20 1.22 1.23 1.22
1.05 0.99 0.95 0.92 0.87 0.87 0.95 1.05 1.12 1.18 1.23 1.27 1.26 1.31 1.35 1.36 1.37 1.36 1.34 1.35 1.34 1.33 1.30 1.29 1.34 1.39 1.41 1.45 1.52 1.58 1.62 1.65 1.66 1.67 1.68 1.68 1.71 1.73 1.72 1.73 1.74 1.77 1.78 1.74 1.70 1.64 1.64 1.60 1.51 1.46 1.43 1.38 1.32 1.30 1.26 1.23 1.23 1.26 1.25 1.26 1.26 1.27 1.27
1.08 1.06 1.04 1.05 1.05 1.06 1.10 1.16 1.17 1.18 1.20 1.21 1.24 1.32 1.35 1.37 1.37 1.35 1.34 1.34 1.35 1.32 1.30 1.34 1.39 1.46 1.50 1.54 1.57 1.61 1.62 1.66 1.67 1.69 1.70 1.72 1.74 1.77 1.77 1.80 1.79 1.79 1.78 1.79 1.79 1.76 1.75 1.73 1.68 1.61 1.56 1.55 1.51 1.46 1.43 1.38 1.35 1.36 1.35 1.35 1.36 1.36 1.37
1.21 1.19 1.12 1.11 1.11 1.19 1.20 1.22 1.21 1.21 1.23 1.26 1.30 1.31 1.35 1.37 1.35 1.34 1.35 1.37 1.33 1.30 1.34 1.42 1.48 1.50 1.51 1.54 1.56 1.57 1.60 1.65 1.67 1.68 1.72 1.75 1.75 1.79 1.79 1.80 1.78 1.79 1.78 1.77 1.80 1.80 1.79 1.77 1.76 1.73 1.71 1.70 1.66 1.61 1.58 1.57 1.50 1.49 1.49 1.49 1.49 1.50 1.47
1.26 1.24 1.25 1.25 1.25 1.24 1.26 1.28 1.29 1.32 1.36 1.39 1.37 1.35 1.35 1.35 1.31 1.33 1.36 1.36 1.32 1.36 1.46 1.49 1.52 1.55 1.56 1.56 1.56 1.59 1.63 1.67 1.72 1.75 1.76 1.79 1.80 1.78 1.77 1.81 1.83 1.81 1.80 1.79 1.78 1.76 1.76 1.79 1.80 1.78 1.79 1.81 1.79 1.72 1.68 1.70 1.69 1.65 1.63 1.63 1.63 1.61 1.58
1.25 1.24 1.24 1.25 1.26 1.33 1.34 1.32 1.34 1.38 1.41 1.46 1.45 1.43 1.40 1.37 1.35 1.37 1.39 1.36 1.41 1.52 1.56 1.59 1.60 1.59 1.59 1.61 1.62 1.61 1.60 1.62 1.65 1.69 1.74 1.75 1.77 1.76 1.74 1.80 1.81 1.81 1.81 1.78 1.74 1.72 1.72 1.75 1.78 1.77 1.78 1.82 1.85 1.85 1.81 1.79 1.79 1.78 1.75 1.73 1.71 1.68 1.64
1.33 1.31 1.31 1.35 1.39 1.41 1.43 1.40 1.43 1.45 1.50 1.53 1.54 1.54 1.51 1.45 1.42 1.43 1.44 1.47 1.63 1.66 1.67 1.68 1.69 1.68 1.63 1.60 1.60 1.60 1.59 1.58 1.61 1.65 1.67 1.67 1.69 1.69 1.67 1.70 1.73 1.76 1.76 1.75 1.72 1.68 1.65 1.69 1.73 1.74 1.73 1.74 1.79 1.86 1.89 1.90 1.87 1.86 1.84 1.81 1.76 1.71 1.68
1.35 1.33 1.34 1.35 1.38 1.49 1.52 1.49 1.49 1.51 1.54 1.60 1.61 1.64 1.63 1.62 1.55 1.53 1.53 1.65 1.74 1.74 1.71 1.69 1.67 1.63 1.60 1.59 1.57 1.54 1.53 1.54 1.54 1.56 1.59 1.63 1.64 1.59 1.59 1.60 1.65 1.64 1.70 1.70 1.68 1.66 1.63 1.64 1.67 1.66 1.68 1.70 1.71 1.77 1.85 1.90 1.90 1.88 1.87 1.84 1.81 1.78 1.76
1.38 1.40 1.40 1.41 1.42 1.46 1.51 1.56 1.58 1.57 1.54 1.60 1.68 1.71 1.73 1.73 1.70 1.60 1.64 1.74 1.72 1.70 1.67 1.61 1.55 1.50 1.49 1.52 1.52 1.52 1.49 1.42 1.40 1.43 1.48 1.53 1.57 1.57 1.59 1.56 1.55 1.52 1.57 1.60 1.61 1.61 1.60 1.62 1.64 1.62 1.63 1.63 1.68 1.71 1.75 1.81 1.82 1.82 1.84 1.83 1.82 1.81 1.81
1.36 1.37 1.40 1.38 1.45 1.49 1.47 1.48 1.46 1.50 1.53 1.54 1.63 1.67 1.70 1.68 1.68 1.67 1.67 1.65 1.65 1.62 1.58 1.52 1.49 1.45 1.39 1.34 1.39 1.43 1.43 1.37 1.34 1.33 1.37 1.41 1.48 1.53 1.56 1.57 1.55 1.52 1.50 1.50 1.50 1.53 1.55 1.58 1.59 1.61 1.63 1.62 1.65 1.69 1.72 1.72 1.74 1.77 1.81 1.85 1.84 1.83 1.85
1.36 1.38 1.42 1.48 1.50 1.51 1.48 1.44 1.39 1.38 1.40 1.40 1.44 1.46 1.45 1.42 1.39 1.40 1.43 1.48 1.51 1.50 1.47 1.40 1.37 1.32 1.28 1.27 1.31 1.35 1.37 1.34 1.34 1.34 1.35 1.37 1.39 1.39 1.44 1.50 1.52 1.48 1.45 1.44 1.45 1.45 1.48 1.53 1.55 1.56 1.59 1.62 1.67 1.70 1.72 1.73 1.75 1.77 1.79 1.82 1.83 1.84 1.86
1.34 1.38 1.42 1.44 1.49 1.52 1.48 1.45 1.41 1.38 1.35 1.36 1.40 1.40 1.37 1.33 1.35 1.37 1.36 1.35 1.34 1.30 1.23 1.21 1.23 1.25 1.25 1.30 1.28 1.29 1.32 1.29 1.28 1.29 1.31 1.33 1.36 1.36 1.37 1.37 1.41 1.44 1.49 1.57 1.59 1.55 1.52 1.55 1.61 1.65 1.68 1.69 1.67 1.65 1.65 1.70 1.72 1.82 1.94 1.93 1.92 1.89 1.87
1.25 1.34 1.40 1.46 1.49 1.49 1.49 1.47 1.42 1.39 1.36 1.35 1.38 1.35 1.35 1.36 1.38 1.42 1.44 1.43 1.39 1.34 1.24 1.21 1.21 1.21 1.24 1.27 1.28 1.29 1.29 1.27 1.26 1.26 1.27 1.29 1.31 1.34 1.38 1.45 1.47 1.50 1.52 1.54 1.61 1.64 1.65 1.67 1.65 1.73 1.77 1.73 1.74 1.74 1.69 1.68 1.80 1.88 1.91 1.92 1.93 1.94 1.92
1.05 1.21 1.34 1.41 1.42 1.41 1.42 1.42 1.42 1.37 1.33 1.33 1.36 1.35 1.33 1.34 1.37 1.38 1.39 1.37 1.34 1.31 1.28 1.25 1.19 1.18 1.20 1.26 1.26 1.31 1.30 1.28 1.25 1.25 1.27 1.31 1.33 1.37 1.39 1.43 1.52 1.58 1.61 1.61 1.63 1.65 1.67 1.70 1.74 1.78 1.81 1.78 1.72 1.76 1.80 1.80 1.81 1.82 1.81 1.81 1.82 1.83 1.84
0.97 1.09 1.26 1.38 1.40 1.39 1.38 1.37 1.37 1.36 1.34 1.36 1.35 1.33 1.33 1.32 1.31 1.28 1.28 1.29 1.28 1.26 1.20 1.17 1.13 1.10 1.15 1.23 1.30 1.34 1.36 1.32 1.29 1.27 1.26 1.30 1.35 1.39 1.39 1.40 1.40 1.47 1.57 1.61 1.63 1.65 1.67 1.70 1.73 1.76 1.78 1.78 1.74 1.70 1.68 1.71 1.78 1.87 1.87 1.86 1.87 1.89 1.91

ECMWFFLT1_prec_pwat_045.txt.gz
Precipitable_Water
1.02 1.06 1.11 1.16 1.20 1.24 1.25 1.29 1.31 1.33 1.35 1.37 1.37 1.33 1.31 1.30 1.27 1.24 1.22 1.25 1.26 1.29 1.35 1.38 1.38 1.38 1.34 1.35 1.38 1.39 1.40 1.39 1.37 1.32 1.30 1.29 1.28 1.27 1.23 1.22 1.18 1.17 1.19 1.18 1.22 1.25 1.30 1.34 1.34 1.36 1.41 1.43 1.42 1.43 1.44 1.45 1.45 1.48 1.50 1.51 1.50 1.50 1.51
0.95 1.00 1.04 1.11 1.15 1.20 1.24 1.27 1.30 1.33 1.36 1.38 1.39 1.40 1.37 1.31 1.29 1.25 1.21 1.22 1.24 1.26 1.31 1.36 1.37 1.37 1.35 1.34 1.37 1.39 1.38 1.38 1.38 1.36 1.35 1.33 1.33 1.32 1.31 1.28 1.23 1.20 1.20 1.21 1.26 1.31 1.32 1.33 1.33 1.33 1.34 1.38 1.37 1.40 1.40 1.42 1.44 1.45 1.47 1.48 1.48 1.48 1.49
0.86 0.91 0.95 1.03 1.09 1.15 1.21 1.26 1.29 1.31 1.33 1.35 1.38 1.40 1.38 1.35 1.30 1.25 1.26 1.25 1.24 1.27 1.32 1.34 1.36 1.37 1.38 1.37 1.35 1.36 1.38 1.38 1.37 1.36 1.31 1.28 1.27 1.28 1.32 1.31 1.29 1.26 1.25 1.28 1.29 1.30 1.33 1.33 1.33 1.33 1.31 1.29 1.31 1.33 1.35 1.37 1.40 1.42 1.44 1.46 1.46 1.46 1.46
0.78 0.81 0.86 0.94 1.02 1.11 1.18 1.22 1.23 1.27 1.31 1.32 1.33 1.34 1.38 1.41 1.42 1.38 1.32 1.29 1.27 1.28 1.25 1.29 1.34 1.36 1.37 1.36 1.33 1.33 1.34 1.36 1.36 1.34 1.32 1.32 1.30 1.32 1.31 1.31 1.32 1.32 1.30 1.27 1.29 1.31 1.32 1.33 1.32 1.31 1.29 1.27 1.28 1.31 1.32 1.31 1.35 1.37 1.40 1.42 1.42 1.45 1.47
0.72 0.76 0.81 0.90 0.98 1.08 1.15 1.20 1.23 1.26 1.28 1.31 1.34 1.39 1.42 1.46 1.49 1.47 1.41 1.36 1.33 1.28 1.27 1.29 1.32 1.36 1.39 1.40 1.37 1.35 1.33 1.33 1.34 1.34 1.34 1.35 1.36 1.35 1.30 1.28 1.29 1.27 1.27 1.29 1.33 1.32 1.31 1.30 1.29 1.28 1.27 1.27 1.26 1.27 1.26 1.29 1.30 1.34 1.35 1.37 1.37 1.41 1.41
0.68 0.71 0.76 0.84 0.93 1.04 1.11 1.17 1.21 1.23 1.25 1.28 1.32 1.36 1.41 1.45 1.48 1.46 1.45 1.42 1.38 1.37 1.39 1.37 1.33 1.34 1.32 1.36 1.37 1.35 1.36 1.35 1.36 1.36 1.34 1.35 1.34 1.30 1.27 1.27 1.26 1.26 1.25 1.26 1.30 1.29 1.31 1.29 1.26 1.25 1.24 1.26 1.24 1.21 1.20 1.21 1.24 1.29 1.31 1.33 1.33 1.36 1.36
0.65 0.67 0.72 0.81 0.89 1.00 1.09 1.14 1.19 1.23 1.27 1.31 1.35 1.41 1.45 1.46 1.44 1.45 1.48 1.44 1.42 1.37 1.34 1.32 1.32 1.32 1.31 1.34 1.35 1.35 1.31 1.31 1.33 1.34 1.36 1.36 1.35 1.30 1.28 1.28 1.28 1.27 1.27 1.29 1.26 1.27 1.26 1.25 1.25 1.25 1.25 1.23 1.21 1.16 1.14 1.14 1.17 1.23 1.27 1.28 1.29 1.33 1.36
0.63 0.65 0.71 0.79 0.88 0.96 1.05 1.12 1.17 1.21 1.26 1.33 1.35 1.36 1.37 1.41 1.45 1.46 1.43 1.41 1.41 1.41 1.39 1.35 1.33 1.31 1.30 1.32 1.33 1.31 1.31 1.32 1.34 1.35 1.36 1.33 1.32 1.28 1.28 1.28 1.27 1.28 1.29 1.25 1.26 1.27 1.25 1.25 1.27 1.27 1.25 1.21 1.17 1.14 1.13 1.12 1.13 1.19 1.22 1.22 1.24 1.26 1.33
0.62 0.63 0.67 0.75 0.85 0.94 1.02 1.08 1.14 1.19 1.22 1.25 1.27 1.29 1.32 1.37 1.40 1.40 1.40 1.41 1.40 1.37 1.35 1.36 1.34 1.34 1.33 1.31 1.30 1.30 1.32 1.33 1.32 1.33 1.31 1.29 1.28 1.25 1.25 1.26 1.27 1.30 1.26 1.24 1.25 1.28 1.27 1.25 1.26 1.25 1.23 1.18 1.15 1.12 1.10 1.09 1.09 1.14 1.16 1.17 1.18 1.19 1.25
0.60 0.63 0.68 0.74 0.83 0.91 0.99 1.06 1.14 1.20 1.21 1.22 1.25 1.28 1.32 1.34 1.37 1.39 1.41 1.40 1.39 1.35 1.36 1.38 1.38 1.37 1.33 1.30 1.29 1.31 1.32 1.30 1.31 1.30 1.28 1.25 1.24 1.22 1.23 1.25 1.26 1.29 1.25 1.24 1.26 1.23 1.24 1.25 1.24 1.23 1.20 1.15 1.12 1.10 1.07 1.07 1.06 1.09 1.12 1.13 1.15 1.16 1.18
0.59 0.61 0.66 0.72 0.79 0.85 0.94 1.04 1.09 1.13 1.16 1.19 1.23 1.27 1.31 1.33 1.35 1.36 1.36 1.39 1.36 1.35 1.39 1.39 1.40 1.35 1.32 1.29 1.27 1.29 1.30 1.28 1.29 1.27 1.25 1.23 1.22 1.20 1.21 1.22 1.23 1.25 1.22 1.23 1.21 1.20 1.20 1.20 1.22 1.19 1.16 1.11 1.08 1.06 1.05 1.05 1.06 1.06 1.08 1.12 1.15 1.16 1.16
0.55 0.61 0.64 0.70 0.75 0.81 0.87 0.95 1.02 1.07 1.12 1.17 1.21 1.25 1.29 1.32 1.33 1.34 1.35 1.36 1.38 1.38 1.39 1.38 1.38 1.34 1.30 1.28 1.26 1.27 1.26 1.27 1.27 1.24 1.22 1.21 1.21 1.20 1.21 1.21 1.20 1.19 1.19 1.20 1.16 1.17 1.17 1.14 1.15 1.12 1.10 1.09 1.07 1.06 1.05 1.07 1.08 1.07 1.07 1.09 1.13 1.14 1.14
0.47 0.53 0.62 0.69 0.73 0.77 0.84 0.91 0.96 1.01 1.08 1.13 1.16 1.22 1.26 1.29 1.31 1.33 1.35 1.36 1.40 1.41 1.39 1.38 1.36 1.33 1.29 1.27 1.25 1.25 1.25 1.25 1.25 1.24 1.21 1.21 1.21 1.23 1.23 1.21 1.20 1.18 1.15 1.17 1.15 1.13 1.11 1.11 1.09 1.10 1.08 1.07 1.07 1.04 1.04 1.06 1.08 1.09 1.09 1.09 1.11 1.10 1.08
0.45 0.50 0.53 0.61 0.71 0.77 0.80 0.85 0.91 0.97 1.04 1.09 1.13 1.19 1.23 1.27 1.30 1.31 1.33 1.33 1.37 1.41 1.41 1.40 1.35 1.31 1.27 1.25 1.24 1.22 1.22 1.25 1.27 1.26 1.24 1.24 1.25 1.24 1.23 1.22 1.21 1.19 1.19 1.19 1.14 1.11 1.08 1.07 1.05 1.07 1.08 1.06 1.04 1.04 1.07 1.07 1.08 1.09 1.09 1.09 1.09 1.08 1.06
0.44 0.41 0.47 0.51 0.56 0.64 0.70 0.75 0.83 0.93 1.02 1.08 1.13 1.16 1.19 1.23 1.28 1.34 1.38 1.40 1.41 1.43 1.40 1.40 1.34 1.28 1.25 1.25 1.22 1.19 1.21 1.25 1.29 1.30 1.29 1.28 1.26 1.24 1.23 1.22 1.21 1.21 1.20 1.17 1.13 1.13 1.11 1.11 1.09 1.06 1.04 1.04 1.03 1.04 1.07 1.07 1.06 1.07 1.06 1.05 1.05 1.07 1.04
0.43 0.41 0.40 0.44 0.50 0.56 0.62 0.68 0.75 0.84 0.97 1.07 1.11 1.13 1.16 1.20 1.25 1.28 1.30 1.33 1.37 1.38 1.41 1.40 1.32 1.25 1.23 1.21 1.21 1.23 1.25 1.25 1.26 1.27 1.28 1.27 1.25 1.24 1.25 1.24 1.22 1.21 1.18 1.16 1.14 1.14 1.13 1.12 1.11 1.07 1.02 1.00 1.01 1.03 1.06 1.06 1.06 1.04 1.03 1.05 1.05 1.07 1.06
0.49 0.43 0.39 0.40 0.46 0.48 0.55 0.64 0.73 0.81 0.94 1.04 1.10 1.11 1.13 1.16 1.20 1.25 1.29 1.34 1.36 1.36 1.38 1.36 1.29 1.25 1.21 1.17 1.20 1.24 1.26 1.25 1.24 1.25 1.24 1.25 1.26 1.27 1.27 1.24 1.24 1.21 1.18 1.16 1.15 1.13 1.13 1.12 1.09 1.06 1.04 1.01 1.00 1.01 1.04 1.04 1.03 1.01 1.01 1.01 1.03 1.07 1.07
0.56 0.51 0.44 0.42 0.44 0.48 0.51 0.60 0.72 0.80 0.90 1.00 1.07 1.11 1.14 1.17 1.21 1.26 1.28 1.33 1.34 1.37 1.38 1.34 1.28 1.24 1.23 1.24 1.26 1.26 1.24 1.24 1.25 1.25 1.23 1.25 1.24 1.25 1.27 1.27 1.25 1.20 1.18 1.16 1.14 1.14 1.15 1.11 1.08 1.07 1.06 1.05 1.05 1.04 1.04 1.03 1.01 1.01 1.01 1.00 1.01 1.04 1.05
0.62 0.59 0.53 0.47 0.42 0.47 0.51 0.57 0.68 0.75 0.83 0.93 1.02 1.09 1.13 1.17 1.20 1.22 1.27 1.31 1.35 1.40 1.35 1.29 1.26 1.25 1.27 1.31 1.31 1.29 1.29 1.30 1.28 1.25 1.25 1.24 1.24 1.26 1.27 1.25 1.22 1.19 1.17 1.14 1.16 1.17 1.13 1.10 1.09 1.07 1.08 1.08 1.06 1.05 1.07 1.06 1.05 1.03 1.01 1.00 1.01 1.02 1.04
0.70 0.67 0.60 0.51 0.44 0.43 0.49 0.59 0.66 0.74 0.80 0.86 0.95 1.05 1.13 1.19 1.19 1.23 1.33 1.38 1.40 1.36 1.33 1.30 1.28 1.27 1.29 1.32 1.32 1.33 1.34 1.34 1.31 1.27 1.26 1.26 1.26 1.25 1.22 1.20 1.17 1.17 1.20 1.20 1.20 1.16 1.13 1.13 1.10 1.10 1.10 1.10 1.10 1.10 1.11 1.10 1.09 1.07 1.04 1.03 1.01 1.02 1.03
0.75 0.73 0.69 0.59 0.54 0.53 0.54 0.55 0.65 0.75 0.84 0.91 1.01 1.14 1.19 1.24 1.30 1.35 1.38 1.41 1.38 1.38 1.35 1.32 1.30 1.30 1.31 1.31 1.33 1.34 1.34 1.33 1.31 1.28 1.29 1.28 1.26 1.22 1.19 1.16 1.17 1.18 1.19 1.19 1.17 1.15 1.12 1.11 1.10 1.11 1.13 1.15 1.17 1.15 1.14 1.13 1.13 1.11 1.09 1.07 1.05 1.04 1.05
0.86 0.86 0.78 0.74 0.68 0.63 0.58 0.54 0.64 0.75 0.81 0.93 1.02 1.08 1.12 1.18 1.27 1.30 1.34 1.40 1.38 1.38 1.36 1.34 1.31 1.30 1.32 1.31 1.32 1.30 1.30 1.27 1.26 1.26 1.27 1.26 1.25 1.21 1.17 1.16 1.15 1.14 1.18 1.19 1.19 1.21 1.20 1.19 1.18 1.16 1.17 1.19 1.20 1.18 1.14 1.15 1.16 1.13 1.11 1.11 1.11 1.11 1.10
1.01 0.98 0.90 0.82 0.79 0.71 0.68 0.68 0.75 0.86 0.96 1.00 1.03 1.05 1.11 1.22 1.29 1.31 1.35 1.36 1.38 1.39 1.37 1.35 1.30 1.28 1.29 1.28 1.29 1.30 1.31 1.29 1.25 1.23 1.21 1.21 1.20 1.17 1.16 1.15 1.16 1.17 1.22 1.17 1.17 1.17 1.15 1.15 1.16 1.19 1.19 1.19 1.21 1.18 1.15 1.15 1.18 1.16 1.15 1.15 1.16 1.16 1.14
1.10 1.05 0.95 0.85 0.85 0.79 0.75 0.78 0.87 0.93 0.92 0.98 1.02 1.08 1.19 1.28 1.31 1.32 1.31 1.33 1.36 1.36 1.35 1.31 1.26 1.28 1.28 1.28 1.30 1.32 1.33 1.33 1.32 1.28 1.26 1.24 1.17 1.16 1.17 1.19 1.21 1.19 1.22 1.16 1.14 1.13 1.15 1.19 1.20 1.23 1.25 1.23 1.22 1.22 1.17 1.16 1.22 1.21 1.20 1.21 1.21 1.20 1.17
1.11 1.07 1.00 0.91 0.86 0.79 0.77 0.81 0.85 0.90 0.96 1.00 1.01 1.12 1.25 1.31 1.33 1.32 1.29 1.30 1.31 1.30 1.28 1.26 1.26 1.28 1.27 1.30 1.35 1.37 1.38 1.38 1.37 1.34 1.32 1.30 1.30 1.31 1.29 1.28 1.27 1.29 1.31 1.27 1.24 1.22 1.25 1.26 1.24 1.26 1.29 1.29 1.28 1.27 1.24 1.24 1.27 1.26 1.25 1.25 1.25 1.24 1.23
1.12 1.06 0.99 0.99 0.95 0.95 0.91 0.92 0.92 0.93 0.94 0.96 1.02 1.18 1.29 1.34 1.33 1.29 1.28 1.29 1.29 1.26 1.24 1.25 1.27 1.31 1.35 1.39 1.42 1.44 1.44 1.44 1.42 1.41 1.39 1.38 1.41 1.43 1.44 1.48 1.49 1.47 1.47 1.46 1.45 1.41 1.39 1.38 1.35 1.31 1.31 1.35 1.34 1.32 1.31 1.28 1.30 1.30 1.28 1.27 1.26 1.25 1.26
1.24 1.19 1.08 1.03 1.00 1.03 0.99 0.97 0.93 0.90 0.92 1.01 1.13 1.25 1.34 1.36 1.31 1.28 1.29 1.30 1.27 1.22 1.22 1.28 1.34 1.36 1.38 1.40 1.43 1.45 1.46 1.48 1.49 1.47 1.50 1.53 1.53 1.58 1.61 1.64 1.63 1.65 1.64 1.63 1.64 1.62 1.60 1.57 1.55 1.52 1.50 1.51 1.49 1.45 1.44 1.42 1.38 1.39 1.35 1.32 1.29 1.29 1.28
1.30 1.26 1.24 1.22 1.14 1.07 1.07 1.06 1.04 1.02 1.05 1.12 1.21 1.31 1.35 1.35 1.30 1.29 1.28 1.26 1.21 1.23 1.31 1.36 1.38 1.40 1.43 1.42 1.42 1.44 1.47 1.49 1.52 1.54 1.56 1.61 1.65 1.65 1.67 1.73 1.76 1.75 1.75 1.74 1.72 1.70 1.69 1.70 1.69 1.67 1.66 1.66 1.65 1.61 1.58 1.59 1.55 1.51 1.46 1.41 1.37 1.34 1.34
1.27 1.24 1.21 1.20 1.17 1.19 1.15 1.11 1.10 1.10 1.11 1.20 1.29 1.34 1.35 1.34 1.29 1.28 1.27 1.22 1.25 1.36 1.41 1.40 1.41 1.42 1.43 1.43 1.43 1.45 1.49 1.52 1.53 1.55 1.60 1.63 1.67 1.69 1.69 1.75 1.75 1.76 1.77 1.74 1.72 1.71 1.71 1.72 1.74 1.73 1.73 1.75 1.77 1.77 1.76 1.76 1.74 1.68 1.61 1.55 1.50 1.44 1.42
1.35 1.33 1.32 1.32 1.30 1.26 1.24 1.19 1.18 1.19 1.27 1.33 1.36 1.38 1.38 1.34 1.28 1.27 1.25 1.26 1.41 1.45 1.44 1.43 1.45 1.46 1.46 1.47 1.47 1.49 1.51 1.54 1.58 1.61 1.64 1.66 1.69 1.70 1.70 1.71 1.73 1.75 1.76 1.75 1.73 1.71 1.70 1.72 1.75 1.75 1.72 1.72 1.76 1.83 1.87 1.90 1.90 1.87 1.81 1.74 1.67 1.59 1.54
1.36 1.36 1.36 1.35 1.35 1.36 1.33 1.27 1.25 1.29 1.34 1.41 1.43 1.44 1.42 1.41 1.33 1.30 1.28 1.39 1.48 1.46 1.45 1.45 1.47 1.47 1.48 1.50 1.54 1.55 1.57 1.61 1.62 1.64 1.68 1.70 1.71 1.69 1.70 1.72 1.75 1.72 1.78 1.77 1.74 1.72 1.69 1.72 1.74 1.72 1.73 1.74 1.74 1.80 1.88 1.94 1.98 1.99 1.97 1.93 1.86 1.79 1.72
1.39 1.44 1.46 1.48 1.45 1.45 1.42 1.40 1.38 1.39 1.38 1.43 1.48 1.46 1.47 1.46 1.44 1.35 1.38 1.49 1.52 1.54 1.52 1.51 1.50 1.50 1.52 1.55 1.56 1.57 1.61 1.61 1.64 1.66 1.68 1.71 1.73 1.73 1.75 1.73 1.74 1.73 1.76 1.76 1.75 1.75 1.73 1.73 1.74 1.74 1.74 1.72 1.75 1.77 1.83 1.91 1.94 1.97 2.03 2.03 2.00 1.94 1.87
1.37 1.42 1.44 1.47 1.54 1.57 1.52 1.49 1.45 1.45 1.44 1.42 1.49 1.50 1.51 1.50 1.50 1.50 1.53 1.55 1.59 1.60 1.60 1.58 1.56 1.55 1.55 1.53 1.56 1.60 1.63 1.59 1.58 1.59 1.63 1.66 1.70 1.72 1.73 1.74 1.74 1.73 1.72 1.72 1.70 1.72 1.73 1.73 1.71 1.70 1.70 1.69 1.73 1.78 1.82 1.85 1.89 1.91 1.95 1.99 1.98 1.96 1.95
1.32 1.41 1.49 1.53 1.58 1.61 1.60 1.57 1.54 1.55 1.55 1.52 1.57 1.58 1.59 1.57 1.56 1.60 1.63 1.65 1.66 1.66 1.67 1.65 1.64 1.56 1.49 1.48 1.49 1.50 1.51 1.49 1.50 1.51 1.53 1.56 1.59 1.60 1.63 1.67 1.69 1.65 1.62 1.61 1.62 1.61 1.61 1.64 1.64 1.64 1.66 1.67 1.71 1.74 1.76 1.77 1.82 1.86 1.88 1.93 1.93 1.93 1.93
1.27 1.35 1.45 1.49 1.53 1.57 1.57 1.60 1.61 1.64 1.65 1.65 1.70 1.72 1.70 1.70 1.72 1.75 1.74 1.76 1.78 1.79 1.73 1.67 1.61 1.62 1.56 1.53 1.48 1.44 1.43 1.40 1.40 1.40 1.43 1.46 1.49 1.48 1.50 1.55 1.62 1.62 1.64 1.72 1.74 1.70 1.65 1.62 1.64 1.68 1.73 1.74 1.72 1.69 1.68 1.72 1.73 1.84 1.95 1.96 1.97 1.95 1.93
1.25 1.31 1.37 1.47 1.53 1.53 1.55 1.60 1.62 1.65 1.69 1.73 1.78 1.78 1.77 1.77 1.80 1.84 1.87 1.90 1.87 1.80 1.65 1.62 1.57 1.52 1.49 1.48 1.41 1.38 1.36 1.36 1.36 1.37 1.37 1.36 1.35 1.35 1.39 1.46 1.52 1.57 1.60 1.62 1.67 1.71 1.73 1.73 1.69 1.74 1.75 1.72 1.78 1.80 1.74 1.74 1.87 1.96 1.97 1.96 1.96 1.97 1.98
1.17 1.23 1.31 1.41 1.47 1.48 1.49 1.54 1.59 1.61 1.64 1.70 1.74 1.73 1.75 1.77 1.81 1.84 1.82 1.90 1.91 1.78 1.64 1.64 1.61 1.49 1.43 1.43 1.39 1.38 1.36 1.34 1.30 1.31 1.33 1.33 1.32 1.31 1.30 1.33 1.41 1.48 1.56 1.62 1.65 1.67 1.70 1.73 1.75 1.78 1.80 1.77 1.71 1.75 1.81 1.85 1.91 1.95 1.96 1.96 1.96 1.95 1.96
1.11 1.17 1.28 1.38 1.44 1.47 1.48 1.51 1.56 1.58 1.60 1.67 1.69 1.67 1.64 1.63 1.67 1.69 1.68 1.71 1.72 1.76 1.67 1.58 1.51 1.39 1.30 1.33 1.38 1.38 1.36 1.32 1.28 1.27 1.26 1.28 1.32 1.32 1.30 1.27 1.27 1.34 1.44 1.54 1.60 1.64 1.67 1.70 1.73 1.77 1.80 1.82 1.80 1.76 1.75 1.79 1.84 1.90 1.92 1.93 1.92 1.92 1.91

ECMWFFLT1_prec_pwat_048.txt.gz
Precipitable_Water
1.06 1.13 1.19 1.24 1.27 1.29 1.29 1.33 1.38 1.41 1.43 1.44 1.45 1.42 1.37 1.30 1.28 1.30 1.31 1.32 1.32 1.36 1.42 1.42 1.40 1.41 1.38 1.40 1.42 1.43 1.42 1.40 1.38 1.33 1.30 1.27 1.26 1.26 1.24 1.23 1.18 1.17 1.18 1.14 1.15 1.19 1.34 1.43 1.46 1.52 1.52 1.50 1.47 1.50 1.51 1.54 1.52 1.51 1.52 1.54 1.51 1.52 1.52
1.03 1.09 1.14 1.19 1.22 1.24 1.27 1.30 1.35 1.40 1.43 1.44 1.46 1.47 1.44 1.36 1.30 1.25 1.25 1.28 1.29 1.30 1.36 1.40 1.40 1.39 1.39 1.39 1.42 1.44 1.43 1.42 1.42 1.40 1.39 1.38 1.38 1.35 1.33 1.28 1.23 1.22 1.19 1.18 1.21 1.28 1.33 1.42 1.41 1.44 1.46 1.48 1.46 1.48 1.52 1.53 1.52 1.49 1.48 1.50 1.48 1.48 1.49
0.98 1.06 1.10 1.16 1.18 1.19 1.23 1.29 1.32 1.34 1.38 1.42 1.45 1.47 1.44 1.40 1.32 1.25 1.24 1.24 1.27 1.31 1.35 1.37 1.38 1.38 1.41 1.41 1.39 1.40 1.43 1.44 1.44 1.43 1.40 1.38 1.37 1.34 1.35 1.34 1.30 1.28 1.28 1.26 1.25 1.31 1.35 1.37 1.40 1.42 1.44 1.44 1.45 1.47 1.49 1.52 1.52 1.49 1.47 1.49 1.49 1.47 1.46
0.89 1.01 1.08 1.15 1.15 1.17 1.21 1.23 1.26 1.30 1.34 1.36 1.39 1.40 1.43 1.45 1.45 1.37 1.31 1.27 1.24 1.26 1.26 1.30 1.35 1.37 1.39 1.38 1.37 1.38 1.40 1.43 1.45 1.44 1.42 1.41 1.40 1.39 1.36 1.36 1.35 1.34 1.33 1.28 1.27 1.28 1.35 1.35 1.37 1.39 1.40 1.40 1.42 1.45 1.47 1.46 1.50 1.49 1.48 1.47 1.45 1.47 1.48
0.83 0.95 1.03 1.10 1.11 1.14 1.19 1.21 1.24 1.28 1.31 1.33 1.36 1.41 1.45 1.49 1.51 1.47 1.38 1.33 1.29 1.22 1.24 1.28 1.33 1.38 1.41 1.41 1.39 1.39 1.38 1.39 1.42 1.44 1.45 1.45 1.46 1.46 1.39 1.36 1.35 1.32 1.31 1.31 1.32 1.31 1.30 1.32 1.33 1.37 1.38 1.37 1.38 1.40 1.40 1.42 1.41 1.45 1.44 1.44 1.40 1.42 1.43
0.71 0.83 0.91 1.01 1.08 1.12 1.13 1.15 1.18 1.23 1.26 1.28 1.33 1.39 1.45 1.47 1.49 1.48 1.45 1.36 1.32 1.34 1.35 1.35 1.33 1.34 1.33 1.37 1.38 1.38 1.40 1.41 1.42 1.44 1.44 1.46 1.44 1.43 1.39 1.37 1.36 1.34 1.31 1.32 1.36 1.33 1.33 1.31 1.31 1.35 1.34 1.38 1.33 1.34 1.35 1.34 1.34 1.37 1.39 1.39 1.36 1.37 1.36
0.65 0.77 0.81 0.85 0.99 1.07 1.09 1.12 1.17 1.21 1.26 1.29 1.35 1.41 1.44 1.45 1.44 1.46 1.49 1.44 1.37 1.31 1.31 1.28 1.27 1.30 1.31 1.36 1.37 1.37 1.35 1.36 1.38 1.38 1.43 1.44 1.45 1.42 1.40 1.39 1.37 1.36 1.36 1.39 1.36 1.37 1.35 1.32 1.31 1.33 1.34 1.34 1.35 1.30 1.29 1.32 1.31 1.32 1.32 1.32 1.31 1.32 1.32
0.62 0.69 0.78 0.79 0.85 0.97 1.02 1.08 1.14 1.20 1.26 1.31 1.35 1.39 1.39 1.41 1.43 1.45 1.45 1.45 1.44 1.38 1.33 1.31 1.32 1.30 1.30 1.32 1.33 1.32 1.34 1.38 1.39 1.39 1.41 1.40 1.41 1.39 1.40 1.39 1.37 1.38 1.39 1.35 1.37 1.37 1.35 1.33 1.33 1.32 1.33 1.31 1.31 1.30 1.30 1.31 1.30 1.28 1.27 1.26 1.23 1.23 1.29
0.57 0.64 0.74 0.77 0.81 0.86 0.92 1.03 1.11 1.18 1.24 1.26 1.28 1.31 1.34 1.38 1.39 1.39 1.42 1.45 1.46 1.39 1.33 1.32 1.32 1.34 1.35 1.32 1.30 1.30 1.34 1.38 1.39 1.39 1.37 1.35 1.37 1.35 1.37 1.38 1.37 1.39 1.35 1.32 1.34 1.37 1.34 1.33 1.32 1.31 1.30 1.28 1.28 1.28 1.28 1.29 1.28 1.26 1.23 1.22 1.20 1.18 1.20
0.51 0.65 0.73 0.78 0.80 0.81 0.90 1.03 1.12 1.17 1.23 1.26 1.26 1.30 1.34 1.36 1.37 1.40 1.44 1.45 1.44 1.39 1.38 1.39 1.40 1.39 1.37 1.34 1.31 1.31 1.33 1.34 1.37 1.37 1.35 1.31 1.32 1.32 1.35 1.36 1.36 1.37 1.33 1.32 1.33 1.32 1.32 1.31 1.30 1.29 1.27 1.24 1.24 1.25 1.26 1.26 1.24 1.25 1.22 1.18 1.17 1.17 1.16
0.53 0.66 0.71 0.74 0.77 0.79 0.87 0.97 1.07 1.09 1.17 1.22 1.25 1.29 1.34 1.35 1.37 1.40 1.41 1.43 1.42 1.41 1.44 1.44 1.46 1.43 1.40 1.37 1.32 1.31 1.29 1.29 1.32 1.33 1.32 1.29 1.29 1.30 1.33 1.34 1.36 1.36 1.31 1.30 1.28 1.30 1.30 1.27 1.27 1.25 1.24 1.21 1.21 1.22 1.23 1.23 1.23 1.19 1.18 1.17 1.17 1.16 1.15
0.75 0.80 0.85 0.83 0.81 0.82 0.85 0.93 1.01 1.05 1.12 1.20 1.24 1.27 1.30 1.34 1.37 1.39 1.40 1.41 1.44 1.45 1.47 1.47 1.47 1.45 1.42 1.40 1.35 1.31 1.27 1.27 1.28 1.28 1.28 1.28 1.28 1.29 1.31 1.34 1.34 1.34 1.32 1.28 1.24 1.25 1.26 1.25 1.23 1.21 1.20 1.22 1.23 1.23 1.23 1.24 1.22 1.19 1.16 1.15 1.15 1.13 1.12
0.60 0.70 0.78 0.83 0.86 0.90 0.93 0.97 1.03 1.08 1.13 1.18 1.23 1.26 1.29 1.32 1.34 1.37 1.39 1.42 1.46 1.48 1.48 1.48 1.48 1.46 1.43 1.42 1.37 1.32 1.28 1.26 1.24 1.25 1.26 1.28 1.29 1.30 1.32 1.31 1.32 1.32 1.29 1.28 1.25 1.22 1.20 1.22 1.20 1.21 1.20 1.22 1.23 1.22 1.22 1.22 1.21 1.19 1.16 1.14 1.13 1.12 1.09
0.53 0.56 0.67 0.72 0.75 0.78 0.82 0.89 1.01 1.06 1.12 1.18 1.25 1.29 1.31 1.33 1.34 1.35 1.38 1.40 1.44 1.47 1.49 1.51 1.48 1.46 1.43 1.42 1.38 1.33 1.28 1.27 1.27 1.26 1.26 1.29 1.31 1.32 1.31 1.31 1.30 1.30 1.31 1.30 1.24 1.21 1.20 1.19 1.18 1.20 1.20 1.19 1.19 1.20 1.22 1.21 1.19 1.18 1.17 1.15 1.11 1.09 1.06
0.75 0.70 0.63 0.67 0.72 0.73 0.76 0.82 0.93 1.02 1.06 1.14 1.21 1.25 1.30 1.33 1.35 1.39 1.43 1.47 1.48 1.48 1.48 1.51 1.49 1.47 1.44 1.43 1.37 1.33 1.31 1.31 1.31 1.30 1.30 1.30 1.31 1.30 1.30 1.30 1.29 1.30 1.29 1.27 1.24 1.23 1.22 1.22 1.22 1.21 1.18 1.18 1.17 1.17 1.20 1.18 1.17 1.17 1.15 1.12 1.09 1.08 1.03
0.78 0.83 0.88 0.78 0.75 0.78 0.77 0.80 0.89 0.97 1.02 1.06 1.13 1.19 1.25 1.31 1.33 1.35 1.37 1.40 1.45 1.45 1.48 1.51 1.48 1.46 1.44 1.41 1.38 1.37 1.36 1.33 1.32 1.29 1.29 1.28 1.27 1.27 1.28 1.29 1.29 1.28 1.27 1.25 1.23 1.22 1.23 1.22 1.23 1.20 1.17 1.14 1.14 1.15 1.16 1.14 1.15 1.12 1.10 1.10 1.09 1.07 1.04
0.74 0.76 0.81 0.86 0.96 0.81 0.87 0.85 0.84 0.92 0.95 0.97 1.02 1.09 1.18 1.26 1.30 1.33 1.37 1.40 1.44 1.45 1.48 1.48 1.45 1.44 1.43 1.40 1.42 1.42 1.39 1.34 1.30 1.29 1.26 1.26 1.27 1.29 1.28 1.28 1.29 1.28 1.26 1.25 1.23 1.21 1.22 1.21 1.18 1.16 1.17 1.15 1.13 1.11 1.10 1.10 1.09 1.06 1.03 1.03 1.04 1.08 1.08
0.73 0.75 0.79 0.84 0.89 0.92 0.91 0.84 0.88 0.88 0.89 0.91 0.92 1.00 1.10 1.19 1.27 1.32 1.33 1.39 1.41 1.44 1.49 1.49 1.45 1.42 1.43 1.44 1.46 1.44 1.37 1.32 1.29 1.25 1.25 1.28 1.27 1.28 1.29 1.29 1.28 1.25 1.24 1.23 1.21 1.22 1.23 1.19 1.16 1.16 1.16 1.16 1.15 1.12 1.10 1.08 1.06 1.02 1.00 0.99 0.99 1.01 1.05
0.73 0.76 0.80 0.84 0.87 0.89 0.92 0.86 0.83 0.90 0.88 0.87 0.91 0.94 1.02 1.12 1.20 1.24 1.29 1.34 1.40 1.47 1.48 1.47 1.45 1.45 1.45 1.47 1.45 1.41 1.38 1.33 1.28 1.25 1.25 1.25 1.27 1.30 1.31 1.29 1.27 1.25 1.23 1.20 1.22 1.24 1.19 1.17 1.17 1.15 1.15 1.14 1.11 1.09 1.09 1.08 1.07 1.01 0.98 0.97 0.98 0.99 1.01
0.74 0.76 0.80 0.85 0.89 0.91 0.92 0.90 0.83 0.83 0.94 0.93 0.92 0.93 0.98 1.10 1.15 1.22 1.32 1.39 1.47 1.46 1.46 1.48 1.50 1.49 1.46 1.45 1.41 1.40 1.38 1.33 1.29 1.26 1.25 1.26 1.28 1.30 1.29 1.27 1.24 1.25 1.27 1.27 1.28 1.22 1.19 1.18 1.16 1.16 1.15 1.13 1.11 1.09 1.09 1.09 1.08 1.02 0.99 0.98 0.98 1.00 1.01
0.74 0.76 0.78 0.84 0.89 0.93 0.94 0.93 0.85 0.74 0.86 0.98 0.98 1.01 1.08 1.15 1.24 1.34 1.37 1.41 1.41 1.43 1.45 1.49 1.51 1.51 1.49 1.42 1.39 1.39 1.35 1.31 1.29 1.26 1.28 1.29 1.28 1.27 1.25 1.24 1.26 1.27 1.29 1.28 1.26 1.23 1.19 1.17 1.15 1.16 1.15 1.14 1.12 1.09 1.06 1.07 1.09 1.05 1.02 1.01 1.01 1.02 1.03
0.77 0.81 0.81 0.88 0.91 0.94 0.97 0.91 0.85 0.73 0.74 0.94 1.02 1.04 1.06 1.11 1.23 1.27 1.29 1.37 1.39 1.42 1.45 1.48 1.49 1.50 1.51 1.43 1.39 1.35 1.33 1.30 1.27 1.26 1.28 1.28 1.28 1.25 1.23 1.24 1.26 1.25 1.29 1.30 1.30 1.31 1.29 1.25 1.22 1.18 1.15 1.15 1.13 1.09 1.04 1.05 1.07 1.06 1.04 1.04 1.04 1.06 1.07
0.86 0.87 0.90 0.97 1.02 1.02 1.06 0.96 0.85 0.77 0.77 0.95 1.04 1.03 1.04 1.15 1.22 1.23 1.28 1.33 1.38 1.41 1.43 1.47 1.46 1.47 1.47 1.41 1.36 1.35 1.36 1.35 1.31 1.29 1.28 1.27 1.24 1.22 1.22 1.23 1.24 1.27 1.32 1.27 1.27 1.26 1.23 1.20 1.20 1.20 1.17 1.13 1.12 1.08 1.05 1.04 1.09 1.08 1.06 1.06 1.08 1.10 1.11
0.93 0.94 0.98 1.06 1.10 1.09 1.05 0.93 0.85 0.82 0.85 0.95 0.97 1.01 1.11 1.21 1.23 1.20 1.23 1.29 1.36 1.39 1.42 1.43 1.42 1.45 1.44 1.39 1.37 1.36 1.38 1.37 1.34 1.30 1.29 1.29 1.25 1.24 1.26 1.29 1.30 1.28 1.30 1.22 1.20 1.20 1.21 1.22 1.19 1.20 1.18 1.14 1.12 1.12 1.06 1.05 1.13 1.12 1.10 1.10 1.12 1.13 1.13
0.93 0.94 1.03 1.09 1.07 1.04 1.03 1.01 0.90 0.83 0.87 0.96 0.95 1.03 1.13 1.19 1.18 1.13 1.18 1.27 1.34 1.38 1.38 1.39 1.41 1.43 1.41 1.37 1.38 1.39 1.39 1.38 1.36 1.34 1.32 1.29 1.30 1.32 1.30 1.29 1.28 1.29 1.31 1.26 1.23 1.19 1.21 1.20 1.17 1.17 1.18 1.18 1.17 1.17 1.11 1.12 1.18 1.18 1.15 1.14 1.15 1.17 1.20
0.92 0.95 1.05 1.11 1.13 1.14 1.08 1.10 0.98 0.86 0.90 0.94 0.97 1.04 1.11 1.17 1.14 1.08 1.16 1.26 1.33 1.34 1.35 1.37 1.40 1.43 1.45 1.44 1.41 1.40 1.39 1.38 1.36 1.34 1.32 1.30 1.32 1.35 1.34 1.36 1.35 1.31 1.27 1.25 1.22 1.18 1.18 1.18 1.17 1.14 1.16 1.20 1.20 1.20 1.18 1.17 1.23 1.24 1.19 1.17 1.17 1.19 1.22
1.03 1.05 1.11 1.17 1.20 1.19 1.21 1.17 1.09 0.97 0.91 0.92 0.97 1.07 1.15 1.15 1.08 1.07 1.17 1.26 1.29 1.28 1.33 1.40 1.45 1.49 1.50 1.46 1.40 1.38 1.38 1.39 1.38 1.37 1.39 1.40 1.37 1.36 1.35 1.34 1.29 1.29 1.26 1.22 1.21 1.19 1.16 1.15 1.16 1.16 1.18 1.23 1.25 1.26 1.27 1.25 1.24 1.29 1.23 1.20 1.20 1.21 1.23
1.05 1.12 1.23 1.32 1.34 1.28 1.24 1.25 1.17 1.09 1.05 1.09 1.06 1.09 1.11 1.09 1.06 1.07 1.18 1.23 1.21 1.26 1.39 1.46 1.48 1.49 1.48 1.44 1.37 1.37 1.39 1.39 1.42 1.44 1.44 1.45 1.45 1.40 1.35 1.37 1.36 1.32 1.29 1.26 1.23 1.19 1.17 1.19 1.19 1.19 1.21 1.26 1.31 1.33 1.34 1.37 1.32 1.35 1.29 1.26 1.26 1.26 1.27
1.04 1.08 1.18 1.26 1.29 1.32 1.26 1.30 1.23 1.16 1.16 1.17 1.14 1.13 1.16 1.16 1.09 1.11 1.18 1.17 1.24 1.38 1.44 1.47 1.49 1.49 1.48 1.41 1.33 1.35 1.38 1.41 1.43 1.44 1.45 1.45 1.45 1.42 1.39 1.43 1.43 1.42 1.42 1.38 1.35 1.33 1.31 1.32 1.33 1.31 1.31 1.34 1.39 1.43 1.46 1.48 1.45 1.40 1.37 1.34 1.33 1.33 1.32
1.11 1.17 1.23 1.32 1.35 1.32 1.29 1.27 1.33 1.34 1.22 1.25 1.24 1.24 1.25 1.22 1.15 1.17 1.19 1.23 1.42 1.45 1.47 1.49 1.50 1.50 1.44 1.35 1.32 1.34 1.40 1.45 1.48 1.50 1.49 1.49 1.49 1.48 1.45 1.45 1.48 1.50 1.51 1.51 1.49 1.47 1.45 1.48 1.51 1.49 1.47 1.46 1.50 1.55 1.60 1.62 1.61 1.57 1.53 1.47 1.45 1.43 1.41
1.10 1.15 1.22 1.28 1.33 1.35 1.33 1.28 1.31 1.33 1.31 1.30 1.30 1.31 1.33 1.31 1.25 1.25 1.29 1.43 1.48 1.45 1.46 1.48 1.49 1.45 1.39 1.35 1.34 1.36 1.43 1.48 1.50 1.52 1.52 1.54 1.54 1.50 1.51 1.52 1.56 1.55 1.61 1.64 1.63 1.62 1.60 1.62 1.65 1.62 1.61 1.61 1.59 1.64 1.68 1.71 1.72 1.73 1.68 1.62 1.57 1.53 1.50
1.17 1.24 1.31 1.36 1.36 1.37 1.36 1.37 1.32 1.35 1.35 1.38 1.37 1.37 1.37 1.37 1.40 1.36 1.43 1.53 1.53 1.50 1.51 1.51 1.50 1.45 1.42 1.41 1.41 1.42 1.46 1.46 1.50 1.55 1.56 1.58 1.61 1.61 1.63 1.62 1.65 1.65 1.70 1.71 1.72 1.72 1.70 1.70 1.70 1.69 1.69 1.67 1.69 1.70 1.76 1.83 1.83 1.82 1.83 1.78 1.74 1.68 1.64
1.19 1.24 1.27 1.33 1.38 1.41 1.39 1.40 1.37 1.34 1.36 1.34 1.41 1.43 1.44 1.45 1.50 1.56 1.59 1.62 1.60 1.57 1.61 1.58 1.55 1.50 1.47 1.45 1.46 1.50 1.51 1.49 1.49 1.52 1.56 1.58 1.61 1.65 1.67 1.69 1.71 1.71 1.71 1.72 1.70 1.71 1.71 1.72 1.71 1.69 1.68 1.67 1.70 1.76 1.80 1.81 1.85 1.87 1.89 1.89 1.85 1.80 1.78
1.17 1.27 1.33 1.42 1.45 1.45 1.45 1.42 1.39 1.35 1.36 1.36 1.44 1.53 1.57 1.60 1.62 1.69 1.69 1.66 1.65 1.66 1.65 1.61 1.58 1.54 1.51 1.51 1.51 1.52 1.55 1.55 1.56 1.57 1.59 1.61 1.62 1.64 1.66 1.71 1.75 1.73 1.73 1.72 1.73 1.71 1.71 1.72 1.71 1.71 1.71 1.69 1.74 1.77 1.78 1.78 1.83 1.87 1.88 1.93 1.91 1.88 1.87
1.15 1.25 1.31 1.43 1.50 1.48 1.44 1.44 1.42 1.43 1.41 1.40 1.46 1.51 1.59 1.61 1.66 1.70 1.70 1.69 1.69 1.68 1.62 1.60 1.61 1.61 1.60 1.61 1.63 1.63 1.66 1.67 1.67 1.66 1.68 1.72 1.73 1.78 1.74 1.78 1.78 1.78 1.82 1.92 1.94 1.90 1.83 1.83 1.80 1.81 1.84 1.84 1.82 1.78 1.75 1.79 1.82 1.93 2.01 2.02 2.01 1.98 1.94
1.16 1.22 1.31 1.48 1.57 1.53 1.51 1.50 1.47 1.47 1.46 1.49 1.56 1.57 1.56 1.58 1.62 1.66 1.70 1.73 1.74 1.73 1.65 1.63 1.63 1.61 1.64 1.68 1.67 1.69 1.70 1.69 1.72 1.72 1.72 1.75 1.76 1.67 1.66 1.74 1.78 1.80 1.78 1.89 1.93 1.96 1.99 2.02 1.98 2.00 1.97 1.92 1.98 1.99 1.91 1.89 2.04 2.07 2.06 2.04 2.04 2.05 2.04
1.17 1.20 1.29 1.46 1.58 1.56 1.51 1.52 1.51 1.50 1.51 1.56 1.60 1.58 1.60 1.62 1.66 1.73 1.80 1.82 1.82 1.76 1.71 1.72 1.68 1.65 1.72 1.77 1.75 1.75 1.74 1.71 1.68 1.72 1.72 1.72 1.74 1.66 1.60 1.62 1.68 1.77 1.81 1.82 1.86 1.89 1.91 1.95 1.97 2.01 2.02 2.02 1.94 1.98 2.00 2.01 2.05 2.07 2.06 2.04 2.02 2.01 2.00
1.20 1.23 1.27 1.39 1.55 1.61 1.56 1.52 1.54 1.52 1.51 1.57 1.60 1.60 1.62 1.63 1.70 1.76 1.79 1.83 1.87 1.90 1.83 1.79 1.71 1.66 1.74 1.80 1.82 1.79 1.79 1.78 1.72 1.71 1.70 1.67 1.68 1.64 1.62 1.59 1.57 1.62 1.72 1.77 1.79 1.84 1.87 1.88 1.89 1.91 1.94 1.96 1.94 1.91 1.91 1.91 1.91 1.94 1.96 1.98 2.00 2.00 2.00